     2              OBSERVATION DATA    GPS                 RINEX VERSION / TYPE
FIC2RX 9.60 97/08/04                                        PGM / RUN BY / DATE
                                                            COMMENT
Operator input collection int (sec) 30.0000                 COMMENT
Operator input collection int (sec) 30.0000                 COMMENT
Operator input collection int (sec) 30.0000                 COMMENT
Operator input collection int (sec) 30.0000                 COMMENT
Operator input collection int (sec) 30.0000                 COMMENT
Original Marker Name: KANE1959                              COMMENT
Campaign Name: STRC 1988 University                         COMMENT
4-Character Station Name: KANE                              COMMENT
6-Character Antenna Code: TI4100                            COMMENT
Vertical Measurement Point: PAE                             COMMENT
Vertical Offset to Rinex Ref. Point: 0.0000                 COMMENT
Radial Measurement Point: PAE                               COMMENT
Radial Offset to Rinex Ref. Point: 0.0842                   COMMENT
Antenna Height from Field Measurement: 1.2420 m             COMMENT
Original XYZ: 0.0000 0.0000 0.0000                          COMMENT
New XYZ position is based on association with SCEC monument COMMENT
E1C8Y9N7+0011. Position of that monument is believed to be  COMMENT
valid to within 1 m horizontally; vertical accuracy         COMMENT
should be no worse than 3-times this value.                 COMMENT
                                                            COMMENT
Revised Rinex header created by UCSD GPS archive for        COMMENT
GSAC on 10-Apr-1999 (1999:100) 08:01:41 GMT                 COMMENT
For assistance contact dagnew@ucsd.edu or hjohnson@ucsd.edu COMMENT
                                                            COMMENT
KANE 1959                                                   MARKER NAME
SL CALIF INSTIT OF TECHNOLOGY                               OBSERVER / AGENCY
UT51 TI 4100 GES 1.50                                       REC # / TYPE / VERS
UT51 TI 4100                                                ANT # / TYPE
 -2330818.0000 -4816432.0000  3459675.0000                  APPROX POSITION XYZ
        1.2391        0.0000        0.0000                  ANTENNA: DELTA H/E/N
     1     1     0                                          WAVELENGTH FACT L1/2
     4    L1    L2    P1    P2                              # / TYPES OF OBSERV
    30                                                      INTERVAL
  1988     2    28     4    46   59.000000                  TIME OF FIRST OBS
  1988     2    28    11    59   59.000000                  TIME OF LAST OBS
     7                                                      # OF SATELLITES
           6   387   387   387   387                        PRN / # OF OBS
           8   291   291   291   291                        PRN / # OF OBS
          11   560   560   560   560                        PRN / # OF OBS
           9   629   629   629   629                        PRN / # OF OBS
          13   576   576   576   576                        PRN / # OF OBS
           3   480   480   480   480                        PRN / # OF OBS
                                                            END OF HEADER
 88  2 28  4 46 59.0800000  0  2  6  8
          .003 7          .000 1  21761426.089 0          .000 0
          .381 7          .000 1          .000 0          .000 0
 88  2 28  4 47 29.0800000  0  2  6  8
    -57518.079 7     96702.472 7  21750512.563 0  21750514.591 0
    -37547.318 7    155642.081 6  20328917.826 0  20328920.675 0
 88  2 28  4 47 59.0800000  0  2  6  8
   -114907.928 7     51983.125 7  21739592.372 0  21739593.014 0
    -74419.209 6    126910.745 6  20321902.246 0  20321903.747 0
 88  2 28  4 48 29.0800000  0  2  6  8
   -172168.368 7      7364.599 7  21728695.463 0  21728696.966 0
   -110614.775 7     98706.415 6  20315014.324 0  20315015.606 0
 88  2 28  4 48 59.0800000  0  2  6  8
   -229297.445 7    -37151.566 7  21717823.951 0  21717825.241 0
   -146132.331 6     71030.407 6  20308255.245 0  20308257.097 0
 88  2 28  4 49 29.0800000  0  2  6  8
   -286293.262 7    -81563.872 7  21706977.871 0  21706979.845 0
   -180970.714 6     43883.623 6  20301626.393 0  20301627.123 0
 88  2 28  4 49 59.0800000  0  2  6  8
   -343153.924 7   -125870.874 7  21696157.631 0  21696159.262 0
   -215129.008 7     17266.790 6  20295127.239 0  20295128.002 0
 88  2 28  4 50 29.0800000  0  2  6  8
   -399878.014 7   -170071.454 6  21685364.278 0  21685364.265 0
   -248606.204 7     -8819.337 6  20288756.393 0  20288757.587 0
 88  2 28  4 50 59.0800000  0  2  6  8
   -456463.183 7   -214163.786 7  21674595.681 0  21674597.512 0
   -281401.217 6    -34373.888 6  20282516.017 0  20282517.574 0
 88  2 28  4 51 29.0800000  0  2  6  8
   -512907.727 7   -258146.547 7  21663855.355 0  21663856.517 0
   -313513.189 7    -59396.198 6  20276404.980 0  20276405.389 0
 88  2 28  4 51 59.0800000  0  2  6  8
   -569209.614 7   -302018.143 7  21653140.851 0  21653141.964 0
   -344940.929 7    -83885.311 6  20270423.807 0  20270425.189 0
 88  2 28  4 52 29.0800000  0  2  6  8
   -625366.870 7   -345777.042 7  21642455.057 0  21642456.259 0
   -375683.795 7   -107840.790 6  20264574.445 0  20264575.984 0
 88  2 28  4 52 59.0800000  0  2  6  8
   -681377.688 7   -389421.827 7  21631796.197 0  21631797.543 0
   -405740.383 7   -131261.505 6  20258853.859 0  20258854.812 0
 88  2 28  4 53 29.0800000  0  2  6  8
   -737239.935 7   -432950.837 7  21621165.641 0  21621166.843 0
   -435110.175 6   -154147.049 7  20253264.861 0  20253267.171 0
 88  2 28  4 53 59.0800000  0  2  6  8
   -792952.023 7   -476362.860 7  21610563.931 0  21610565.991 0
   -463792.535 7   -176496.932 6  20247807.851 0  20247808.744 0
 88  2 28  4 54 29.0800000  0  2  6  8
   -848512.106 8   -519656.415 7  21599991.182 0  21599993.269 0
   -491786.664 7   -198310.532 6  20242480.408 0  20242482.117 0
 88  2 28  4 54 59.0800000  0  2  6  8
   -903917.975 7   -562829.813 7  21589448.011 0  21589449.741 0
   -519091.605 7   -219587.088 6  20237284.267 0  20237285.554 0
 88  2 28  4 55 29.0800000  0  2  6  8
   -959167.630 8   -605881.503 7  21578934.831 0  21578935.347 0
   -545706.681 7   -240326.107 6  20232219.667 0  20232220.566 0
 88  2 28  4 55 59.0800000  0  2  6  8
  -1014259.297 7   -648810.070 7  21568451.388 0  21568452.491 0
   -571631.622 7   -260527.355 6  20227286.401 0  20227288.568 0
 88  2 28  4 56 29.0800000  0  4  6  8 11  9
  -1069190.947 3   -691613.945 4  21557997.625 0  21558000.058 0
   -596865.679 4   -280190.246 5  20222484.601 0  20222486.046 0
         -.481 6          .000 1          .000 0          .000 0
         -.189 4          .000 1  23912061.331 0          .000 0
 88  2 28  4 56 59.0800000  0  4  6  8 11  9
  -1123960.650 8   -734291.631 7  21547575.267 0  21547576.665 0
   -621408.275 6   -299314.333 6  20217814.497 0  20217815.795 0
    -93657.601 7    203989.164 7  22388226.024 0  22388230.962 0
    -89189.191 7     84907.117 6  23895120.994 0  23895126.917 0
 88  2 28  4 57 29.0800000  0  4  6  8 11  9
  -1178566.331 7   -776841.505 7  21537184.101 0  21537185.442 0
   -645258.188 7   -317898.679 6  20213276.406 0  20213277.261 0
   -186972.678 7    131276.118 7  22370470.511 0  22370473.181 0
   -178425.538 7     15372.351 6  23878141.024 0  23878144.179 0
 88  2 28  4 57 59.0800000  0  4  6  8 11  9
  -1233005.936 8   -819261.979 7  21526824.704 0  21526826.387 0
   -668414.951 7   -335942.913 6  20208869.233 0  20208870.353 0
   -279943.492 8     58831.334 7  22352779.008 0  22352782.759 0
   -267708.840 7    -54199.011 6  23861152.664 0  23861155.729 0
 88  2 28  4 58 29.0800000  0  4  6  8 11  9
  -1287277.352 8   -861551.396 7  21516497.271 0  21516498.701 0
   -690878.272 6   -353446.791 6  20204593.836 0  20204596.244 0
   -372567.593 7    -13343.272 6  22335152.305 0  22335154.778 0
   -357037.885 7   -123806.028 6  23844153.511 0  23844157.631 0
 88  2 28  4 58 59.0800000  0  4  6  8 11  9
  -1341378.884 7   -903708.430 7  21506201.678 0  21506202.520 0
   -712647.704 7   -370409.974 6  20200452.345 0  20200452.858 0
   -464842.682 7    -85245.940 7  22317591.627 0  22317596.308 0
   -446411.687 7   -193447.922 6  23827146.484 0  23827148.151 0
 88  2 28  4 59 29.0800000  0  4  6  8 11  9
  -1395308.433 7   -945731.448 7  21495939.669 0  21495940.483 0
   -733723.108 7   -386832.361 6  20196441.118 0  20196441.790 0
   -556766.291 7   -156874.714 6  22300100.409 0  22300102.916 0
   -535829.066 8   -263123.753 6  23810132.403 0  23810132.084 0
 88  2 28  4 59 59.0800000  0  4  6  8 11  9
  -1449064.167 7   -987619.022 7  21485710.243 0  21485711.040 0
   -754104.072 7   -402713.605 6  20192563.105 0  20192565.281 0
   -648335.949 7   -228227.685 7  22282675.488 0  22282678.882 0
   -625289.258 7   -332832.956 6  23793108.378 0  23793109.265 0
 88  2 28  5  0 29.0800000  0  4  6  8 11  9
  -1502643.659 7  -1029369.272 7  21475514.670 0  21475515.022 0
   -773789.951 7   -418053.255 6  20188816.598 0  20188817.993 0
   -739548.800 7   -299302.615 7  22265318.438 0  22265320.646 0
   -714790.724 6   -402574.330 7  23776075.209 0  23776077.278 0
 88  2 28  5  0 59.0800000  0  4  6  8 11  9
  -1556044.993 8  -1070980.695 7  21465352.609 0  21465354.181 0
   -792780.411 7   -432851.008 6  20185201.725 0  20185204.529 0
   -830402.546 7   -370097.718 7  22248030.372 0  22248030.955 0
   -804332.328 7   -472346.967 6  23759038.357 0  23759038.940 0
 88  2 28  5  1 29.0800000  0  4  6  8 11  9
  -1609265.810 7  -1112451.455 7  21455225.190 0  21455225.990 0
   -811074.710 7   -447106.306 6  20181720.791 0  20181723.338 0
   -920894.187 7   -440610.660 7  22230810.120 0  22230811.649 0
   -893912.248 7   -542149.484 7  23741989.885 0  23741991.929 0
 88  2 28  5  1 59.0800000  0  4  6  8 11  9
  -1662304.457 8  -1153780.273 7  21445131.742 0  21445133.171 0
   -828672.933 7   -460819.187 6  20178372.545 0  20178372.961 0
  -1011021.946 7   -510840.082 6  22213659.897 0  22213661.411 0
   -983529.975 7   -611981.486 7  23724935.898 0  23724938.377 0
 88  2 28  5  2 29.0800000  0  4  6  8 11  9
  -1715158.736 8  -1194965.423 7  21435074.143 0  21435075.438 0
   -845575.160 7   -473989.742 6  20175156.647 0  20175159.435 0
  -1100783.094 7   -580783.765 7  22196579.206 0  22196579.564 0
  -1073184.429 7   -681842.073 7  23707874.634 0  23707877.070 0
 88  2 28  5  2 59.0800000  0  4  6  8 11  9
  -1767827.028 8  -1236005.649 7  21425051.152 0  21425053.136 0
   -861781.533 7   -486618.082 6  20172070.537 0  20172074.258 0
  -1190175.575 7   -650440.213 6  22179567.667 0  22179569.732 0
  -1162874.355 7   -751730.288 6  23690808.926 0  23690809.811 0
 88  2 28  5  3 29.0800000  0  4  6  8 11  9
  -1820306.673 7  -1276898.858 7  21415065.796 0  21415066.550 0
   -877290.991 7   -498703.365 6  20169120.974 0  20169122.858 0
  -1279196.735 7   -719807.361 6  22162627.084 0  22162629.218 0
  -1252598.111 7   -821644.879 7  23673734.495 0  23673737.064 0
 88  2 28  5  3 59.0800000  0  4  6  8 11  9
  -1872595.437 7  -1317643.344 7  21405114.639 0  21405115.822 0
   -892103.679 7   -510245.707 6  20166302.492 0  20166302.983 0
  -1367843.880 7   -788883.034 6  22145757.891 0  22145760.111 0
  -1342354.622 7   -891585.014 6  23656655.193 0  23656656.840 0
 88  2 28  5  4 29.0800000  0  4  6  8 11  9
  -1924691.726 7  -1358237.863 7  21395201.072 0  21395202.554 0
   -906219.772 7   -521245.262 7  20163615.742 0  20163617.687 0
  -1456115.094 7   -857665.769 6  22128960.457 0  22128962.407 0
  -1432142.611 7   -961549.644 7  23639569.183 0  23639570.371 0
 88  2 28  5  4 59.0800000  0  4  6  8 11  9
  -1976593.140 7  -1398680.517 7  21385324.409 0  21385325.949 0
   -919639.182 7   -531701.928 7  20161063.024 0  20161064.110 0
  -1544007.713 7   -926153.522 6  22112234.798 0  22112237.987 0
  -1521960.695 7  -1031537.731 6  23622475.702 0  23622480.203 0
 88  2 28  5  5 29.0800000  0  4  6  8 11  9
  -2028297.536 7  -1438969.654 7  21375485.881 0  21375487.206 0
   -932361.744 6   -541615.598 6  20158642.127 0  20158643.642 0
  -1631519.228 7   -994344.296 6  22095582.814 0  22095584.323 0
  -1611807.613 8  -1101548.307 6  23605380.072 0  23605380.903 0
 88  2 28  5  5 59.0800000  0  4  6  8 11  9
  -2079802.550 7  -1479103.425 7  21365684.582 0  21365685.723 0
   -944387.042 7   -550985.954 6  20156353.401 0  20156353.983 0
  -1718646.686 7  -1062235.816 7  22079002.496 0  22079004.569 0
  -1701682.090 7  -1171580.339 6  23588276.865 0  23588278.343 0
 88  2 28  5  6 29.0800000  0  4  6  8 11  9
  -2131106.600 8  -1519080.602 7  21355921.435 0  21355922.589 0
   -955715.433 7   -559813.266 6  20154197.235 0  20154198.322 0
  -1805388.429 7  -1129826.760 7  22062495.871 0  22062498.015 0
  -1791583.005 7  -1241632.968 6  23571170.978 0  23571170.902 0
 88  2 28  5  6 59.0800000  0  4  6  8 11  9
  -2182207.344 8  -1558899.370 7  21346197.434 0  21346198.748 0
   -966347.383 7   -568097.902 6  20152174.242 0  20152175.360 0
  -1891742.426 7  -1197115.568 7  22046063.591 0  22046065.821 0
  -1881508.745 7  -1311704.956 6  23554057.979 0  23554058.329 0
 88  2 28  5  7 29.0800000  0  4  6  8 11  9
  -2233102.752 7  -1598558.129 7  21336512.229 0  21336513.397 0
   -976282.693 7   -575839.697 6  20150283.781 0  20150284.647 0
  -1977706.000 7  -1264100.163 6  22029704.952 0  22029707.916 0
  -1971458.368 7  -1381795.546 7  23536941.121 0  23536942.251 0
 88  2 28  5  7 59.0800000  0  4  6  8 11  9
  -2283790.575 7  -1638055.127 8  21326867.502 0  21326867.514 0
   -985521.876 7   -583039.061 6  20148525.395 0  20148526.821 0
  -2063276.983 7  -1330778.836 6  22013421.282 0  22013423.140 0
  -2061430.064 7  -1451903.348 6  23519821.157 0  23519821.963 0
 88  2 28  5  8 29.0800000  0  4  6  8 11  9
  -2334268.202 7  -1677388.347 7  21317261.727 0  21317262.895 0
   -994064.595 7   -589695.708 6  20146899.728 0  20146901.584 0
  -2148452.477 7  -1397149.333 6  21997212.098 0  21997214.598 0
  -2151422.337 7  -1522027.173 6  23502694.319 0  23502696.620 0
 88  2 28  5  8 59.0800000  0  4  6  8 11  9
  -2384533.960 8  -1716556.458 7  21307696.960 0  21307697.229 0
  -1001911.572 8   -595810.245 6  20145406.038 0  20145408.645 0
  -2233230.918 7  -1463210.433 6  21981080.154 0  21981082.170 0
  -2241434.275 7  -1592166.329 6  23485565.509 0  23485566.085 0
 88  2 28  5  9 29.0800000  0  4  6  8 11  9
  -2434585.468 8  -1755557.637 7  21298172.134 0  21298172.745 0
  -1009062.696 5   -601382.526 6  20144045.492 0  20144046.730 0
  -2317609.686 7  -1528960.092 7  21965023.414 0  21965025.747 0
  -2331464.080 7  -1662319.411 7  23468433.089 0  23468435.386 0
 88  2 28  5  9 59.0800000  0  4  6  8 11  9
  -2484420.548 8  -1794390.171 6  21288688.428 0  21288689.843 0
  -1015518.162 6   -606412.762 6  20142816.894 0  20142818.189 0
  -2401586.326 7  -1594396.427 7  21949042.479 0  21949045.196 0
  -2421510.408 7  -1732485.346 6  23451298.340 0  23451299.111 0
 88  2 28  5 10 29.0800000  0  4  6  8 11  9
  -2534037.067 8  -1833052.385 7  21279247.120 0  21279248.375 0
  -1021278.548 7   -610901.363 6  20141720.834 0  20141723.532 0
  -2485158.954 7  -1659517.931 6  21933139.619 0  21933142.295 0
  -2511572.110 7  -1802663.282 7  23434159.664 0  23434160.772 0
 88  2 28  5 10 59.0800000  0  4  6  8 11  9
  -2583432.879 8  -1871542.617 7  21269846.839 0  21269848.237 0
  -1026344.232 6   -614848.632 6  20140756.802 0  20140758.922 0
  -2568325.180 7  -1724322.769 6  21917313.217 0  21917315.592 0
  -2601647.413 7  -1872851.818 6  23417019.255 0  23417020.501 0
 88  2 28  5 11 29.0800000  0  4  6  8 11  9
  -2632605.804 8  -1909859.187 7  21260489.815 0  21260491.342 0
  -1030715.446 7   -618254.777 6  20139925.084 0  20139928.260 0
  -2651082.875 7  -1788809.268 6  21901564.671 0  21901567.664 0
  -2691735.402 7  -1943050.211 7  23399876.369 0  23399878.539 0
 88  2 28  5 11 59.0800000  0  4  6  8 11  9
  -2681553.796 8  -1948000.477 7  21251175.130 0  21251175.799 0
  -1034392.883 7   -621120.306 6  20139224.987 0  20139226.912 0
  -2733429.560 7  -1852975.503 7  21885895.778 0  21885897.941 0
  -2781834.257 7  -2013257.096 7  23382729.633 0  23382731.314 0
 88  2 28  5 12 29.0800000  0  4  6  8 11  9
  -2730274.450 7  -1985964.611 7  21241903.916 0  21241905.672 0
  -1037376.961 8   -623445.551 6  20138656.908 0  20138658.064 0
  -2815363.454 7  -1916820.080 7  21870303.795 0  21870306.089 0
  -2871942.438 7  -2083471.252 7  23365583.712 0  23365585.309 0
 88  2 28  5 12 59.0800000  0  4  6  8 11  9
  -2778765.769 8  -2023750.063 6  21232676.592 0  21232677.101 0
  -1039668.262 7   -625230.981 6  20138221.583 0  20138223.416 0
  -2896882.308 7  -1980341.240 7  21854790.771 0  21854793.228 0
  -2962058.788 7  -2153691.758 6  23348433.657 0  23348435.482 0
 88  2 28  5 13 29.0800000  0  4  6  8 11  9
  -2827025.225 7  -2061354.827 7  21223492.708 0  21223493.232 0
  -1041266.757 7   -626476.554 6  20137917.142 0  20137919.901 0
  -2977983.812 7  -2043537.211 6  21839357.565 0  21839361.369 0
  -3052181.589 7  -2223917.304 7  23331285.208 0  23331286.906 0
 88  2 28  5 13 59.0800000  0  4  6  8 11  9
  -2875050.617 7  -2098777.202 7  21214353.856 0  21214354.892 0
  -1042173.097 7   -627182.781 7  20137744.539 0  20137746.318 0
  -3058665.625 7  -2106406.137 7  21824004.576 0  21824007.004 0
  -3142309.026 7  -2294146.446 6  23314135.965 0  23314134.982 0
 88  2 28  5 14 29.0800000  0  4  6  8 11  9
  -2922839.636 7  -2136015.387 7  21205259.888 0  21205261.513 0
  -1042388.049 7   -627350.272 6  20137704.251 0  20137705.884 0
  -3138925.636 7  -2168946.371 6  21808732.115 0  21808734.370 0
  -3232439.833 7  -2364378.215 6  23296983.827 0  23296983.925 0
 88  2 28  5 14 59.0800000  0  4  6  8 11  9
  -2970390.120 7  -2173067.712 6  21196211.615 0  21196212.553 0
  -1041912.115 7   -626979.414 6  20137793.598 0  20137795.941 0
  -3218761.498 7  -2231156.135 7  21793540.401 0  21793542.358 0
  -3322572.317 7  -2434611.311 6  23279829.703 0  23279831.082 0
 88  2 28  5 15 29.0800000  0  4  6  8 11  9
  -3017699.714 8  -2209932.331 7  21187208.682 0  21187210.352 0
  -1040745.704 7   -626070.505 6  20138016.210 0  20138017.126 0
  -3298171.313 7  -2293033.889 6  21778428.778 0  21778431.266 0
  -3412704.987 7  -2504844.529 7  23262680.623 0  23262680.199 0
 88  2 28  5 15 59.0800000  0  4  6  8 11  9
  -3064766.376 7  -2246607.636 6  21178251.999 0  21178253.085 0
  -1038889.676 7   -624624.260 6  20138370.037 0  20138370.119 0
  -3377153.349 7  -2354578.327 7  21763398.302 0  21763401.377 0
  -3502836.361 7  -2575076.755 6  23245527.157 0  23245528.397 0
 88  2 28  5 16 29.0800000  0  4  6  8 11  9
  -3111588.040 7  -2283092.065 7  21169342.410 0  21169343.434 0
  -1036345.162 7   -622641.518 6  20138854.461 0  20138855.534 0
  -3455705.438 7  -2415787.729 6  21748450.799 0  21748452.497 0
  -3592964.974 7  -2645306.820 6  23228375.943 0  23228378.820 0
 88  2 28  5 16 59.0800000  0  4  6  8 11  9
  -3158161.922 8  -2319383.385 6  21160479.566 0  21160480.778 0
  -1033112.920 6   -620122.890 6  20139469.202 0  20139471.943 0
  -3533825.301 7  -2476660.337 6  21733585.124 0  21733586.640 0
  -3683088.969 7  -2715533.283 6  23211228.723 0  23211227.637 0
 88  2 28  5 17 29.0800000  0  4  6  8 11  9
  -3204485.985 7  -2355480.057 7  21151664.986 0  21151665.371 0
  -1029193.213 6   -617068.560 6  20140214.963 0  20140215.767 0
  -3611510.647 7  -2537194.363 7  21718802.622 0  21718804.779 0
  -3773206.820 7  -2785754.959 6  23194078.164 0  23194080.360 0
 88  2 28  5 17 59.0800000  0  4  6  8 11  9
  -3250558.117 7  -2391380.415 7  21142897.287 0  21142898.699 0
  -1024587.371 7   -613479.576 6  20141091.672 0  20141092.076 0
  -3688759.932 7  -2597388.601 6  21704101.822 0  21704104.733 0
  -3863316.816 7  -2855970.527 6  23176929.634 0  23176932.820 0
 88  2 28  5 18 29.0800000  0  4  6  8 11  9
  -3296375.857 7  -2427082.548 6  21134179.025 0  21134179.448 0
  -1019296.132 7   -609356.541 6  20142097.849 0  20142099.605 0
  -3765570.916 7  -2657241.306 6  21689485.984 0  21689488.224 0
  -3953417.503 7  -2926178.841 6  23159785.597 0  23159786.760 0
 88  2 28  5 18 59.0800000  0  4  6  8 11  9
  -3341937.173 8  -2462584.872 7  21125508.881 0  21125509.681 0
  -1013320.760 7   -604700.401 6  20143235.155 0  20143236.797 0
  -3841941.894 7  -2716751.147 7  21674952.599 0  21674954.913 0
  -4043507.159 7  -2996378.542 7  23142642.799 0  23142644.522 0
 88  2 28  5 19 29.0800000  0  4  6  8 11  9
  -3387239.677 7  -2497885.518 7  21116887.492 0  21116888.617 0
  -1006661.874 7   -599511.656 6  20144502.756 0  20144503.270 0
  -3917870.995 7  -2775916.670 7  21660503.751 0  21660506.247 0
  -4133584.481 7  -3066568.646 7  23125501.675 0  23125502.313 0
 88  2 28  5 19 59.0800000  0  4  6  8 11  9
  -3432281.110 8  -2532982.734 7  21108316.686 0  21108317.237 0
   -999320.276 7   -593790.940 7  20145899.775 0  20145900.571 0
  -3993356.081 7  -2834736.211 6  21646138.296 0  21646141.110 0
  -4223647.220 7  -3136747.404 7  23108363.970 0  23108364.061 0
 88  2 28  5 20 29.0800000  0  4  6  8 11  9
  -3477059.087 8  -2567874.670 7  21099796.004 0  21099796.540 0
   -991296.714 7   -587538.790 6  20147425.651 0  20147427.584 0
  -4068394.849 8  -2893207.969 7  21631859.327 0  21631862.183 0
  -4313694.086 7  -3206913.753 7  23091227.615 0  23091227.866 0
 88  2 28  5 20 59.0800000  0  4  6  8 11  9
  -3521571.168 8  -2602559.405 7  21091325.160 0  21091325.386 0
   -982592.240 7   -580756.082 6  20149082.073 0  20149084.295 0
  -4142985.358 7  -2951330.421 6  21617665.642 0  21617667.088 0
  -4403723.137 7  -3277066.243 6  23074094.548 0  23074097.648 0
 88  2 28  5 21 29.0800000  0  4  6  8 11  9
  -3565815.367 7  -2637035.410 6  21082906.305 0  21082906.886 0
   -973208.345 7   -573443.944 6  20150868.622 0  20150870.719 0
  -4217125.978 7  -3009102.310 6  21603557.028 0  21603560.611 0
  -4493732.679 7  -3347203.528 6  23056966.430 0  23056968.851 0
 88  2 28  5 21 59.0800000  0  4  6  8 11  9
  -3609789.173 7  -2671300.715 6  21074537.742 0  21074538.727 0
   -963146.217 7   -565603.323 7  20152782.712 0  20152784.121 0
  -4290814.686 7  -3066522.080 6  21589534.168 0  21589536.102 0
  -4583721.043 8  -3417324.325 6  23039843.121 0  23039844.140 0
 88  2 28  5 22 29.0800000  0  4  6  8 11  9
  -3653490.422 7  -2705353.627 6  21066222.354 0  21066223.282 0
   -952406.541 7   -557234.748 7  20154827.805 0  20154827.893 0
  -4364049.553 7  -3123588.187 6  21575598.628 0  21575600.364 0
  -4673686.642 7  -3487427.366 7  23022721.929 0  23022724.683 0
 88  2 28  5 22 59.0800000  0  4  6  8 11  9
  -3696916.801 7  -2739192.360 6  21057958.179 0  21057959.092 0
   -940990.394 7   -548339.033 6  20156999.203 0  20157001.051 0
  -4436828.909 7  -3180299.365 7  21561749.182 0  21561751.285 0
  -4763627.449 7  -3557511.094 7  23005606.640 0  23005609.192 0
 88  2 28  5 23 29.0800000  0  4  6  8 11  9
  -3740065.817 7  -2772814.967 6  21049746.648 0  21049748.476 0
   -928899.086 7   -538917.244 7  20159300.409 0  20159301.784 0
  -4509150.803 8  -3236654.082 6  21547987.551 0  21547988.769 0
  -4853541.840 7  -3627574.241 6  22988498.240 0  22988499.041 0
 88  2 28  5 23 59.0800000  0  4  6  8 11  9
  -3782935.118 7  -2806219.625 7  21041588.632 0  21041590.661 0
   -916133.581 6   -528970.072 6  20161729.784 0  20161730.850 0
  -4581013.375 7  -3292650.888 7  21534311.293 0  21534313.311 0
  -4943427.762 7  -3697615.209 7  22971393.181 0  22971394.928 0
 88  2 28  5 24 29.0800000  0  4  6  8 11  9
  -3825522.695 7  -2839404.730 7  21033484.549 0  21033485.160 0
   -902695.366 7   -518498.726 7  20164286.270 0  20164287.578 0
  -4652415.107 7  -3348288.577 6  21520724.557 0  21520727.117 0
  -5033283.794 7  -3767632.882 7  22954292.888 0  22954293.864 0
 88  2 28  5 24 59.0800000  0  4  6  8 11  9
  -3867826.138 7  -2872368.456 7  21025435.243 0  21025436.810 0
   -888585.838 7   -507504.292 6  20166971.535 0  20166972.601 0
  -4723354.153 7  -3403565.744 6  21507225.306 0  21507226.679 0
  -5123108.307 7  -3837625.991 6  22937201.608 0  22937202.980 0
 88  2 28  5 25 29.0800000  0  4  6  8 11  9
  -3909843.257 8  -2905109.063 7  21017439.492 0  21017440.345 0
   -873806.267 7   -495987.737 6  20169784.580 0  20169785.419 0
  -4793828.398 7  -3458480.736 7  21493814.071 0  21493816.431 0
  -5212899.432 7  -3907593.082 6  22920114.203 0  22920114.826 0
 88  2 28  5 25 59.0800000  0  4  6  8 11  9
  -3951571.734 7  -2937624.763 7  21009498.488 0  21009499.314 0
   -858357.759 7   -483949.931 7  20172724.037 0  20172724.293 0
  -4863836.703 7  -3513032.648 6  21480491.196 0  21480494.687 0
  -5302655.074 8  -3977532.534 7  22903034.227 0  22903035.689 0
 88  2 28  5 26 29.0800000  0  4  6  8 11  9
  -3993009.006 8  -2969913.533 7  21001613.750 0  21001614.290 0
   -842241.992 7   -471392.182 6  20175789.971 0  20175792.033 0
  -4933376.791 7  -3567219.711 6  21467259.080 0  21467260.439 0
  -5392373.382 7  -4047442.895 7  22885961.500 0  22885962.702 0
 88  2 28  5 26 59.0800000  0  4  6  8 11  9
  -4034152.753 7  -3001973.600 7  20993784.132 0  20993785.014 0
   -825460.094 7   -458315.372 6  20178983.996 0  20178985.322 0
  -5002446.982 7  -3621040.642 6  21454116.480 0  21454117.298 0
  -5482052.386 7  -4117322.625 7  22868895.349 0  22868896.644 0
 88  2 28  5 27 29.0800000  0  4  6  8 11  9
  -4075000.734 8  -3033803.195 6  20986011.677 0  20986011.716 0
   -808013.621 7   -444720.709 7  20182303.243 0  20182305.190 0
  -5071046.015 7  -3674494.402 6  21441061.223 0  21441063.717 0
  -5571690.634 7  -4187170.606 7  22851838.443 0  22851838.536 0
 88  2 28  5 27 59.0800000  0  4  6  8 11  9
  -4115550.699 8  -3065400.584 6  20978294.956 0  20978294.884 0
   -789903.882 7   -430609.221 7  20185749.676 0  20185751.082 0
  -5139172.071 7  -3727579.631 6  21428096.686 0  21428100.132 0
  -5661285.961 7  -4256985.131 6  22834788.296 0  22834790.729 0
 88  2 28  5 28 29.0800000  0  4  6  8 11  9
  -4155800.415 7  -3096763.991 7  20970635.048 0  20970636.113 0
   -771132.286 7   -415982.005 7  20189322.481 0  20189323.167 0
  -5206823.412 7  -3780294.948 6  21415223.494 0  21415226.066 0
  -5750836.622 7  -4326764.854 7  22817747.798 0  22817749.089 0
 88  2 28  5 28 59.0800000  0  4  6  8 11  9
  -4195747.336 7  -3127891.473 6  20963033.485 0  20963034.067 0
   -751700.204 7   -400840.117 6  20193019.840 0  20193021.055 0
  -5273998.205 7  -3832638.945 7  21402440.312 0  21402443.440 0
  -5840341.048 7  -4396508.543 7  22800715.604 0  22800716.679 0
 88  2 28  5 29 29.0800000  0  4  6  8 11  9
  -4235389.119 8  -3158781.170 6  20955490.136 0  20955491.346 0
   -731609.114 7   -385184.715 6  20196842.896 0  20196844.071 0
  -5340694.745 7  -3884610.262 6  21389748.872 0  21389751.738 0
  -5929796.260 7  -4466213.877 7  22783692.839 0  22783695.228 0
 88  2 28  5 29 59.0800000  0  4  6  8 11  9
  -4274723.509 7  -3189431.336 6  20948005.784 0  20948006.091 0
   -710860.870 6   -369017.250 6  20200791.725 0  20200793.873 0
  -5406911.494 7  -3936207.725 6  21377148.066 0  21377150.298 0
  -6019201.162 7  -4535880.041 7  22766678.899 0  22766680.478 0
 88  2 28  5 30 29.0800000  0  4  6  8 11  9
  -4313748.200 7  -3219840.193 7  20940578.738 0  20940580.220 0
   -689457.138 7   -352339.017 6  20204865.100 0  20204865.826 0
  -5472646.884 7  -3987430.087 6  21364638.686 0  21364641.578 0
  -6108553.570 7  -4605505.275 6  22749676.908 0  22749678.956 0
 88  2 28  5 30 59.0800000  0  4  6  8 11  9
  -4352460.784 7  -3250005.846 6  20933212.466 0  20933213.818 0
   -667399.654 7   -335151.353 7  20209062.142 0  20209063.334 0
  -5537899.675 7  -4038276.404 6  21352221.354 0  21352224.760 0
  -6197851.547 7  -4675088.098 7  22732683.934 0  22732686.297 0
 88  2 28  5 31 29.0800000  0  4  6  8 11  9
  -4390858.746 7  -3279926.330 6  20925905.943 0  20925906.597 0
   -644689.641 7   -317455.236 6  20213382.963 0  20213384.385 0
  -5602667.832 7  -4088745.071 6  21339896.878 0  21339900.473 0
  -6287092.846 7  -4744626.770 7  22715701.221 0  22715702.266 0
 88  2 28  5 31 59.0800000  0  4  6  8 11  9
  -4428939.951 7  -3309600.004 6  20918658.839 0  20918658.991 0
   -621328.669 7   -299251.874 6  20217828.887 0  20217830.804 0
  -5666949.943 7  -4138835.037 7  21327664.229 0  21327666.220 0
  -6376275.519 7  -4814119.749 7  22698730.185 0  22698732.230 0
 88  2 28  5 32 29.0800000  0  4  6  8 11  9
  -4466702.123 7  -3339025.079 7  20911473.047 0  20911474.290 0
   -597318.840 7   -280542.906 7  20222397.985 0  20222400.033 0
  -5730745.124 7  -4188545.548 6  21315523.662 0  21315526.428 0
  -6465398.207 7  -4883565.989 6  22681770.855 0  22681772.403 0
 88  2 28  5 32 59.0800000  0  4  6  8 11  9
  -4504142.979 7  -3368199.773 7  20904348.041 0  20904349.796 0
   -572661.663 7   -261329.506 7  20227090.273 0  20227092.302 0
  -5794051.464 7  -4237875.152 7  21303477.405 0  21303479.899 0
  -6554458.561 7  -4952963.649 7  22664823.299 0  22664823.951 0
 88  2 28  5 33 29.0800000  0  4  6  8 11  9
  -4541260.102 7  -3397122.203 6  20897284.406 0  20897285.891 0
   -547359.000 7   -241613.147 7  20231905.083 0  20231905.843 0
  -5856867.348 7  -4286822.589 7  21291524.090 0  21291527.316 0
  -6643454.384 7  -5022311.033 6  22647887.769 0  22647889.170 0
 88  2 28  5 33 59.0800000  0  4  6  8 11  9
  -4578051.100 8  -3425790.512 6  20890283.833 0  20890285.320 0
   -521412.471 7   -221395.080 6  20236842.121 0  20236842.409 0
  -5919191.475 7  -4335386.833 6  21279664.854 0  21279667.547 0
  -6732383.792 7  -5091606.666 6  22630965.168 0  22630967.172 0
 88  2 28  5 34 29.0800000  0  4  6  8 11  9
  -4614513.418 7  -3454202.708 7  20883344.333 0  20883346.129 0
   -494824.271 7   -200676.992 6  20241901.383 0  20241902.389 0
  -5981022.250 7  -4383566.634 6  21267898.236 0  21267901.208 0
  -6821244.406 8  -5160848.687 6  22614056.009 0  22614057.739 0
 88  2 28  5 34 59.0800000  0  4  6  8 11  9
  -4650644.986 7  -3482357.175 7  20876468.950 0  20876471.361 0
   -467595.894 7   -179460.067 6  20247082.886 0  20247085.620 0
  -6042358.515 7  -4431361.111 6  21256226.642 0  21256228.635 0
  -6910034.690 7  -5230035.911 7  22597159.493 0  22597161.552 0
 88  2 28  5 35 29.0800000  0  4  6  8 11  9
  -4686443.300 7  -3510251.973 6  20869657.025 0  20869658.637 0
   -439729.024 7   -157745.610 7  20252385.558 0  20252387.210 0
  -6103198.518 7  -4478768.893 6  21244649.555 0  21244651.186 0
  -6998752.039 7  -5299166.302 6  22580277.250 0  22580278.068 0
 88  2 28  5 35 59.0800000  0  4  6  8 11  9
  -4721906.531 7  -3537885.662 6  20862908.681 0  20862910.108 0
   -411226.128 7   -135535.556 6  20257809.984 0  20257810.638 0
  -6163541.344 7  -4525789.268 6  21233166.632 0  21233168.762 0
  -7087394.973 7  -5368238.704 7  22563409.266 0  22563411.134 0
 88  2 28  5 36 29.0800000  0  4  6  8 11  9
  -4757032.073 7  -3565256.218 6  20856224.527 0  20856225.713 0
   -382089.268 7   -112831.518 6  20263354.506 0  20263356.425 0
  -6223385.302 7  -4572420.910 6  21221778.406 0  21221780.452 0
  -7175960.996 7  -5437251.170 6  22546556.020 0  22546557.380 0
 88  2 28  5 36 59.0800000  0  4  6  8 11  9
  -4791817.587 7  -3592361.800 7  20849604.176 0  20849606.876 0
   -352320.141 7    -89634.788 7  20269018.640 0  20269019.185 0
  -6282729.148 7  -4618662.858 6  21210484.571 0  21210488.140 0
  -7264448.327 7  -5506202.313 7  22529716.413 0  22529717.599 0
 88  2 28  5 37 29.0800000  0  4  6  8 11  9
  -4826260.902 7  -3619200.754 7  20843050.880 0  20843052.580 0
   -321920.948 7    -65947.103 6  20274803.749 0  20274805.706 0
  -6341571.753 7  -4664514.221 7  21199288.194 0  21199289.647 0
  -7352854.963 7  -5575090.599 7  22512893.802 0  22512895.099 0
 88  2 28  5 37 59.0800000  0  4  6  8 11  9
  -4860359.453 8  -3645771.045 7  20836562.018 0  20836562.986 0
   -290893.360 7    -41769.766 7  20280708.038 0  20280711.102 0
  -6399911.887 7  -4709974.062 6  21188185.849 0  21188189.267 0
  -7441178.236 8  -5643913.910 6  22496086.018 0  22496087.548 0
 88  2 28  5 38 29.0800000  0  4  6  8 11  9
  -4894111.102 7  -3672071.035 6  20830138.936 0  20830141.364 0
   -259239.379 7    -17104.320 6  20286731.751 0  20286733.195 0
  -6457748.386 7  -4755041.447 6  21177181.264 0  21177182.967 0
  -7529416.606 7  -5712671.074 7  22479295.125 0  22479296.463 0
 88  2 28  5 38 59.0800000  0  4  6  8 11  9
  -4927513.619 7  -3698098.978 7  20823782.947 0  20823784.302 0
   -226961.118 7      8047.580 6  20292873.977 0  20292875.908 0
  -6515079.841 7  -4799715.287 6  21166270.124 0  21166273.270 0
  -7617567.298 7  -5781359.915 6  22462520.701 0  22462521.173 0
 88  2 28  5 39 29.0800000  0  4  6  8 11  9
  -4960564.508 7  -3723852.912 7  20817493.940 0  20817494.924 0
   -194060.707 7     33684.268 6  20299134.954 0  20299135.431 0
  -6571905.187 7  -4843994.773 6  21155457.588 0  21155458.894 0
  -7705628.676 7  -5849979.146 7  22445761.950 0  22445765.665 0
 88  2 28  5 39 59.0800000  0  4  6  8 11  9
  -4993261.553 8  -3749331.127 7  20811271.688 0  20811273.942 0
   -160540.433 7     59803.963 6  20305512.927 0  20305515.552 0
  -6628223.232 7  -4887878.958 6  21144740.844 0  21144742.290 0
  -7793598.232 7  -5918526.864 7  22429021.758 0  22429024.062 0
 88  2 28  5 40 29.0800000  0  4  6  8 11  9
  -5025602.433 7  -3774531.821 7  20805116.900 0  20805119.070 0
   -126402.359 7     86405.067 6  20312009.743 0  20312011.450 0
  -6684032.503 7  -4931366.690 7  21134119.628 0  21134122.224 0
  -7881474.099 7  -5987001.548 6  22412300.952 0  22412302.025 0
 88  2 28  5 40 59.0800000  0  4  6  8 11  9
  -5057584.785 7  -3799453.125 7  20799031.272 0  20799032.682 0
    -91648.298 7    113486.151 6  20318622.966 0  20318625.504 0
  -6739331.926 7  -4974457.124 6  21123596.901 0  21123597.932 0
  -7969253.769 7  -6055401.278 6  22395596.744 0  22395598.408 0
 88  2 28  5 41 29.0800000  0  4  6  8 11  9
  -5089206.378 8  -3824093.330 7  20793014.010 0  20793015.207 0
    -56280.581 7    141045.416 6  20325353.151 0  20325355.521 0
  -6794120.508 7  -5017149.518 6  21113170.244 0  21113173.598 0
  -8056934.969 7  -6123724.276 6  22378912.124 0  22378913.424 0
 88  2 28  5 41 59.0800000  0  4  6  8 11  9
  -5120464.849 7  -3848450.578 7  20787065.020 0  20787066.874 0
    -20301.221 7    169081.282 6  20332199.277 0  20332202.856 0
  -6848396.722 7  -5059442.664 6  21102842.605 0  21102844.267 0
  -8144515.776 7  -6191969.046 7  22362245.360 0  22362246.131 0
 88  2 28  5 42 29.0800000  0  4  6  8 11  9
  -5151358.021 7  -3872523.183 7  20781187.673 0  20781188.400 0
     16287.405 7    197591.906 6  20339161.523 0  20339164.046 0
  -6902159.970 7  -5101336.098 6  21092611.048 0  21092613.373 0
  -8231993.831 7  -6260133.758 7  22345598.214 0  22345600.670 0
 88  2 28  5 42 59.0800000  0  4  6  8 11  9
  -5181883.389 7  -3896309.178 6  20775377.971 0  20775379.153 0
     53483.320 7    226575.728 6  20346240.929 0  20346242.687 0
  -6955408.979 7  -5142828.819 6  21082478.692 0  21082480.629 0
  -8319366.476 7  -6328216.332 7  22328971.963 0  22328974.096 0
 88  2 28  5 43 29.0800000  0  4  6  8 11  9
  -5212038.816 7  -3919806.925 7  20769640.052 0  20769640.706 0
     91284.019 7    256030.816 7  20353433.720 0  20353435.536 0
  -7008143.066 7  -5183920.299 5  21072443.508 0  21072445.704 0
  -8406632.234 7  -6396215.611 7  22312367.167 0  22312367.332 0
 88  2 28  5 43 59.0800000  0  4  6  8 11  9
  -5241821.840 7  -3943014.480 7  20763972.852 0  20763972.803 0
    129687.458 7    285955.586 5  20360742.575 0  20360743.086 0
  -7060360.622 7  -5224609.310 6  21062506.681 0  21062509.801 0
  -8493788.060 7  -6464129.225 6  22295780.523 0  22295782.451 0
 88  2 28  5 44 29.0800000  0  4  6  8 11  9
  -5271230.340 7  -3965930.188 7  20758375.651 0  20758377.508 0
    168690.917 6    316347.910 7  20368164.766 0  20368164.921 0
  -7112061.000 7  -5264895.301 6  21052669.050 0  21052671.515 0
  -8580832.203 7  -6531955.826 6  22279217.532 0  22279218.704 0
 88  2 28  5 44 59.0800000  0  4  6  8 11  9
  -5300262.051 7  -3988552.299 7  20752851.499 0  20752852.813 0
    208292.224 7    347206.070 6  20375700.874 0  20375701.268 0
  -7163243.212 7  -5304777.531 5  21042928.899 0  21042931.019 0
  -8667762.065 8  -6599693.381 6  22262674.367 0  22262676.692 0
 88  2 28  5 45 29.0800000  0  4  6  8 11  9
  -5328914.730 7  -4010879.059 7  20747399.094 0  20747400.463 0
    248488.759 8    378528.052 7  20383350.214 0  20383350.828 0
  -7213906.171 7  -5344255.136 6  21033287.780 0  21033290.862 0
  -8754575.662 7  -6667340.330 7  22246155.368 0  22246156.054 0
 88  2 28  5 45 59.0800000  0  4  6  8 11  9
  -5357186.087 7  -4032908.699 7  20742018.663 0  20742019.779 0
    289278.847 7    410312.544 7  20391111.229 0  20391111.536 0
  -7264048.731 7  -5383327.254 6  21023746.574 0  21023748.781 0
  -8841270.294 8  -6734894.578 6  22229656.555 0  22229658.687 0
 88  2 28  5 46 29.0800000  0  4  6  8 11  9
  -5385073.789 8  -4054639.367 6  20736712.169 0  20736713.867 0
    330659.779 7    442557.426 6  20398986.230 0  20398987.409 0
  -7313670.256 7  -5421993.370 6  21014302.760 0  21014305.377 0
  -8927843.625 7  -6802354.309 7  22213183.283 0  22213184.693 0
 88  2 28  5 46 59.0800000  0  4  6  8 11  9
  -5412575.567 8  -4076069.324 7  20731478.910 0  20731479.277 0
    372628.997 8    475260.714 7  20406972.907 0  20406971.792 0
  -7362769.900 7  -5460252.823 6  21004959.781 0  21004961.711 0
  -9014293.690 8  -6869717.983 6  22196731.855 0  22196734.287 0
 88  2 28  5 47 29.0800000  0  4  6  8 11  9
  -5439689.332 7  -4097196.950 7  20726319.473 0  20726320.355 0
    415183.545 7    508420.114 6  20415070.193 0  20415071.394 0
  -7411346.894 7  -5498105.001 7  20995715.887 0  20995718.831 0
  -9100618.030 7  -6936983.697 6  22180305.014 0  22180306.440 0
 88  2 28  5 47 59.0800000  0  4  6  8 11  9
  -5466412.785 7  -4118020.417 7  20721234.902 0  20721235.466 0
    458321.700 7    542034.256 6  20423278.943 0  20423280.083 0
  -7459400.358 7  -5535549.240 6  20986571.801 0  20986574.010 0
  -9186814.338 7  -7004149.638 6  22163901.788 0  22163904.661 0
 88  2 28  5 48 29.0800000  0  4  6  8 11  9
  -5492743.641 7  -4138537.968 6  20716223.689 0  20716224.899 0
    502040.792 7    576101.079 6  20431598.931 0  20431599.291 0
  -7506929.539 7  -5572584.949 6  20977527.076 0  20977529.668 0
  -9272880.037 7  -7071213.811 7  22147525.571 0  22147526.669 0
 88  2 28  5 48 59.0800000  0  4  6  8 11  9
  -5518679.663 7  -4158747.856 6  20711288.005 0  20711288.976 0
    546338.612 7    610618.867 6  20440028.569 0  20440028.985 0
  -7553933.516 7  -5609211.437 6  20968582.635 0  20968585.114 0
  -9358812.573 7  -7138174.232 6  22131172.437 0  22131173.830 0
 88  2 28  5 49 29.0800000  0  4  6  8 11  9
  -5544218.837 7  -4178648.515 7  20706428.426 0  20706429.827 0
    591212.579 8    645585.603 7  20448568.507 0  20448568.252 0
  -7600411.544 7  -5645428.055 7  20959738.098 0  20959739.781 0
  -9444610.413 7  -7205029.675 7  22114845.488 0  22114846.855 0
 88  2 28  5 49 59.0800000  0  4  6  8 11  9
  -5569358.671 7  -4198238.001 7  20701644.162 0  20701644.485 0
    636660.103 8    680999.263 6  20457216.732 0  20457216.988 0
  -7646362.594 7  -5681234.057 6  20950993.620 0  20950996.496 0
  -9530269.813 7  -7271777.255 6  22098545.363 0  22098546.914 0
 88  2 28  5 50 29.0800000  0  4  6  8 11  9
  -5594097.023 7  -4217514.652 7  20696936.506 0  20696937.362 0
    682678.717 8    716857.922 6  20465973.420 0  20465974.950 0
  -7691786.127 7  -5716629.008 6  20942350.927 0  20942351.655 0
  -9615789.455 7  -7338415.927 7  22082271.299 0  22082272.444 0
 88  2 28  5 50 59.0800000  0  4  6  8 11  9
  -5618431.794 7  -4236476.796 7  20692305.622 0  20692306.617 0
    729265.387 7    753159.226 6  20474837.083 0  20474839.770 0
  -7736681.454 7  -5751612.385 6  20933807.310 0  20933809.549 0
  -9701166.661 7  -7404943.609 6  22066023.990 0  22066025.486 0
 88  2 28  5 51 29.0800000  0  4  6  8 11  9
  -5642360.749 7  -4255122.747 7  20687751.432 0  20687753.259 0
    776417.841 7    789901.389 7  20483810.940 0  20483812.044 0
  -7781047.910 6  -5786183.623 6  20925363.945 0  20925367.616 0
  -9786398.917 7  -7471358.347 6  22049805.577 0  22049806.943 0
 88  2 28  5 51 59.0800000  0  4  6  8 11  9
  -5665881.770 7  -4273450.821 6  20683275.399 0  20683277.198 0
    824133.162 8    827082.173 6  20492891.102 0  20492891.839 0
  -7824884.856 7  -5820342.259 6  20917022.215 0  20917025.463 0
  -9871483.781 7  -7537658.225 7  22033613.804 0  22033615.207 0
 88  2 28  5 52 29.0800000  0  4  6  8 11  9
  -5688992.753 8  -4291459.374 6  20678877.842 0  20678880.753 0
    872408.738 8    864699.503 6  20502077.707 0  20502079.491 0
  -7868191.659 7  -5854087.813 7  20908780.847 0  20908783.294 0
  -9956418.711 7  -7603841.284 7  22017451.855 0  22017452.179 0
 88  2 28  5 52 59.0800000  0  4  6  8 11  9
  -5711691.404 7  -4309146.655 7  20674559.481 0  20674559.889 0
    921242.406 7    902751.711 7  20511370.355 0  20511371.358 0
  -7910967.984 7  -5887420.002 6  20900642.114 0  20900643.387 0
 -10041201.365 7  -7669905.690 6  22001318.358 0  22001318.929 0
 88  2 28  5 53 29.0800000  0  4  6  8 11  9
  -5733975.249 7  -4326510.677 6  20670317.734 0  20670319.905 0
    970631.597 8    941236.798 6  20520768.421 0  20520770.152 0
  -7953212.464 6  -5920337.767 6  20892602.193 0  20892604.810 0
 -10125829.130 7  -7735849.395 7  21985213.853 0  21985215.062 0
 88  2 28  5 53 59.0800000  0  4  6  8 11  9
  -5755842.490 8  -4343550.095 6  20666156.776 0  20666158.502 0
   1020573.326 7    980152.443 6  20530272.083 0  20530273.305 0
  -7994924.948 7  -5952840.994 6  20884664.279 0  20884666.789 0
 -10210299.432 7  -7801670.411 6  21969139.555 0  21969141.053 0
 88  2 28  5 54 29.0800000  0  4  6  8 11  9
  -5777290.859 7  -4360263.114 7  20662075.292 0  20662076.746 0
   1071064.980 7   1019496.574 6  20539879.699 0  20539882.451 0
  -8036104.891 7  -5984929.251 6  20876829.140 0  20876831.169 0
 -10294610.468 7  -7867367.302 6  21953094.766 0  21953097.113 0
 88  2 28  5 54 59.0800000  0  4  6  8 11  9
  -5798318.144 8  -4376648.000 6  20658073.738 0  20658075.867 0
   1122104.056 7   1059267.287 7  20549593.003 0  20549594.059 0
  -8076751.631 7  -6016602.019 7  20869093.228 0  20869095.853 0
 -10378758.601 7  -7932937.273 6  21937083.388 0  21937084.125 0
 88  2 28  5 55 29.0800000  0  4  6  8 11  9
  -5818922.456 7  -4392703.318 7  20654152.930 0  20654155.601 0
   1173687.739 8   1099462.364 7  20559408.131 0  20559410.860 0
  -8116865.023 6  -6047859.189 6  20861460.069 0  20861463.411 0
 -10462742.394 8  -7998379.174 6  21921101.477 0  21921102.572 0
 88  2 28  5 55 59.0800000  0  4  6  8 11  9
  -5839101.448 7  -4408427.212 6  20650313.343 0  20650315.356 0
   1225813.216 7   1140079.608 7  20569328.494 0  20569329.383 0
  -8156444.275 7  -6078700.145 6  20853928.667 0  20853930.770 0
 -10546558.674 7  -8063690.550 6  21905150.570 0  21905153.233 0
 88  2 28  5 56 29.0800000  0  4  6  8 11  9
  -5858852.920 8  -4423817.972 6  20646554.789 0  20646556.902 0
   1278477.556 7   1181116.771 6  20579349.187 0  20579351.192 0
  -8195488.655 7  -6109124.329 7  20846498.851 0  20846501.711 0
 -10630204.680 7  -8128869.246 7  21889234.468 0  21889235.540 0
 88  2 28  5 56 59.0800000  0  4  6  8 11  9
  -5878175.004 7  -4438874.139 6  20642878.151 0  20642879.379 0
   1331677.959 7   1222571.633 6  20589473.474 0  20589475.376 0
  -8233998.404 6  -6139131.924 6  20839170.672 0  20839173.110 0
 -10713678.707 7  -8193913.930 6  21873349.621 0  21873351.900 0
 88  2 28  5 57 29.0800000  0  4  6  8 11  9
  -5897065.425 6  -4453593.959 6  20639283.309 0  20639285.052 0
   1385411.580 7   1264441.980 7  20599698.617 0  20599699.538 0
  -8271972.498 6  -6168722.107 6  20831945.096 0  20831946.980 0
 -10796977.368 7  -8258821.978 6  21857498.754 0  21857500.655 0
 88  2 28  5 57 59.0800000  0  4  6  8 11  9
  -5915522.278 7  -4467975.914 6  20635770.589 0  20635772.458 0
   1439676.182 7   1306726.082 7  20610024.543 0  20610026.662 0
  -8309411.000 7  -6197894.955 6  20824819.997 0  20824823.529 0
 -10880098.479 7  -8323591.657 7  21841681.036 0  21841682.832 0
 88  2 28  5 58 29.0800000  0  4  6  8 11  9
  -5933543.301 7  -4482018.267 6  20632341.788 0  20632343.085 0
   1494468.601 7   1349421.471 6  20620450.725 0  20620452.237 0
  -8346313.736 7  -6226650.321 7  20817798.365 0  20817799.862 0
 -10963039.388 8  -8388220.935 6  21825899.219 0  21825899.062 0
 88  2 28  5 58 59.0800000  0  4  6  8 11  9
  -5951126.618 7  -4495719.561 7  20628995.282 0  20628996.480 0
   1549786.365 7   1392526.224 7  20630978.050 0  20630979.656 0
  -8382680.167 7  -6254987.793 6  20810877.528 0  20810878.979 0
 -11045797.822 7  -8452708.009 7  21810149.185 0  21810151.336 0
 88  2 28  5 59 29.0800000  0  4  6  8 11  9
  -5968270.206 7  -4509078.204 7  20625733.386 0  20625735.092 0
   1605626.275 7   1436037.829 6  20641603.656 0  20641604.688 0
  -8418509.982 7  -6282907.112 6  20804059.619 0  20804062.194 0
 -11128370.905 7  -8517050.658 7  21794436.415 0  21794436.960 0
 88  2 28  5 59 59.0800000  0  4  6  8 11  9
  -5984971.768 7  -4522092.414 6  20622555.153 0  20622556.622 0
   1661985.628 7   1479954.209 6  20652327.806 0  20652329.957 0
  -8453802.394 7  -6310407.683 6  20797343.984 0  20797345.361 0
 -11210756.125 7  -8581246.930 6  21778758.762 0  21778760.946 0
 88  2 28  6  0 29.0800000  0  4  6  8 11  9
  -6001229.486 7  -4534760.776 6  20619461.590 0  20619462.458 0
   1718861.074 7   1524272.751 7  20663152.494 0  20663152.807 0
  -8488557.671 7  -6337489.695 7  20790729.428 0  20790733.026 0
 -11292950.619 8  -8645294.584 7  21763117.311 0  21763119.394 0
 88  2 28  6  0 59.0800000  0  4  6  8 11  9
  -6017041.545 7  -4547081.864 7  20616452.063 0  20616453.491 0
   1776249.838 7   1568991.263 7  20674072.394 0  20674073.492 0
  -8522775.490 7  -6364152.920 6  20784218.555 0  20784220.614 0
 -11374952.356 7  -8709192.040 7  21747513.124 0  21747514.489 0
 88  2 28  6  1 29.0800000  0  4  6  8 11  9
  -6032405.595 7  -4559053.846 6  20613529.353 0  20613531.175 0
   1834149.080 7   1614107.555 7  20685091.068 0  20685090.969 0
  -8556455.669 7  -6390397.204 7  20777809.676 0  20777811.755 0
 -11456758.327 7  -8772936.933 6  21731946.788 0  21731947.782 0
 88  2 28  6  1 59.0800000  0  4  6  8 11  9
  -6047319.572 7  -4570675.124 7  20610690.504 0  20610691.916 0
   1892556.084 7   1659619.513 7  20696205.155 0  20696206.319 0
  -8589597.776 6  -6416222.212 6  20771502.760 0  20771504.717 0
 -11538365.824 7  -8836527.176 7  21716417.143 0  21716417.397 0
 88  2 28  6  2 29.0800000  0  4  6  8 11  9
  -6061781.692 7  -4581944.321 6  20607938.344 0  20607940.512 0
   1951467.885 8   1705524.807 6  20707415.727 0  20707416.530 0
  -8622201.475 7  -6441627.688 6  20765297.563 0  20765300.737 0
 -11619772.430 7  -8899960.895 6  21700925.723 0  21700927.311 0
 88  2 28  6  2 59.0800000  0  4  6  8 11  9
  -6075789.823 7  -4592859.744 6  20605273.169 0  20605273.852 0
   2010881.456 7   1751821.093 6  20718722.038 0  20718723.036 0
  -8654266.619 7  -6466613.492 6  20759196.086 0  20759198.407 0
 -11700975.103 7  -8963235.710 6  21685473.305 0  21685475.480 0
 88  2 28  6  3 29.0800000  0  4  6  8 11  9
  -6089342.007 7  -4603419.895 7  20602694.520 0  20602695.389 0
   2070794.050 8   1798506.240 6  20730122.304 0  20730123.954 0
  -8685793.139 6  -6491179.589 6  20753197.552 0  20753199.187 0
 -11781971.210 7  -9026349.538 7  21670060.029 0  21670060.945 0
 88  2 28  6  3 59.0800000  0  4  6  8 11  9
  -6102436.053 7  -4613623.052 6  20600202.086 0  20600203.757 0
   2131202.840 7   1845578.024 6  20741617.388 0  20741619.095 0
  -8716780.760 6  -6515325.792 6  20747300.623 0  20747302.990 0
 -11862758.464 7  -9089300.642 6  21654686.517 0  21654689.236 0
 88  2 28  6  4 29.0800000  0  4  6  8 11  9
  -6115070.450 7  -4623468.043 6  20597798.426 0  20597799.983 0
   2192104.555 7   1893033.899 6  20753207.565 0  20753207.948 0
  -8747229.848 7  -6539052.337 6  20741506.395 0  20741508.049 0
 -11943333.937 7  -9152086.705 7  21639353.509 0  21639355.112 0
 88  2 28  6  4 59.0800000  0  4  6  8 11  9
  -6127243.215 7  -4632953.306 6  20595482.238 0  20595483.751 0
   2253495.891 7   1940871.314 7  20764889.951 0  20764890.656 0
  -8777140.303 7  -6562359.169 6  20735813.640 0  20735817.340 0
 -12023695.150 7  -9214705.844 7  21624062.019 0  21624062.577 0
 88  2 28  6  5 29.0800000  0  4  6  8 11  9
  -6138952.552 6  -4642077.483 6  20593253.937 0  20593255.318 0
   2315374.566 7   1989088.463 7  20776664.855 0  20776666.287 0
  -8806512.108 7  -6585246.291 6  20730225.301 0  20730227.847 0
 -12103839.288 7  -9277155.812 6  21608810.637 0  21608812.842 0
 88  2 28  6  5 59.0800000  0  4  6  8 11  9
  -6150196.416 8  -4650838.927 7  20591114.626 0  20591115.749 0
   2377737.240 7   2037682.762 6  20788532.327 0  20788533.202 0
  -8835345.175 7  -6607713.603 6  20724738.255 0  20724741.309 0
 -12183763.659 7  -9339434.543 7  21593601.500 0  21593602.663 0
 88  2 28  6  6 29.0800000  0  4  6  8 11  9
  -6160972.805 7  -4659236.121 6  20589063.054 0  20589065.127 0
   2440580.944 8   2086651.889 6  20800490.806 0  20800491.053 0
  -8863639.381 7  -6629761.018 6  20719353.773 0  20719356.102 0
 -12263465.467 7  -9401539.846 7  21578435.537 0  21578436.384 0
 88  2 28  6  6 59.0800000  0  4  6  8 11  9
  -6171280.216 7  -4667267.879 7  20587101.779 0  20587103.907 0
   2503902.202 7   2135993.126 7  20812539.861 0  20812540.607 0
  -8891395.138 7  -6651388.871 6  20714071.749 0  20714073.986 0
 -12342942.581 7  -9463470.061 6  21563310.578 0  21563312.473 0
 88  2 28  6  7 29.0800000  0  4  6  8 11  9
  -6181116.503 7  -4674932.521 6  20585229.804 0  20585230.346 0
   2567698.591 7   2185704.608 6  20824680.793 0  20824681.459 0
  -8918612.184 7  -6672596.956 6  20708892.960 0  20708895.669 0
 -12422191.739 7  -9525222.645 7  21548229.392 0  21548231.888 0
 88  2 28  6  7 59.0800000  0  4  6  8 11  9
  -6190479.916 7  -4682228.690 7  20583447.763 0  20583449.304 0
   2631966.901 8   2235783.804 6  20836910.019 0  20836911.157 0
  -8945290.753 6  -6693385.435 6  20703817.246 0  20703817.504 0
 -12501210.357 7  -9586795.590 7  21533193.475 0  21533194.483 0
 88  2 28  6  8 29.0800000  0  4  6  8 11  9
  -6199368.713 7  -4689155.023 6  20581756.830 0  20581758.071 0
   2696704.118 7   2286228.386 7  20849229.846 0  20849231.335 0
  -8971430.784 7  -6713754.274 6  20698842.561 0  20698844.630 0
 -12579995.306 7  -9648186.449 6  21518201.098 0  21518202.420 0
 88  2 28  6  8 59.0800000  0  4  6  8 11  9
  -6207780.450 7  -4695709.627 7  20580155.599 0  20580157.270 0
   2761907.150 7   2337035.949 6  20861637.844 0  20861637.792 0
  -8997032.598 7  -6733703.726 6  20693969.298 0  20693972.210 0
 -12658544.294 7  -9709393.450 7  21503254.140 0  21503255.238 0
 88  2 28  6  9 29.0800000  0  4  6  8 11  9
  -6215713.864 7  -4701891.518 6  20578646.865 0  20578647.818 0
   2827573.014 8   2388204.153 7  20874133.032 0  20874134.410 0
  -9022096.416 6  -6753233.966 6  20689201.137 0  20689203.852 0
 -12736854.355 7  -9770414.273 7  21488351.978 0  21488353.399 0
 88  2 28  6  9 59.0800000  0  4  6  8 11  9
  -6223166.952 7  -4707699.126 7  20577228.421 0  20577230.407 0
   2893698.928 8   2439730.845 7  20886715.729 0  20886717.277 0
  -9046622.113 7  -6772344.882 7  20684532.853 0  20684535.535 0
 -12814922.829 7  -9831246.837 6  21473496.570 0  21473497.296 0
 88  2 28  6 10 29.0800000  0  4  6  8 11  9
  -6230138.027 7  -4713131.124 7  20575901.771 0  20575903.482 0
   2960281.215 7   2491613.138 6  20899386.675 0  20899387.382 0
  -9070609.788 7  -6791036.586 7  20679967.848 0  20679971.037 0
 -12892746.789 7  -9891888.883 6  21458686.592 0  21458687.331 0
 88  2 28  6 10 59.0800000  0  4  6  8 11  9
  -6236625.473 7  -4718186.291 7  20574667.772 0  20574668.226 0
   3027316.677 7   2543848.560 6  20912142.581 0  20912144.010 0
  -9094060.045 7  -6809309.496 6  20675506.066 0  20675508.809 0
 -12970324.015 7  -9952338.659 7  21443924.685 0  21443925.499 0
 88  2 28  6 11 29.0800000  0  4  6  8 11  9
  -6242627.491 7  -4722863.182 7  20573524.922 0  20573525.892 0
   3094802.458 7   2596434.890 6  20924984.727 0  20924985.864 0
  -9116972.882 7  -6827163.641 7  20671145.981 0  20671148.524 0
 -13047651.367 7 -10012593.737 6  21429209.380 0  21429210.969 0
 88  2 28  6 11 59.0800000  0  4  6  8 11  9
  -6248142.378 7  -4727160.512 6  20572476.762 0  20572475.936 0
   3162735.574 7   2649369.784 6  20937912.104 0  20937913.639 0
  -9139348.742 6  -6844599.366 6  20666888.520 0  20666890.104 0
 -13124725.878 7 -10072651.785 7  21414541.988 0  21414544.302 0
 88  2 28  6 12 29.0800000  0  4  6  8 11  9
  -6253168.515 7  -4731076.977 7  20571519.256 0  20571521.539 0
   3231112.483 7   2702650.480 7  20950924.117 0  20950924.848 0
  -9161187.855 7  -6861616.855 6  20662732.852 0  20662734.363 0
 -13201545.230 8 -10132511.013 6  21399924.109 0  21399925.974 0
 88  2 28  6 12 59.0800000  0  4  6  8 11  9
  -6257703.845 7  -4734611.007 6  20570655.735 0  20570657.147 0
   3299930.774 7   2756275.124 6  20964019.369 0  20964020.143 0
  -9182490.363 7  -6878216.200 7  20658678.228 0  20658681.521 0
 -13278106.440 7 -10192169.095 6  21385354.973 0  21385356.191 0
 88  2 28  6 13 29.0800000  0  4  6  8 11  9
  -6261746.621 7  -4737761.222 7  20569886.499 0  20569888.085 0
   3369186.956 7   2810240.975 7  20977198.410 0  20977199.588 0
  -9203256.322 6  -6894397.465 6  20654726.176 0  20654728.221 0
 -13354406.236 7 -10251623.481 6  21370836.158 0  21370836.411 0
 88  2 28  6 13 59.0800000  0  4  6  8 11  9
  -6265295.454 7  -4740526.555 6  20569211.518 0  20569212.371 0
   3438877.809 7   2864545.534 7  20990461.246 0  20990461.643 0
  -9223486.272 7  -6910161.046 6  20650876.864 0  20650878.043 0
 -13430442.296 7 -10310872.357 6  21356365.758 0  21356367.289 0
 88  2 28  6 14 29.0800000  0  4  6  8 11  9
  -6268348.923 6  -4742905.883 6  20568630.688 0  20568631.504 0
   3509000.243 7   2919186.392 7  21003803.744 0  21003805.523 0
  -9243181.088 6  -6925507.645 6  20647129.392 0  20647131.566 0
 -13506211.857 7 -10369913.555 7  21341948.142 0  21341949.353 0
 88  2 28  6 14 59.0800000  0  4  6  8 11  9
  -6270904.860 8  -4744897.539 6  20568143.991 0  20568145.446 0
   3579551.660 7   2974161.506 6  21017229.207 0  21017230.823 0
  -9262340.714 7  -6940437.198 5  20643483.185 0  20643484.859 0
 -13581711.789 7 -10428744.683 7  21327581.462 0  21327582.256 0
 88  2 28  6 15 29.0800000  0  4  6  8 11  9
  -6272961.954 7  -4746500.475 6  20567752.862 0  20567753.856 0
   3650528.267 7   3029467.945 6  21030735.820 0  21030737.129 0
  -9280965.887 6  -6954950.323 6  20639937.371 0  20639941.359 0
 -13656939.655 6 -10487363.793 7  21313265.602 0  21313267.191 0
 88  2 28  6 15 59.0800000  0  4  6  8 11  9
  -6274518.471 7  -4747713.354 7  20567456.658 0  20567458.170 0
   3721927.284 8   3085103.544 7  21044322.621 0  21044324.130 0
  -9299056.540 7  -6969046.922 6  20636496.184 0  20636498.796 0
 -13731892.153 7 -10545768.329 7  21299002.912 0  21299004.265 0
 88  2 28  6 16 29.0800000  0  4  6  8 11  9
  -6275573.012 7  -4748535.068 7  20567256.384 0  20567257.465 0
   3793745.333 8   3141065.656 7  21057988.502 0  21057990.490 0
  -9316613.411 7  -6982727.599 6  20633155.373 0  20633158.115 0
 -13806566.880 7 -10603956.416 6  21284792.394 0  21284794.202 0
 88  2 28  6 16 59.0800000  0  4  6  8 11  9
  -6276123.782 7  -4748964.250 7  20567150.881 0  20567151.349 0
   3865979.325 8   3197351.878 7  21071735.246 0  21071736.458 0
  -9333637.164 7  -6995992.844 6  20629916.737 0  20629918.239 0
 -13880960.786 7 -10661925.686 6  21270636.101 0  21270637.338 0
 88  2 28  6 17 29.0800000  0  4  6  8 11  9
  -6276169.604 8  -4748999.964 7  20567142.650 0  20567143.017 0
   3938625.903 7   3253959.601 7  21085559.117 0  21085560.231 0
  -9350128.405 6  -7008843.152 6  20626777.696 0  20626779.620 0
 -13955071.270 7 -10719674.116 6  21256533.626 0  21256534.877 0
 88  2 28  6 17 59.0800000  0  4  6  8 11  9
  -6275709.060 7  -4748641.109 7  20567230.435 0  20567231.674 0
   4011681.623 7   3310886.125 7  21099461.929 0  21099461.658 0
  -9366087.638 7  -7021278.897 6  20623740.831 0  20623742.722 0
 -14028895.888 8 -10777199.788 6  21242484.823 0  21242485.475 0
 88  2 28  6 18 29.0800000  0  4  6  8 11  9
  -6274740.023 7  -4747886.021 7  20567414.832 0  20567415.744 0
   4085144.136 7   3368129.645 6  21113440.522 0  21113441.624 0
  -9381515.032 7  -7033300.240 6  20620805.693 0  20620807.670 0
 -14102430.903 7 -10834499.792 7  21228491.391 0  21228492.870 0
 88  2 28  6 18 59.0800000  0  4  6  8 11  9
  -6273261.015 7  -4746733.558 6  20567696.979 0  20567696.717 0
   4159010.050 7   3425687.496 7  21127496.727 0  21127497.670 0
  -9396410.918 7  -7044907.438 6  20617969.024 0  20617974.200 0
 -14175673.802 7 -10891572.171 6  21214554.094 0  21214555.579 0
 88  2 28  6 19 29.0800000  0  4  6  8 11  9
  -6271270.991 7  -4745182.893 7  20568074.001 0  20568075.919 0
   4233275.598 7   3483556.741 6  21141628.878 0  21141629.959 0
  -9410776.340 7  -7056101.254 6  20615236.904 0  20615239.147 0
 -14248621.863 7 -10948414.817 7  21200672.156 0  21200673.173 0
 88  2 28  6 19 59.0800000  0  4  6  8 11  9
  -6268768.198 6  -4743232.675 7  20568551.437 0  20568551.978 0
   4307938.023 8   3541735.252 6  21155837.254 0  21155838.591 0
  -9424611.815 7  -7066882.126 6  20612603.280 0  20612605.273 0
 -14321272.213 7 -11005025.473 7  21186846.907 0  21186848.587 0
 88  2 28  6 20 29.0800000  0  4  6  8 11  9
  -6265751.405 7  -4740881.928 7  20569125.379 0  20569126.718 0
   4382993.909 7   3600220.366 7  21170119.818 0  21170120.025 0
  -9437918.424 7  -7077250.913 6  20610071.752 0  20610073.525 0
 -14393622.029 7 -11061401.939 6  21173079.498 0  21173081.433 0
 88  2 28  6 20 59.0800000  0  4  6  8 11  9
  -6262219.192 7  -4738129.575 6  20569797.472 0  20569798.765 0
   4458440.092 7   3659009.586 7  21184476.619 0  21184478.000 0
  -9450696.477 7  -7087207.853 6  20607640.456 0  20607642.848 0
 -14465668.435 7 -11117541.995 6  21159368.974 0  21159370.188 0
 88  2 28  6 21 29.0800000  0  4  6  8 11  9
  -6258170.005 7  -4734974.377 7  20570566.837 0  20570568.318 0
   4534273.600 8   3718100.625 7  21198906.701 0  21198907.802 0
  -9462946.800 6  -7096753.526 5  20605309.014 0  20605311.172 0
 -14537408.474 7 -11173443.313 6  21145718.615 0  21145718.795 0
 88  2 28  6 21 59.0800000  0  4  6  8 11  9
  -6253602.466 7  -4731415.255 6  20571437.512 0  20571437.521 0
   4610491.071 8   3777490.861 7  21213410.704 0  21213411.749 0
  -9474669.942 6  -7105888.445 6  20603079.427 0  20603079.677 0
 -14608839.381 7 -11229103.758 7  21132124.430 0  21132126.030 0
 88  2 28  6 22 29.0800000  0  4  6  8 11  9
  -6248514.913 7  -4727450.935 6  20572404.990 0  20572407.031 0
   4687089.533 8   3837177.973 7  21227986.703 0  21227988.364 0
  -9485866.244 6  -7114612.829 6  20600946.518 0  20600949.159 0
 -14679957.949 7 -11284520.802 6  21118591.986 0  21118592.235 0
 88  2 28  6 22 59.0800000  0  4  6  8 11  9
  -6242906.016 7  -4723080.372 6  20573471.474 0  20573473.753 0
   4764066.129 8   3897159.738 7  21242635.382 0  21242635.826 0
  -9496536.748 7  -7122927.499 6  20598916.669 0  20598919.145 0
 -14750761.125 7 -11339692.121 7  21105118.468 0  21105118.632 0
 88  2 28  6 23 29.0800000  0  4  6  8 11  9
  -6236774.622 7  -4718302.672 6  20574638.992 0  20574641.216 0
   4841417.283 8   3957433.356 6  21257354.398 0  21257355.574 0
  -9506682.337 7  -7130833.149 6  20596986.883 0  20596989.812 0
 -14821246.572 7 -11394615.827 6  21091704.946 0  21091705.361 0
 88  2 28  6 23 59.0800000  0  4  6  8 11  9
  -6230119.621 7  -4713116.959 6  20575905.644 0  20575907.384 0
   4919139.894 7   4017996.418 7  21272144.942 0  21272146.852 0
  -9516303.725 6  -7138330.316 6  20595155.772 0  20595157.513 0
 -14891411.207 8 -11449289.582 6  21078353.342 0  21078354.542 0
 88  2 28  6 24 29.0800000  0  4  6  8 11  9
  -6222939.519 7  -4707522.083 7  20577271.756 0  20577273.022 0
   4997230.370 7   4078846.143 6  21287004.297 0  21287005.619 0
  -9525401.713 7  -7145419.661 6  20593424.272 0  20593425.762 0
 -14961252.419 7 -11503711.296 7  21065062.756 0  21065064.238 0
 88  2 28  6 24 59.0800000  0  4  6  8 11  9
  -6215233.520 7  -4701517.404 6  20578738.642 0  20578740.095 0
   5075685.331 7   4139979.875 6  21301934.311 0  21301934.748 0
  -9533977.350 7  -7152101.957 6  20591791.733 0  20591794.139 0
 -15030767.562 7 -11557878.931 6  21051834.769 0  21051834.309 0
 88  2 28  6 25 29.0800000  0  4  6  8 11  9
  -6206999.649 7  -4695101.403 7  20580305.131 0  20580305.955 0
   5154502.413 7   4201395.784 6  21316932.248 0  21316934.289 0
  -9542030.982 6  -7158377.518 6  20590259.884 0  20590262.206 0
 -15099953.146 7 -11611789.768 6  21038668.810 0  21038669.663 0
 88  2 28  6 25 59.0800000  0  4  6  8 11  9
  -6198236.938 6  -4688273.326 6  20581972.600 0  20581974.265 0
   5233678.322 8   4263091.295 6  21331999.149 0  21331999.948 0
  -9549563.919 7  -7164247.333 6  20588825.960 0  20588829.499 0
 -15168806.506 8 -11665441.729 6  21025567.094 0  21025567.669 0
 88  2 28  6 26 29.0800000  0  4  6  8 11  9
  -6188944.359 7  -4681032.362 7  20583741.332 0  20583742.889 0
   5313209.403 8   4325063.568 7  21347133.514 0  21347134.602 0
  -9556577.305 7  -7169712.296 6  20587491.194 0  20587493.696 0
 -15237324.782 7 -11718832.590 6  21012527.716 0  21012529.367 0
 88  2 28  6 26 59.0800000  0  4  6  8 11  9
  -6179120.662 7  -4673377.540 7  20585611.004 0  20585611.897 0
   5393092.320 7   4387309.979 6  21362334.833 0  21362336.189 0
  -9563071.407 7  -7174772.639 6  20586256.223 0  20586258.929 0
 -15305505.115 7 -11771960.116 7  20999553.863 0  20999555.115 0
 88  2 28  6 27 29.0800000  0  4  6  8 11  9
  -6168764.434 7  -4665307.752 7  20587581.226 0  20587580.986 0
   5473324.206 8   4449828.321 6  21377601.789 0  21377603.769 0
  -9569047.236 6  -7179429.108 5  20585118.269 0  20585121.295 0
 -15373344.612 7 -11824822.065 7  20986645.121 0  20986645.201 0
 88  2 28  6 27 59.0800000  0  4  6  8 11  9
  -6157874.757 7  -4656822.296 6  20589653.547 0  20589654.079 0
   5553901.414 7   4512615.757 6  21392936.696 0  21392936.702 0
  -9574505.930 7  -7183682.637 6  20584080.450 0  20584082.048 0
 -15440840.351 7 -11877416.145 6  20973800.289 0  20973802.409 0
 88  2 28  6 28 29.0800000  0  4  6  8 11  9
  -6146450.259 7  -4647920.112 6  20591827.145 0  20591829.079 0
   5634821.504 8   4575670.376 7  21408334.568 0  21408336.082 0
  -9579448.212 6  -7187533.767 7  20583139.343 0  20583141.853 0
 -15507989.186 7 -11929739.903 7  20961021.759 0  20961023.946 0
 88  2 28  6 28 59.0800000  0  4  6  8 11  9
  -6134490.129 6  -4638600.538 6  20594103.107 0  20594104.532 0
   5716080.455 7   4638989.029 6  21423797.706 0  21423799.460 0
  -9583875.613 6  -7190983.680 6  20582297.139 0  20582298.491 0
 -15574788.993 7 -11981791.706 7  20948310.309 0  20948311.940 0
 88  2 28  6 29 29.0800000  0  4  6  8 11  9
  -6121993.008 7  -4628862.519 6  20596481.630 0  20596483.442 0
   5797675.528 8   4702569.587 6  21439325.141 0  21439325.938 0
  -9587788.689 7  -7194032.819 6  20581552.202 0  20581554.558 0
 -15641236.320 7 -12033568.848 6  20935666.506 0  20935667.583 0
 88  2 28  6 29 59.0800000  0  4  6  8 11  9
  -6108957.907 7  -4618705.307 7  20598962.017 0  20598963.883 0
   5879603.688 7   4766409.711 7  21454914.494 0  21454916.627 0
  -9591188.617 7  -7196682.110 6  20580905.195 0  20580907.190 0
 -15707328.110 7 -12085068.944 7  20923088.836 0  20923091.703 0
 88  2 28  6 30 29.0800000  0  4  6  8 11  9
  -6095384.059 7  -4608128.298 7  20601545.918 0  20601545.063 0
   5961861.286 7   4830506.528 7  21470567.645 0  21470568.931 0
  -9594076.736 7  -7198932.586 6  20580355.290 0  20580357.668 0
 -15773062.147 7 -12136290.254 7  20910580.641 0  20910581.829 0
 88  2 28  6 30 59.0800000  0  4  6  8 11  9
  -6081270.326 7  -4597130.587 7  20604230.796 0  20604232.996 0
   6044444.798 7   4894857.299 7  21486283.238 0  21486284.118 0
  -9596453.668 7  -7200784.732 6  20579902.966 0  20579905.709 0
 -15838435.190 8 -12187230.291 7  20898141.589 0  20898141.383 0
 88  2 28  6 31 29.0800000  0  4  6  8 11  9
  -6066615.412 7  -4585711.186 6  20607018.786 0  20607021.202 0
   6127352.058 7   4959460.351 7  21502059.805 0  21502060.324 0
  -9598320.590 7  -7202239.470 6  20579547.466 0  20579550.691 0
 -15903444.348 7 -12237886.778 6  20885770.322 0  20885770.990 0
 88  2 28  6 31 59.0800000  0  4  6  8 11  9
  -6051418.611 7  -4573869.534 6  20609911.108 0  20609912.518 0
   6210579.321 8   5024312.758 7  21517898.231 0  21517898.542 0
  -9599678.778 7  -7203297.799 6  20579289.259 0  20579291.862 0
 -15968086.623 7 -12288257.383 7  20873469.216 0  20873469.526 0
 88  2 28  6 32 29.0800000  0  4  6  8 11  9
  -6035678.929 7  -4561604.846 7  20612905.912 0  20612908.151 0
   6294123.269 7   5089411.932 6  21533795.289 0  21533796.993 0
  -9600529.708 7  -7203960.853 6  20579127.573 0  20579129.721 0
 -16032359.561 7 -12338340.189 6  20861239.039 0  20861240.135 0
 88  2 28  6 32 59.0800000  0  4  6  8 11  9
  -6019395.296 7  -4548916.329 6  20616005.116 0  20616006.409 0
   6377981.025 7   5154755.615 7  21549752.296 0  21549754.740 0
  -9600874.037 6  -7204229.164 5  20579062.409 0  20579065.521 0
 -16096259.948 7 -12388132.706 6  20849078.252 0  20849079.170 0
 88  2 28  6 33 29.0800000  0  4  6  8 11  9
  -6002566.842 7  -4535803.238 7  20619206.428 0  20619208.322 0
   6462149.053 8   5220341.087 7  21565769.624 0  21565770.638 0
  -9600713.083 7  -7204103.731 5  20579092.493 0  20579095.303 0
 -16159784.402 8 -12437632.282 6  20836989.843 0  20836991.085 0
 88  2 28  6 33 59.0800000  0  4  6  8 11  9
  -5985192.554 7  -4522264.857 6  20622514.449 0  20622514.958 0
   6546624.224 8   5286165.889 7  21581844.922 0  21581846.188 0
  -9600047.768 7  -7203585.297 6  20579219.661 0  20579220.819 0
 -16222930.816 7 -12486837.273 7  20824973.405 0  20824973.922 0
 88  2 28  6 34 29.0800000  0  4  6  8 11  9
  -5967271.434 7  -4508300.357 6  20625923.800 0  20625925.094 0
   6631403.588 7   5352227.725 7  21597977.689 0  21597979.077 0
  -9598879.284 7  -7202674.775 6  20579441.137 0  20579444.420 0
 -16285695.820 7 -12535745.083 7  20813029.937 0  20813030.721 0
 88  2 28  6 34 59.0800000  0  4  6  8 11  9
  -5948803.154 7  -4493909.502 7  20629438.574 0  20629439.465 0
   6716483.520 7   5418523.762 6  21614167.738 0  21614169.760 0
  -9597209.100 6  -7201373.338 6  20579759.351 0  20579761.415 0
 -16348077.065 7 -12584353.831 6  20801159.218 0  20801160.462 0
 88  2 28  6 35 29.0800000  0  4  6  8 11  9
  -5929786.798 7  -4479091.568 7  20633056.982 0  20633058.402 0
   6801861.023 8   5485051.681 6  21630415.098 0  21630415.803 0
  -9595038.487 7  -7199681.950 6  20580172.543 0  20580174.658 0
 -16410071.462 7 -12632661.158 6  20789361.830 0  20789362.534 0
 88  2 28  6 35 59.0800000  0  4  6  8 11  9
  -5910221.438 6  -4463845.847 7  20636779.422 0  20636781.773 0
   6887533.026 7   5551809.074 6  21646717.400 0  21646719.464 0
  -9592368.607 6  -7197601.520 6  20580680.926 0  20580681.548 0
 -16471676.502 7 -12680665.080 7  20777639.187 0  20777639.734 0
 88  2 28  6 36 29.0800000  0  4  6  8 11  9
  -5890106.201 6  -4448171.649 6  20640608.096 0  20640607.801 0
   6973496.144 7   5618793.305 7  21663075.387 0  21663076.565 0
  -9589200.865 7  -7195133.149 6  20581283.841 0  20581285.724 0
 -16532888.761 7 -12728362.948 7  20765990.037 0  20765991.806 0
 88  2 28  6 36 59.0800000  0  4  6  8 11  9
  -5869440.105 7  -4432068.193 7  20644540.953 0  20644541.488 0
   7059747.723 7   5686002.321 6  21679489.124 0  21679490.121 0
  -9585536.128 7  -7192277.505 7  20581980.552 0  20581982.121 0
 -16593705.336 7 -12775752.489 7  20754417.375 0  20754418.811 0
 88  2 28  6 37 29.0800000  0  4  6  8 11  9
  -5848222.571 6  -4415535.065 6  20648578.181 0  20648579.030 0
   7146284.363 8   5753433.480 7  21695957.024 0  21695957.671 0
  -9581376.102 7  -7189035.921 6  20582772.697 0  20582774.622 0
 -16654123.583 7 -12822831.644 7  20742920.105 0  20742921.181 0
 88  2 28  6 37 59.0800000  0  4  6  8 11  9
  -5826452.912 7  -4398571.700 7  20652720.353 0  20652722.574 0
   7233102.635 7   5821084.068 7  21712476.990 0  21712478.667 0
  -9576722.186 6  -7185409.476 7  20583658.567 0  20583659.312 0
 -16714140.391 8 -12869597.987 6  20731499.990 0  20731501.312 0
 88  2 28  6 38 29.0800000  0  4  6  8 11  9
  -5804130.732 7  -4381177.814 7  20656967.954 0  20656968.975 0
   7320199.512 7   5888951.759 6  21729051.499 0  21729052.594 0
  -9571575.645 7  -7181399.197 6  20584637.334 0  20584640.466 0
 -16773753.632 7 -12916049.864 7  20720156.081 0  20720155.778 0
 88  2 28  6 38 59.0800000  0  4  6  8 11  9
  -5781255.164 6  -4363352.706 6  20661321.286 0  20661322.237 0
   7407571.816 7   5957034.069 7  21745677.558 0  21745677.881 0
  -9565937.737 7  -7177006.002 6  20585709.425 0  20585712.716 0
 -16832959.901 8 -12962184.607 6  20708889.550 0  20708890.792 0
 88  2 28  6 39 29.0800000  0  4  6  8 11  9
  -5757825.494 7  -4345095.842 6  20665780.391 0  20665781.438 0
   7495216.532 7   6025328.658 7  21762355.570 0  21762358.138 0
  -9559809.803 7  -7172230.981 6  20586877.683 0  20586878.598 0
 -16891756.603 7 -13008000.237 6  20697700.560 0  20697700.403 0
 88  2 28  6 39 59.0800000  0  4  6  8 11  9
  -5733841.209 7  -4326406.791 6  20670344.438 0  20670345.479 0
   7583130.403 7   6093832.958 6  21779084.647 0  21779087.727 0
  -9553193.544 7  -7167075.457 7  20588134.772 0  20588137.501 0
 -16950140.696 7 -13053494.327 6  20686590.265 0  20686590.998 0
 88  2 28  6 40 29.0800000  0  4  6  8 11  9
  -5709301.521 7  -4307284.969 7  20675014.579 0  20675014.598 0
   7671310.183 7   6162544.488 7  21795864.738 0  21795866.533 0
  -9546090.401 7  -7161540.523 6  20589486.197 0  20589489.512 0
 -17008109.592 7 -13098664.896 6  20675559.604 0  20675559.624 0
 88  2 28  6 40 59.0800000  0  4  6  8 11  9
  -5684205.662 7  -4287729.764 6  20679789.730 0  20679791.352 0
   7759753.361 7   6231461.243 6  21812695.712 0  21812696.649 0
  -9538501.483 7  -7155627.086 6  20590931.318 0  20590932.979 0
 -17065660.146 7 -13143509.484 7  20664607.311 0  20664608.868 0
 88  2 28  6 41 29.0800000  0  4  6  8 11  9
  -5658553.416 7  -4267741.012 6  20684671.001 0  20684672.711 0
   7848456.102 7   6300580.267 6  21829574.458 0  21829575.228 0
  -9530428.097 7  -7149336.123 6  20592467.368 0  20592469.694 0
 -17122789.682 7 -13188026.003 7  20653736.011 0  20653736.641 0
 88  2 28  6 41 59.0800000  0  4  6  8 11  9
  -5632344.129 7  -4247318.205 6  20689658.346 0  20689658.811 0
   7937415.939 7   6369899.617 7  21846503.703 0  21846504.134 0
  -9521871.716 7  -7142668.821 6  20594095.421 0  20594096.768 0
 -17179495.201 7 -13232212.137 6  20642945.904 0  20642945.919 0
 88  2 28  6 42 29.0800000  0  4  6  8 11  9
  -5605577.284 7  -4226460.927 6  20694751.351 0  20694752.911 0
   8026629.240 7   6439416.469 6  21863479.957 0  21863481.272 0
  -9512834.028 7  -7135626.466 6  20595815.927 0  20595817.593 0
 -17235774.011 7 -13276065.750 6  20632236.018 0  20632235.889 0
 88  2 28  6 42 59.0800000  0  4  6  8 11  9
  -5578252.706 7  -4205169.072 6  20699951.570 0  20699953.193 0
   8116092.736 8   6509128.306 6  21880503.839 0  21880506.734 0
  -9503316.682 7  -7128210.337 6  20597626.229 0  20597628.892 0
 -17291623.758 7 -13319585.030 6  20621607.946 0  20621609.489 0
 88  2 28  6 43 29.0800000  0  4  6  8 11  9
  -5550369.702 7  -4183442.071 6  20705257.536 0  20705258.472 0
   8205803.357 7   6579032.689 7  21897576.291 0  21897578.106 0
  -9493321.152 7  -7120421.601 6  20599529.205 0  20599531.211 0
 -17347041.173 7 -13362767.437 6  20611061.662 0  20611062.881 0
 88  2 28  6 43 59.0800000  0  4  6  8 11  9
  -5521926.964 7  -4161278.903 6  20710670.234 0  20710672.759 0
   8295758.222 7   6649127.394 7  21914693.899 0  21914695.432 0
  -9482848.560 6  -7112261.148 6  20601522.405 0  20601522.821 0
 -17402023.649 7 -13405610.926 6  20600598.572 0  20600599.663 0
 88  2 28  6 44 29.0800000  0  4  6  8 11  9
  -5492925.577 7  -4138680.422 7  20716188.753 0  20716189.990 0
   8385954.138 7   6719409.926 6  21931857.207 0  21931858.513 0
  -9471900.703 7  -7103730.346 6  20603604.526 0  20603606.589 0
 -17456568.172 7 -13448113.142 6  20590219.760 0  20590219.935 0
 88  2 28  6 44 59.0800000  0  4  6  8 11  9
  -5463364.608 7  -4115645.923 6  20721814.287 0  20721815.567 0
   8476388.149 7   6789877.994 7  21949066.850 0  21949067.730 0
  -9460479.154 6  -7094830.437 6  20605778.816 0  20605780.094 0
 -17510672.246 7 -13490272.169 6  20579924.446 0  20579926.143 0
 88  2 28  6 45 29.0800000  0  4  6  8 11  9
  -5433243.834 7  -4092175.185 6  20727546.696 0  20727547.629 0
   8567056.870 7   6860528.953 7  21966320.310 0  21966321.691 0
  -9448585.724 7  -7085562.825 6  20608041.279 0  20608044.589 0
 -17564333.163 7 -13532085.860 6  20569712.622 0  20569715.092 0
 88  2 28  6 45 59.0800000  0  4  6  8 11  9
  -5402562.702 7  -4068267.829 7  20733384.678 0  20733386.104 0
   8657957.340 8   6931360.496 6  21983617.412 0  21983619.497 0
  -9436221.877 7  -7075928.648 6  20610395.473 0  20610397.445 0
 -17617548.008 8 -13573551.972 7  20559586.379 0  20559587.109 0
 88  2 28  6 46 29.0800000  0  4  6  8 11  9
  -5371320.787 7  -4043923.496 7  20739329.544 0  20739331.291 0
   8749086.786 7   7002370.466 7  22000959.490 0  22000960.098 0
  -9423388.931 7  -7065928.957 6  20612836.638 0  20612839.383 0
 -17670313.969 7 -13614668.312 6  20549545.977 0  20549547.207 0
 88  2 28  6 46 59.0800000  0  4  6  8 11  9
  -5339517.825 7  -4019141.975 6  20745382.167 0  20745384.508 0
   8840441.840 7   7073556.239 7  22018344.422 0  22018345.445 0
  -9410088.543 7  -7055565.007 6  20615367.009 0  20615369.363 0
 -17722628.176 7 -13655432.615 6  20539589.767 0  20539591.999 0
 88  2 28  6 47 29.0800000  0  4  6  8 11  9
  -5307153.605 7  -3993923.115 7  20751540.949 0  20751541.845 0
   8932019.448 7   7144915.417 7  22035770.417 0  22035772.255 0
  -9396322.356 6  -7044838.116 6  20617987.372 0  20617989.769 0
 -17774488.120 7 -13695842.965 6  20529721.971 0  20529723.396 0
 88  2 28  6 47 59.0800000  0  4  6  8 11  9
  -5274227.772 7  -3968266.633 6  20757806.131 0  20757807.646 0
   9023816.949 8   7216445.955 7  22053239.087 0  22053240.487 0
  -9382092.071 7  -7033749.575 7  20620694.376 0  20620697.038 0
 -17825890.824 7 -13735897.019 6  20519940.121 0  20519941.621 0
 88  2 28  6 48 29.0800000  0  4  6  8 11  9
  -5240740.291 7  -3942172.504 7  20764179.712 0  20764179.441 0
   9115831.050 7   7288145.263 7  22070749.040 0  22070749.762 0
  -9367399.653 7  -7022300.941 6  20623490.922 0  20623492.655 0
 -17876833.781 7 -13775592.826 7  20510246.050 0  20510247.367 0
 88  2 28  6 48 59.0800000  0  4  6  8 11  9
  -5206691.093 7  -3915640.673 6  20770658.702 0  20770659.190 0
   9208058.675 7   7360010.961 6  22088298.843 0  22088300.345 0
  -9352246.643 7  -7010493.393 6  20626375.186 0  20626376.142 0
 -17927314.631 7 -13814928.564 6  20500639.617 0  20500641.641 0
 88  2 28  6 49 29.0800000  0  4  6  8 11  9
  -5172079.801 7  -3888670.851 6  20777243.549 0  20777245.490 0
   9300496.717 7   7432040.604 7  22105888.475 0  22105890.673 0
  -9336634.741 7  -6998328.267 6  20629344.467 0  20629346.818 0
 -17977330.090 7 -13853901.638 7  20491121.335 0  20491123.750 0
 88  2 28  6 49 59.0800000  0  4  6  8 11  9
  -5136906.210 7  -3861262.874 7  20783938.269 0  20783937.617 0
   9393142.389 7   7504232.041 7  22123519.770 0  22123519.420 0
  -9320565.489 7  -6985806.771 7  20632403.171 0  20632404.696 0
 -18026877.638 7 -13892510.115 6  20481693.337 0  20481695.309 0
 88  2 28  6 50 29.0800000  0  4  6  8 11  9
  -5101170.366 7  -3833416.767 6  20790738.902 0  20790739.696 0
   9485992.513 7   7576582.805 7  22141188.053 0  22141189.119 0
  -9304040.804 7  -6972930.394 6  20635547.404 0  20635550.090 0
 -18075954.621 7 -13930751.917 6  20472355.285 0  20472355.333 0
 88  2 28  6 50 59.0800000  0  4  6  8 11  9
  -5064872.001 8  -3805132.352 7  20797645.221 0  20797647.375 0
   9579044.311 7   7649090.714 6  22158894.994 0  22158895.765 0
  -9287062.123 7  -6959700.250 6  20638778.503 0  20638782.032 0
 -18124558.309 7 -13968624.919 6  20463105.705 0  20463106.484 0
 88  2 28  6 51 29.0800000  0  4  6  8 11  9
  -5028011.107 7  -3776409.589 7  20804659.722 0  20804660.916 0
   9672294.762 7   7721753.410 6  22176639.959 0  22176641.326 0
  -9269631.481 7  -6946117.921 7  20642095.886 0  20642098.123 0
 -18172686.186 6 -14006127.164 7  20453948.169 0  20453947.932 0
 88  2 28  6 51 59.0800000  0  4  6  8 11  9
  -4990587.606 8  -3747248.421 6  20811781.453 0  20811782.576 0
   9765740.600 7   7794568.365 6  22194421.493 0  22194424.049 0
  -9251750.345 7  -6932184.563 7  20645499.298 0  20645500.604 0
 -18220335.446 7 -14043256.468 6  20444879.853 0  20444881.204 0
 88  2 28  6 52 29.0800000  0  4  6  8 11  9
  -4952601.377 8  -3717648.778 6  20819009.791 0  20819011.468 0
   9859379.132 7   7867533.477 6  22212240.611 0  22212241.934 0
  -9233420.545 7  -6917901.601 6  20648986.752 0  20648988.179 0
 -18267503.184 7 -14080010.549 7  20435904.204 0  20435905.655 0
 88  2 28  6 52 59.0800000  0  4  6  8 11  9
  -4914052.516 7  -3687610.716 7  20826344.827 0  20826346.676 0
   9953207.319 7   7940646.354 6  22230095.272 0  22230096.652 0
  -9214644.100 7  -6903270.601 6  20652559.432 0  20652561.871 0
 -18314187.295 7 -14116387.778 7  20427020.903 0  20427021.644 0
 88  2 28  6 53 29.0800000  0  4  6  8 11  9
  -4874941.256 8  -3657134.420 6  20833788.100 0  20833788.232 0
  10047221.986 8   8013904.550 7  22247986.505 0  22247987.673 0
  -9195422.614 7  -6888292.812 6  20656216.677 0  20656219.333 0
 -18360384.885 7 -14152385.887 7  20418229.498 0  20418231.061 0
 88  2 28  6 53 59.0800000  0  4  6  8 11  9
  -4835267.516 7  -3626219.831 7  20841338.321 0  20841338.999 0
  10141420.179 7   8087305.751 6  22265911.012 0  22265913.113 0
  -9175757.772 7  -6872969.555 6  20659958.710 0  20659961.707 0
 -18406093.024 7 -14188002.636 7  20409532.125 0  20409532.074 0
 88  2 28  6 54 29.0800000  0  4  6  8 11  9
  -4795031.143 7  -3594866.827 6  20848994.229 0  20848995.625 0
  10235799.293 7   8160847.930 7  22283871.497 0  22283872.583 0
  -9155651.543 7  -6857302.365 6  20663785.492 0  20663786.877 0
 -18451309.569 7 -14223236.294 6  20400927.711 0  20400927.367 0
 88  2 28  6 54 59.0800000  0  4  6  8 11  9
  -4754232.658 7  -3563075.807 6  20856758.657 0  20856759.598 0
  10330356.386 7   8234528.792 6  22301864.798 0  22301866.701 0
  -9135105.872 7  -6841292.755 6  20667694.725 0  20667696.644 0
 -18496032.107 7 -14258085.022 6  20392417.739 0  20392417.691 0
 88  2 28  6 55 29.0800000  0  4  6  8 11  9
  -4712871.738 7  -3530846.535 7  20864628.990 0  20864630.026 0
  10425088.309 6   8308345.894 7  22319891.383 0  22319892.979 0
  -9114122.435 7  -6824942.015 7  20671687.973 0  20671689.791 0
 -18540257.428 7 -14292546.325 6  20384001.651 0  20384001.312 0
 88  2 28  6 55 59.0800000  0  4  6  8 11  9
  -4670948.732 7  -3498179.258 7  20872606.669 0  20872608.120 0
  10519992.127 7   8382296.916 7  22337951.203 0  22337951.860 0
  -9092703.206 6  -6808251.704 7  20675764.227 0  20675765.628 0
 -18583983.315 6 -14326618.451 6  20375679.874 0  20375681.723 0
 88  2 28  6 56 29.0800000  0  4  6  8 11  9
  -4628464.035 8  -3465074.312 7  20880691.153 0  20880691.810 0
  10615065.140 7   8456379.787 7  22356043.206 0  22356043.789 0
  -9070850.278 7  -6791223.438 6  20679921.820 0  20679925.313 0
 -18627207.467 7 -14360299.605 6  20367454.774 0  20367455.656 0
 88  2 28  6 56 59.0800000  0  4  6  8 11  9
  -4585417.631 8  -3431531.681 7  20888883.039 0  20888883.628 0
  10710304.339 7   8530592.150 7  22374165.855 0  22374168.040 0
  -9048565.020 7  -6773858.309 7  20684163.260 0  20684164.858 0
 -18669927.051 7 -14393587.593 6  20359325.207 0  20359327.886 0
 88  2 28  6 57 29.0800000  0  4  6  8 11  9
  -4541809.916 7  -3397551.660 6  20897181.342 0  20897181.735 0
  10805706.630 7   8604931.571 7  22392320.927 0  22392322.332 0
  -9025849.593 7  -6756157.978 7  20688485.374 0  20688487.450 0
 -18712139.687 7 -14426480.566 5  20351292.587 0  20351294.715 0
 88  2 28  6 57 59.0800000  0  4  6  8 11  9
  -4497641.081 7  -3363134.397 7  20905585.564 0  20905586.786 0
  10901269.227 7   8679395.928 7  22410505.826 0  22410507.617 0
  -9002706.194 7  -6738124.163 7  20692889.286 0  20692892.023 0
 -18753842.914 7 -14458976.585 5  20343356.649 0  20343357.882 0
 88  2 28  6 58 29.0800000  0  4  6  8 11  9
  -4452911.629 7  -3328280.288 7  20914097.291 0  20914098.385 0
  10996989.434 7   8753983.103 7  22428721.239 0  22428722.262 0
  -8979136.538 7  -6719758.185 7  20697375.601 0  20697376.607 0
 -18795034.318 7 -14491073.780 7  20335519.183 0  20335519.488 0
 88  2 28  6 58 59.0800000  0  4  6  8 11  9
  -4407621.717 7  -3292989.460 7  20922716.195 0  20922717.647 0
  11092864.202 7   8828690.711 7  22446966.325 0  22446966.371 0
  -8955142.379 7  -6701061.442 6  20701940.405 0  20701943.509 0
 -18835711.346 7 -14522770.177 6  20327778.189 0  20327779.459 0
 88  2 28  6 59 29.0800000  0  4  6  8 11  9
  -4361771.206 8  -3257261.799 6  20931441.458 0  20931442.622 0
  11188890.922 8   8903516.711 7  22465238.612 0  22465240.309 0
  -8930725.457 7  -6682035.268 6  20706587.281 0  20706589.672 0
 -18875871.201 7 -14554063.581 6  20320136.024 0  20320137.234 0
 88  2 28  6 59 59.0800000  0  4  6  8 11  9
  -4315360.895 7  -3221097.937 6  20940273.208 0  20940273.572 0
  11285066.810 8   8978458.959 7  22483540.668 0  22483541.715 0
  -8905888.177 7  -6662681.537 7  20711313.482 0  20711315.572 0
 -18915511.628 7 -14584952.205 6  20312592.451 0  20312593.580 0
 88  2 28  7  0 29.0800000  0  4  6  8 11  9
  -4268391.237 7  -3184498.211 7  20949210.278 0  20949212.415 0
  11381388.822 7   9053515.053 7  22501870.142 0  22501871.956 0
  -8880632.351 7  -6643001.676 7  20716119.424 0  20716121.827 0
 -18954630.329 6 -14615434.332 6  20305147.321 0  20305150.001 0
 88  2 28  7  0 59.0800000  0  4  6  8 11  9
  -4220862.274 7  -3147462.669 6  20958255.495 0  20958256.971 0
  11477853.968 7   9128682.689 7  22520226.077 0  22520227.682 0
  -8854959.867 7  -6622997.143 7  20721004.715 0  20721007.065 0
 -18993224.557 7 -14645507.745 6  20297803.887 0  20297805.891 0
 88  2 28  7  1 29.0800000  0  4  6  8 11  9
  -4172774.541 8  -3109991.722 7  20967406.068 0  20967408.281 0
  11574459.718 7   9203959.888 7  22538608.879 0  22538610.841 0
  -8828872.659 7  -6602669.448 7  20725968.848 0  20725971.216 0
 -19031291.851 7 -14675170.572 7  20290559.733 0  20290561.778 0
 88  2 28  7  1 59.0800000  0  4  6  8 11  9
  -4124128.463 7  -3072085.699 7  20976663.358 0  20976665.098 0
  11671203.340 7   9279344.506 7  22557018.919 0  22557021.484 0
  -8802372.698 6  -6582020.128 6  20731011.579 0  20731015.018 0
 -19068830.288 6 -14704421.310 6  20283415.872 0  20283417.879 0
 88  2 28  7  2 29.0800000  0  4  6  8 11  9
  -4074924.717 7  -3033745.125 7  20986025.736 0  20986028.408 0
  11768081.543 7   9354833.995 7  22575454.357 0  22575455.663 0
  -8775462.220 7  -6561050.912 6  20736132.439 0  20736134.755 0
 -19105837.423 7 -14733258.050 6  20276374.096 0  20276375.506 0
 88  2 28  7  2 59.0800000  0  4  6  8 11  9
  -4025163.651 7  -2994970.285 7  20995495.151 0  20995496.978 0
  11865092.103 7   9430426.641 7  22593914.682 0  22593916.410 0
  -8748143.079 7  -6539763.281 6  20741330.974 0  20741333.356 0
 -19142310.378 7 -14761678.528 6  20269433.817 0  20269434.714 0
 88  2 28  7  3 29.0800000  0  4  6  8 11  9
  -3974845.974 7  -2955761.714 7  21005070.563 0  21005072.061 0
  11962231.774 7   9506119.869 7  22612399.448 0  22612401.342 0
  -8720417.578 7  -6518158.998 6  20746607.003 0  20746610.135 0
 -19178247.440 7 -14789681.436 6  20262594.899 0  20262596.732 0
 88  2 28  7  3 59.0800000  0  4  6  8 11  9
  -3923972.043 7  -2916119.700 7  21014751.656 0  21014752.403 0
  12059498.145 7   9581911.841 6  22630909.537 0  22630911.278 0
  -8692287.268 7  -6496239.279 6  20751960.913 0  20751962.586 0
 -19213645.851 7 -14817264.625 6  20255859.334 0  20255860.601 0
 88  2 28  7  4 29.0800000  0  4  6  8 11  9
  -3872542.372 8  -2876044.658 7  21024537.543 0  21024539.924 0
  12156888.458 7   9657800.385 7  22649442.814 0  22649444.158 0
  -8663754.255 6  -6474005.763 7  20757389.798 0  20757391.876 0
 -19248503.372 7 -14844426.334 6  20249226.335 0  20249226.534 0
 88  2 28  7  4 59.0800000  0  4  6  8 11  9
  -3820557.853 7  -2835537.250 7  21034431.135 0  21034432.418 0
  12254399.674 7   9733783.144 7  22667997.609 0  22667999.486 0
  -8634820.703 7  -6451460.133 7  20762895.214 0  20762897.780 0
 -19282817.829 7 -14871164.869 7  20242695.505 0  20242698.420 0
 88  2 28  7  5 29.0800000  0  4  6  8 11  9
  -3768018.790 7  -2794597.720 6  21044428.371 0  21044430.024 0
  12352029.613 7   9809858.402 7  22686576.594 0  22686578.086 0
  -8605488.544 8  -6428603.913 6  20768477.459 0  20768480.130 0
 -19316586.739 6 -14897478.307 6  20236270.822 0  20236272.066 0
 88  2 28  7  5 59.0800000  0  4  6  8 11  9
  -3714926.002 8  -2753226.735 7  21054530.980 0  21054532.949 0
  12449775.006 7   9886023.635 6  22705176.879 0  22705177.250 0
  -8575760.033 7  -6405438.843 6  20774134.363 0  20774136.494 0
 -19349808.022 6 -14923365.022 6  20229947.722 0  20229948.412 0
 88  2 28  7  6 29.0800000  0  4  6  8 11  9
  -3661280.154 8  -2711424.801 6  21064740.479 0  21064740.929 0
  12547632.953 7   9962276.565 6  22723798.167 0  22723799.490 0
  -8545636.974 7  -6381966.319 7  20779867.112 0  20779868.471 0
 -19382479.403 6 -14948823.241 6  20223730.534 0  20223731.589 0
 88  2 28  7  6 59.0800000  0  4  6  8 11  9
  -3607081.661 7  -2669192.232 7  21075054.048 0  21075055.025 0
  12645601.471 7  10038615.665 7  22742441.114 0  22742442.374 0
  -8515121.385 7  -6358187.952 6  20785673.428 0  20785676.494 0
 -19414598.424 7 -14973851.062 7  20217618.565 0  20217620.282 0
 88  2 28  7  7 29.0800000  0  4  6  8 11  9
  -3552331.536 7  -2626529.798 6  21085472.632 0  21085473.781 0
  12743677.279 7  10115038.356 7  22761103.990 0  22761105.847 0
  -8484215.702 7  -6334105.605 7  20791555.834 0  20791557.558 0
 -19446162.903 7 -14998446.758 6  20211612.356 0  20211614.027 0
 88  2 28  7  7 59.0800000  0  4  6  8 11  9
  -3497030.346 8  -2583437.975 6  21095995.685 0  21095997.191 0
  12841858.288 7  10191543.038 7  22779788.109 0  22779788.987 0
  -8452921.807 6  -6309720.743 7  20797510.147 0  20797512.564 0
 -19477170.736 6 -15022608.709 6  20205712.127 0  20205713.200 0
 88  2 28  7  8 29.0800000  0  4  6  8 11  9
  -3441179.228 7  -2539917.645 6  21106623.857 0  21106624.350 0
  12940141.395 7  10268127.255 7  22798490.498 0  22798492.173 0
  -8421241.798 7  -6285035.023 6  20803538.272 0  20803540.531 0
 -19507619.990 7 -15046335.386 6  20199917.792 0  20199919.827 0
 88  2 28  7  8 59.0800000  0  4  6  8 11  9
  -3384778.795 8  -2495969.280 6  21117356.727 0  21117359.052 0
  13038523.869 7  10344788.927 7  22817212.117 0  22817213.818 0
  -8389178.240 6  -6260050.459 7  20809639.402 0  20809642.452 0
 -19537508.323 6 -15069625.001 6  20194229.659 0  20194231.292 0
 88  2 28  7  9 29.0800000  0  4  6  8 11  9
  -3327829.563 7  -2451593.267 7  21128192.494 0  21128195.062 0
  13137003.806 7  10421526.520 6  22835951.901 0  22835953.505 0
  -8356732.561 6  -6234768.112 6  20815813.813 0  20815816.488 0
 -19566833.428 7 -15092475.748 6  20188650.126 0  20188651.945 0
 88  2 28  7  9 59.0800000  0  4  6  8 11  9
  -3270332.893 8  -2406790.692 6  21139134.864 0  21139136.389 0
  13235577.792 7  10498337.410 7  22854710.565 0  22854711.937 0
  -8323907.209 7  -6209189.912 6  20822060.703 0  20822063.131 0
 -19595593.560 7 -15114886.238 6  20183176.375 0  20183178.045 0
 88  2 28  7 10 29.0800000  0  4  6  8 11  9
  -3212289.304 7  -2361561.933 6  21150179.876 0  21150182.116 0
  13334243.397 7  10575219.699 7  22873485.097 0  22873487.320 0
  -8290704.024 7  -6183317.302 6  20828379.419 0  20828380.674 0
 -19623786.283 6 -15136854.601 6  20177811.161 0  20177813.557 0
 88  2 28  7 10 59.0800000  0  4  6  8 11  9
  -3153699.683 8  -2315907.701 6  21161329.661 0  21161330.872 0
  13432998.223 7  10652171.495 7  22892278.723 0  22892279.067 0
  -8257125.085 7  -6157151.892 6  20834769.264 0  20834770.905 0
 -19651409.679 7 -15158379.331 6  20172555.258 0  20172557.693 0
 88  2 28  7 11 29.0800000  0  4  6  8 11  9
  -3094565.110 7  -2269828.826 7  21172582.558 0  21172583.793 0
  13531839.481 8  10729190.634 6  22911086.931 0  22911088.434 0
  -8223172.697 7  -6130695.497 7  20841229.423 0  20841232.435 0
 -19678461.601 6 -15179458.752 6  20167407.972 0  20167408.518 0
 88  2 28  7 11 59.0800000  0  4  6  8 11  9
  -3034886.413 7  -2223325.957 6  21183939.339 0  21183941.118 0
  13630764.622 6  10806275.161 6  22929911.126 0  22929913.212 0
  -8188849.294 7  -6103949.995 6  20847760.036 0  20847763.385 0
 -19704939.976 7 -15200091.266 7  20162368.063 0  20162370.630 0
 88  2 28  7 12 29.0800000  0  4  6 13 11  9
  -2974664.362 7  -2176399.704 7  21195399.313 0  21195400.728 0
         -.427 7          .161 6  21388642.245 0          .000 0
  -8154156.755 7  -6076916.847 6  20854362.727 0  20854365.028 0
 -19730842.676 6 -15220275.188 6  20157439.928 0  20157441.256 0
 88  2 28  7 12 59.0800000  0  4  6 13 11  9
  -2913900.095 7  -2129050.928 7  21206962.645 0  21206963.907 0
    -55621.854 7  55411173.148 6  21378083.149 0  21378085.333 0
  -8119097.219 7  -6049597.727 7  20861034.313 0  20861036.139 0
 -19756167.798 6 -15240009.042 6  20152620.708 0  20152622.621 0
 88  2 28  7 13 29.0800000  0  4  6 13 11  9
  -2852594.710 7  -2081280.514 6  21218628.762 0  21218629.533 0
   -110797.539 7  55368179.099 6  21367583.505 0  21367586.584 0
  -8083672.815 7  -6021994.311 6  20867774.952 0  20867777.434 0
 -19780913.626 6 -15259291.511 6  20147912.679 0  20147913.809 0
 88  2 28  7 13 59.0800000  0  4  6 13 11  9
  -2790749.033 7  -2033089.098 7  21230397.303 0  21230398.934 0
   -165527.628 7  55325532.304 6  21357168.486 0  21357170.397 0
  -8047885.715 8  -5994108.260 7  20874586.285 0  20874588.143 0
 -19805077.660 7 -15278120.635 6  20143314.249 0  20143315.871 0
 88  2 28  7 14 29.0800000  0  4  6 13 11  9
  -2728364.605 7  -1984477.867 6  21242268.373 0  21242269.556 0
   -219811.859 7  55283232.929 7  21346837.627 0  21346841.825 0
  -8011738.351 7  -5965941.475 6  20881464.239 0  20881467.086 0
 -19828658.594 7 -15296495.383 7  20138825.081 0  20138826.533 0
 88  2 28  7 14 59.0800000  0  4  6 13 11  9
  -2665442.151 8  -1935447.394 6  21254242.291 0  21254243.125 0
   -273649.870 7  55241281.234 6  21336592.840 0  21336597.348 0
  -7975232.451 7  -5937495.333 6  20888411.379 0  20888413.633 0
 -19851654.282 7 -15314414.112 6  20134450.140 0  20134451.056 0
 88  2 28  7 15 29.0800000  0  4  6 13 11  9
  -2601982.718 7  -1885998.501 6  21266317.850 0  21266318.996 0
   -327041.456 7  55199677.425 7  21326433.938 0  21326436.228 0
  -7938370.703 7  -5908771.899 7  20895426.096 0  20895428.129 0
 -19874062.632 6 -15331875.164 6  20130185.454 0  20130186.734 0
 88  2 28  7 15 59.0800000  0  4  6 13 11  9
  -2537987.495 7  -1836132.103 6  21278496.910 0  21278496.897 0
   -379986.150 7  55158421.839 7  21316358.212 0  21316360.765 0
  -7901154.807 7  -5879772.503 6  20902508.618 0  20902510.251 0
 -19895881.779 7 -15348877.102 6  20126034.658 0  20126035.770 0
 88  2 28  7 16 29.0800000  0  4  6 13 11  9
  -2473457.669 8  -1785849.144 6  21290775.574 0  21290776.446 0
   -432484.057 7  55117514.396 6  21306368.548 0  21306370.322 0
  -7863587.495 7  -5850499.271 5  20909657.315 0  20909659.174 0
 -19917110.088 7 -15365418.648 6  20121994.929 0  20121995.517 0
 88  2 28  7 16 59.0800000  0  4  6 13 11  9
  -2408394.306 8  -1735150.438 6  21303157.093 0  21303158.052 0
   -484534.999 7  55076955.228 6  21296463.851 0  21296466.458 0
  -7825670.473 7  -5820953.547 6  20916871.640 0  20916874.066 0
 -19937745.560 6 -15381498.240 6  20118068.517 0  20118068.444 0
 88  2 28  7 17 29.0800000  0  4  6 13 11  9
  -2342798.540 8  -1684036.859 7  21315640.348 0  21315639.762 0
   -536139.020 7  55036744.334 6  21286643.332 0  21286646.600 0
  -7787405.968 7  -5791137.053 6  20924153.440 0  20924156.322 0
 -19957786.232 6 -15397114.361 6  20114254.816 0  20114256.421 0
 88  2 28  7 17 59.0800000  0  4  6 13 11  9
  -2276671.818 8  -1632509.557 7  21328222.969 0  21328226.220 0
   -587295.445 7  54996882.195 6  21276909.310 0  21276912.069 0
  -7748796.361 7  -5761051.646 7  20931500.945 0  20931503.679 0
 -19977230.484 7 -15412265.720 6  20110553.577 0  20110555.683 0
 88  2 28  7 18 29.0800000  0  4  6 13 11  9
  -2210015.060 7  -1580569.258 6  21340907.029 0  21340907.739 0
   -638004.441 7  54957368.697 7  21267258.332 0  21267261.798 0
  -7709843.802 7  -5730699.014 7  20938912.704 0  20938915.471 0
 -19996076.639 6 -15426951.032 7  20106967.819 0  20106969.265 0
 88  2 28  7 18 59.0800000  0  4  6 13 11  9
  -2142830.104 8  -1528217.346 6  21353691.565 0  21353694.158 0
   -688265.918 7  54918203.939 6  21257693.999 0  21257697.688 0
  -7670550.447 7  -5700080.811 6  20946390.424 0  20946392.832 0
 -20014322.931 7 -15441168.935 7  20103495.878 0  20103496.554 0
 88  2 28  7 19 29.0800000  0  4  6 13 11  9
  -2075117.602 7  -1475454.368 6  21366577.081 0  21366578.357 0
   -738080.079 7  54879387.726 6  21248215.992 0  21248218.106 0
  -7630918.518 7  -5669198.773 6  20953932.351 0  20953934.997 0
 -20031967.739 7 -15454918.137 6  20100138.252 0  20100138.920 0
 88  2 28  7 19 59.0800000  0  4  6 13 11  9
  -2006879.129 7  -1422281.567 7  21379562.205 0  21379563.351 0
   -787446.639 8  54840920.278 6  21238822.036 0  21238823.598 0
  -7590950.119 7  -5638054.583 6  20961537.681 0  20961540.294 0
 -20049009.194 7 -15468197.200 6  20096894.651 0  20096897.025 0
 88  2 28  7 20 29.0800000  0  4  6 13 11  9
  -1938116.069 7  -1368699.968 6  21392647.905 0  21392648.509 0
   -836365.897 7  54802801.414 6  21229512.137 0  21229513.514 0
  -7550647.616 7  -5606650.038 7  20969207.567 0  20969210.218 0
 -20065445.581 7 -15481004.756 6  20093767.249 0  20093769.836 0
 88  2 28  7 20 59.0800000  0  4  6 13 11  9
  -1868829.467 7  -1314710.418 6  21405832.197 0  21405833.689 0
   -884836.989 7  54765031.738 6  21220288.725 0  21220291.014 0
  -7510012.585 7  -5574986.386 7  20976939.865 0  20976942.384 0
 -20081275.040 6 -15493339.417 6  20090755.540 0  20090755.341 0
 88  2 28  7 21 29.0800000  0  4  6 13 11  9
  -1799020.738 7  -1260314.022 7  21419116.614 0  21419118.720 0
   -932860.285 7  54727610.999 6  21211151.006 0  21211151.753 0
  -7469047.758 7  -5543065.736 7  20984735.308 0  20984736.496 0
 -20096496.181 7 -15505200.059 5  20087857.715 0  20087859.038 0
 88  2 28  7 21 59.0800000  0  4  6 13 11  9
  -1728691.846 8  -1205512.294 7  21432499.676 0  21432501.340 0
   -980436.460 7  54690538.662 7  21202097.454 0  21202099.467 0
  -7427755.939 7  -5510890.309 6  20992593.113 0  20992595.050 0
 -20111107.870 6 -15516585.786 6  20085078.038 0  20085078.857 0
 88  2 28  7 22 29.0800000  0  4  6 13 11  9
  -1657843.816 7  -1150306.057 6  21445981.414 0  21445983.095 0
  -1027565.274 7  54653814.940 6  21193128.728 0  21193130.591 0
  -7386138.845 7  -5478461.389 7  21000512.163 0  21000514.912 0
 -20125108.234 6 -15527495.171 6  20082413.538 0  20082415.424 0
 88  2 28  7 22 59.0800000  0  4  6 13 11  9
  -1586478.086 7  -1094696.405 6  21459562.013 0  21459564.205 0
  -1074246.668 7  54617439.831 6  21184245.152 0  21184246.869 0
  -7344198.805 7  -5445780.861 7  21008493.267 0  21008495.622 0
 -20138495.289 6 -15537926.639 6  20079867.018 0  20079868.407 0
 88  2 28  7 23 29.0800000  0  4  6 13 11  9
  -1514596.061 7  -1038684.456 7  21473240.676 0  21473243.053 0
  -1120480.775 7  54581413.282 6  21175446.928 0  21175448.436 0
  -7301937.992 8  -5412850.354 6  21016535.199 0  21016537.804 0
 -20151267.894 6 -15547879.323 7  20077436.017 0  20077437.550 0
 88  2 28  7 23 59.0800000  0  4  6 13 11  9
  -1442199.514 7   -982271.576 6  21487016.966 0  21487019.116 0
  -1166267.592 7  54545735.266 6  21166734.456 0  21166735.575 0
  -7259358.617 7  -5379671.622 7  21024637.957 0  21024640.963 0
 -20163424.827 6 -15557352.270 6  20075122.308 0  20075124.142 0
 88  2 28  7 24 29.0800000  0  4  6 13 11  9
  -1369289.626 7   -925458.685 6  21500892.110 0  21500892.165 0
  -1211607.307 7  54510405.632 6  21158105.761 0  21158109.356 0
  -7216462.640 7  -5346246.196 6  21032800.318 0  21032802.713 0
 -20174963.848 7 -15566343.701 6  20072927.083 0  20072926.745 0
 88  2 28  7 24 59.0800000  0  4  6 13 11  9
  -1295868.101 7   -868247.130 6  21514863.993 0  21514864.893 0
  -1256500.391 7  54475424.029 6  21149563.781 0  21149565.398 0
  -7173252.891 7  -5312576.256 6  21041023.364 0  21041025.786 0
 -20185884.226 6 -15574853.091 6  20070846.974 0  20070849.373 0
 88  2 28  7 25 29.0800000  0  4  6 13 11  9
  -1221936.389 7   -810638.022 7  21528932.336 0  21528933.210 0
  -1300946.071 7  54440791.040 6  21141106.087 0  21141109.739 0
  -7129731.471 7  -5278663.474 6  21049304.767 0  21049306.547 0
 -20196184.253 6 -15582879.090 6  20068889.303 0  20068889.979 0
 88  2 28  7 25 59.0800000  0  4  6 13 11  9
  -1147495.828 7   -752632.398 6  21543097.739 0  21543099.919 0
  -1344945.161 7  54406506.055 6  21132732.920 0  21132735.513 0
  -7085900.278 7  -5244509.303 7  21057645.091 0  21057648.828 0
 -20205862.292 7 -15590420.415 6  20067046.958 0  20067048.245 0
 88  2 28  7 26 29.0800000  0  4  6 13 11  9
  -1072548.154 7   -694231.628 6  21557359.902 0  21557361.172 0
  -1388497.854 7  54372568.920 7  21124445.254 0  21124447.251 0
  -7041761.448 7  -5210115.393 6  21066044.824 0  21066047.373 0
 -20214916.897 7 -15597475.966 6  20065323.699 0  20065324.604 0
 88  2 28  7 26 59.0800000  0  4  6 13 11  9
   -997095.155 7   -635437.101 7  21571718.077 0  21571719.565 0
  -1431604.257 7  54338979.512 6  21116242.469 0  21116243.468 0
  -6997317.606 6  -5175483.836 6  21074502.652 0  21074504.888 0
 -20223347.328 7 -15604045.136 6  20063719.832 0  20063721.016 0
 88  2 28  7 27 29.0800000  0  4  6 13 11  9
   -921138.531 7   -576250.134 6  21586171.979 0  21586173.285 0
  -1474264.606 7  54305737.709 6  21108124.086 0  21108126.436 0
  -6952570.705 7  -5140616.123 6  21083017.691 0  21083020.196 0
 -20231152.069 6 -15610126.747 6  20062234.053 0  20062235.817 0
 88  2 28  7 27 59.0800000  0  4  6 13 11  9
   -844679.663 7   -516671.812 7  21600721.643 0  21600723.506 0
  -1516479.024 7  54272843.362 6  21100091.353 0  21100092.268 0
  -6907523.009 7  -5105514.028 6  21091590.025 0  21091591.870 0
 -20238329.570 6 -15615719.611 7  20060868.283 0  20060869.391 0
 88  2 28  7 28 29.0800000  0  4  6 13 11  9
   -767720.253 7   -456703.426 6  21615366.732 0  21615368.024 0
  -1558247.753 7  54240296.331 7  21092143.409 0  21092144.394 0
  -6862177.062 7  -5070179.514 6  21100218.819 0  21100220.732 0
 -20244878.526 6 -15620822.700 6  20059621.685 0  20059623.200 0
 88  2 28  7 28 59.0800000  0  4  6 13 11  9
   -690261.987 8   -396346.355 7  21630107.279 0  21630107.865 0
  -1599571.731 7  54208095.834 6  21084279.158 0  21084281.407 0
  -6816534.927 7  -5034614.213 7  21108903.794 0  21108906.218 0
 -20250797.882 6 -15625435.196 5  20058495.756 0  20058497.655 0
 88  2 28  7 29 29.0800000  0  4  6 13 11  9
   -612306.695 7   -335601.993 7  21644941.263 0  21644942.727 0
  -1640450.605 7  54176242.187 7  21076500.366 0  21076501.877 0
  -6770598.635 7  -4998819.700 6  21117646.200 0  21117647.897 0
 -20256086.348 6 -15629556.079 6  20057490.951 0  20057489.575 0
 88  2 28  7 29 59.0800000  0  4  6 13 11  9
   -533855.843 7   -274471.460 6  21659869.950 0  21659871.592 0
  -1680884.428 7  54144735.326 6  21068805.043 0  21068807.230 0
  -6724370.475 7  -4962797.770 7  21126442.849 0  21126444.724 0
 -20260742.649 6 -15633184.386 6  20056603.017 0  20056605.585 0
 88  2 28  7 30 29.0800000  0  4  6 13 11  9
   -454911.411 7   -212956.319 6  21674892.140 0  21674894.329 0
  -1720873.890 7  54113574.720 6  21061196.153 0  21061197.950 0
  -6677852.804 8  -4926550.200 6  21135294.412 0  21135295.793 0
 -20264765.700 6 -15636319.235 6  20055838.851 0  20055839.564 0
 88  2 28  7 30 59.0800000  0  4  6 13 11  9
   -375474.978 8   -151057.807 7  21690009.177 0  21690009.449 0
  -1760419.034 7  54082760.338 7  21053671.625 0  21053672.772 0
  -6631047.893 7  -4890078.851 7  21144201.426 0  21144203.166 0
 -20268154.539 6 -15638959.892 6  20055192.936 0  20055194.875 0
 88  2 28  7 31 29.0800000  0  4  6 13 11  9
   -295548.862 7    -88777.732 6  21705218.407 0  21705219.722 0
  -1799520.745 7  54052291.494 6  21046230.290 0  21046232.061 0
  -6583957.989 8  -4853385.413 7  21153162.152 0  21153164.533 0
 -20270908.034 7 -15641105.466 5  20054669.219 0  20054671.209 0
 88  2 28  7 31 59.0800000  0  4  6 13 11  9
   -215134.331 7    -26117.067 7  21720520.517 0  21720522.754 0
  -1838179.531 7  54022167.777 6  21038873.613 0  21038876.175 0
  -6536585.425 8  -4816471.736 6  21162176.988 0  21162179.384 0
 -20273024.880 7 -15642754.972 6  20054267.068 0  20054267.234 0
 88  2 28  7 32 29.0800000  0  4  6 13 11  9
   -134233.246 7     36922.723 7  21735915.364 0  21735917.579 0
  -1876395.189 7  53992389.359 6  21031601.596 0  21031603.059 0
  -6488932.435 7  -4779339.519 6  21171245.645 0  21171247.339 0
 -20274504.120 7 -15643907.636 7  20053985.459 0  20053986.533 0
 88  2 28  7 32 59.0800000  0  4  6 13 11  9
    -52847.527 8    100340.167 6  21751402.950 0  21751404.198 0
  -1914168.203 7  53962955.852 6  21024413.242 0  21024417.020 0
  -6441000.880 7  -4741990.255 6  21180366.504 0  21180367.283 0
 -20275344.575 6 -15644562.544 6  20053826.029 0  20053826.182 0
 88  2 28  7 33 29.0800000  0  4  6 13 11  9
     29020.851 8    164133.686 7  21766981.500 0  21766982.846 0
  -1951499.650 7  53933866.435 6  21017309.181 0  21017310.311 0
  -6392793.563 7  -4704426.107 6  21189540.077 0  21189543.383 0
 -20275545.567 6 -15644719.171 6  20053787.141 0  20053787.470 0
 88  2 28  7 33 59.0800000  0  4  6 13 11  9
    111370.061 7    228301.883 7  21782651.456 0  21782653.848 0
  -1988389.283 7  53905121.281 6  21010289.269 0  21010291.913 0
  -6344312.475 7  -4666648.630 6  21198765.716 0  21198767.776 0
 -20275105.972 6 -15644376.626 6  20053870.476 0  20053871.171 0
 88  2 28  7 34 29.0800000  0  4  6 13 11  9
    194198.023 7    292843.159 7  21798413.765 0  21798415.225 0
  -2024838.271 7  53876719.485 6  21003353.523 0  21003355.487 0
  -6295559.977 8  -4628659.669 7  21208042.888 0  21208044.196 0
 -20274024.947 6 -15643534.266 6  20054075.977 0  20054076.864 0
 88  2 28  7 34 59.0800000  0  4  6 13 11  9
    277503.128 7    357756.204 7  21814266.864 0  21814268.470 0
  -2060846.441 7  53848661.183 7  20996501.510 0  20996503.616 0
  -6246538.043 8  -4590460.762 6  21217371.303 0  21217373.652 0
 -20272301.647 6 -15642191.449 6  20054403.852 0  20054404.388 0
 88  2 28  7 35 29.0800000  0  4  6 13 11  9
    361282.931 8    423039.175 6  21830209.598 0  21830210.831 0
  -2096414.345 7  53820945.947 6  20989732.598 0  20989736.115 0
  -6197249.337 7  -4552053.981 6  21226750.144 0  21226753.566 0
 -20269935.101 6 -15640347.381 6  20054853.721 0  20054856.317 0
 88  2 28  7 35 59.0800000  0  4  6 13 11  9
    445536.012 7    488690.920 7  21846242.363 0  21846243.254 0
  -2131542.545 7  53793573.345 6  20983048.334 0  20983050.483 0
  -6147695.527 8  -4513440.623 6  21236180.599 0  21236181.765 0
 -20266924.386 5 -15638001.382 6  20055426.966 0  20055428.386 0
 88  2 28  7 36 29.0800000  0  4  6 13 11  9
    530260.370 8    554709.885 7  21862364.965 0  21862365.365 0
  -2166231.659 7  53766542.873 6  20976447.337 0  20976449.581 0
  -6097879.213 8  -4474622.713 7  21245660.038 0  21245662.156 0
 -20263268.404 6 -15635152.570 6  20056122.164 0  20056123.771 0
 88  2 28  7 36 59.0800000  0  4  6 13 11  9
    615453.645 8    621094.226 7  21878575.549 0  21878578.116 0
  -2200482.391 7  53739854.007 6  20969928.768 0  20969931.375 0
  -6047802.796 7  -4435602.111 7  21255189.927 0  21255190.506 0
 -20258966.824 6 -15631800.696 7  20056940.692 0  20056942.293 0
 88  2 28  7 37 29.0800000  0  4  6 13 11  9
    701114.071 8    687842.609 6  21894875.884 0  21894878.627 0
  -2234295.306 8  53713506.297 7  20963494.874 0  20963497.370 0
  -5997468.392 8  -4396380.510 7  21264767.912 0  21264770.145 0
 -20254018.734 6 -15627945.057 6  20057883.446 0  20057884.608 0
 88  2 28  7 37 59.0800000  0  4  6 13 11  9
    787239.529 8    754953.364 7  21911266.496 0  21911267.206 0
  -2267670.736 7  53687499.492 6  20957143.952 0  20957146.573 0
  -5946878.092 7  -4356959.488 7  21274394.911 0  21274397.255 0
 -20248423.589 6 -15623585.216 6  20058948.354 0  20058948.160 0
 88  2 28  7 38 29.0800000  0  4  6 13 11  9
    873828.115 8    822424.970 6  21927744.216 0  21927745.305 0
  -2300609.270 7  53661833.108 6  20950876.303 0  20950877.081 0
  -5896033.812 7  -4317340.569 7  21284070.139 0  21284071.903 0
 -20242180.322 6 -15618720.339 6  20060135.737 0  20060137.644 0
 88  2 28  7 38 59.0800000  0  4  6 13 11  9
    960877.865 7    890255.933 7  21944308.559 0  21944309.891 0
  -2333111.433 7  53636506.761 6  20944690.908 0  20944692.860 0
  -5844938.267 8  -4277525.861 6  21293794.289 0  21293796.013 0
 -20235288.191 6 -15613349.857 6  20061447.482 0  20061449.259 0
 88  2 28  7 39 29.0800000  0  4  6 13 11  9
   1048386.409 8    958444.409 7  21960960.322 0  21960962.185 0
  -2365178.393 7  53611519.537 6  20938589.635 0  20938591.183 0
  -5793593.561 7  -4237517.005 7  21303563.583 0  21303566.409 0
 -20227746.788 7 -15607473.447 6  20062882.502 0  20062884.267 0
 88  2 28  7 39 59.0800000  0  4  6 13 11  9
   1136351.839 8   1026988.886 8  21977700.640 0  21977700.911 0
  -2396810.267 7  53586871.335 7  20932568.939 0  20932571.480 0
  -5742001.644 7  -4197315.521 6  21313381.177 0  21313383.174 0
 -20219555.351 6 -15601090.519 6  20064441.740 0  20064442.326 0
 88  2 28  7 40 29.0800000  0  4  6 13 11  9
   1224771.995 7   1095887.703 7  21994526.463 0  21994528.380 0
  -2428008.016 8  53562561.424 6  20926632.874 0  20926633.882 0
  -5690164.985 6  -4156923.304 7  21323245.303 0  21323248.315 0
 -20210713.388 6 -15594200.670 6  20066124.375 0  20066126.735 0
 88  2 28  7 40 59.0800000  0  4  6 13 11  9
   1313644.606 8   1165139.071 7  22011438.511 0  22011438.528 0
  -2458772.251 7  53538589.293 6  20920777.679 0  20920780.409 0
  -5638085.949 7  -4116342.241 6  21333155.853 0  21333158.194 0
 -20201220.247 6 -15586803.441 6  20067930.078 0  20067930.905 0
 88  2 28  7 41 29.0800000  0  4  6 13 11  9
   1402967.590 7   1234741.386 6  22028435.420 0  22028436.449 0
  -2489103.352 7  53514954.688 6  20915006.748 0  20915008.467 0
  -5585766.493 7  -4075573.832 6  21343111.465 0  21343114.161 0
 -20191075.435 6 -15578898.413 6  20069860.423 0  20069862.215 0
 88  2 28  7 41 59.0800000  0  4  6 13 11  9
   1492738.843 7   1304693.005 7  22045517.977 0  22045518.622 0
  -2519002.453 7  53491656.710 6  20909316.548 0  20909318.572 0
  -5533208.926 7  -4034619.878 7  21353112.683 0  21353115.030 0
 -20180278.472 6 -15570485.185 6  20071915.077 0  20071916.440 0
 88  2 28  7 42 29.0800000  0  4  6 13 11  9
   1582956.230 8   1374992.234 7  22062686.434 0  22062688.223 0
  -2548469.778 7  53468695.165 6  20903709.766 0  20903711.094 0
  -5480414.922 7  -3993481.699 7  21363159.284 0  21363161.495 0
 -20168828.761 6 -15561563.357 6  20074094.842 0  20074095.314 0
 88  2 28  7 42 59.0800000  0  4  6 13 11  9
   1673617.454 7   1445637.338 7  22079939.062 0  22079940.912 0
  -2577506.694 7  53446069.016 6  20898184.324 0  20898186.004 0
  -5427387.232 7  -3952161.408 6  21373250.327 0  21373253.644 0
 -20156726.106 6 -15552132.722 6  20076395.918 0  20076399.224 0
 88  2 28  7 43 29.0800000  0  4  6 13 11  9
   1764720.187 7   1516626.460 6  22097274.406 0  22097276.213 0
  -2606113.610 7  53423777.920 6  20892739.030 0  20892742.976 0
  -5374128.065 7  -3910660.758 7  21383385.094 0  21383387.404 0
 -20143970.067 7 -15542192.955 6  20078823.769 0  20078825.327 0
 88  2 28  7 43 59.0800000  0  4  6 13 11  9
   1856262.258 7   1587957.938 6  22114694.061 0  22114695.967 0
  -2634291.414 7  53401821.211 6  20887379.081 0  20887380.689 0
  -5320639.273 7  -3868981.175 7  21393563.279 0  21393566.000 0
 -20130560.309 6 -15531743.802 6  20081376.586 0  20081377.064 0
 88  2 28  7 44 29.0800000  0  4  6 13 11  9
   1948241.310 8   1659629.893 7  22132197.972 0  22132198.230 0
  -2662041.471 7  53380197.804 7  20882096.946 0  20882099.207 0
  -5266923.790 7  -3827124.950 6  21403785.655 0  21403788.302 0
 -20116496.461 6 -15520784.968 6  20084052.484 0  20084053.148 0
 88  2 28  7 44 59.0800000  0  4  6 13 11  9
   2040655.115 8   1731640.637 7  22149783.386 0  22149785.176 0
  -2689364.197 7  53358907.374 6  20876898.794 0  20876899.558 0
  -5212983.151 8  -3785093.275 7  21414048.902 0  21414052.267 0
 -20101777.988 7 -15509316.037 6  20086853.658 0  20086854.791 0
 88  2 28  7 45 29.0800000  0  4  6 13 11  9
   2133501.498 8   1803988.447 7  22167451.107 0  22167453.423 0
  -2716259.964 8  53337949.655 7  20871779.641 0  20871782.102 0
  -5158819.663 7  -3742887.984 7  21424356.009 0  21424358.847 0
 -20086404.975 6 -15497337.076 6  20089779.141 0  20089779.062 0
 88  2 28  7 45 59.0800000  0  4  6 13 11  9
   2226778.353 8   1876671.686 7  22185201.417 0  22185203.237 0
  -2742729.554 7  53317324.019 7  20866743.166 0  20866744.697 0
  -5104435.496 7  -3700510.702 7  21434705.925 0  21434707.917 0
 -20070376.618 6 -15484847.447 6  20092829.973 0  20092830.974 0
 88  2 28  7 46 29.0800000  0  4  6 13 11  9
   2320483.003 8   1949688.268 7  22203032.300 0  22203033.591 0
  -2768774.468 7  53297029.281 6  20861787.301 0  20861789.049 0
  -5049832.559 7  -3657962.954 7  21445096.764 0  21445099.379 0
 -20053693.084 6 -15471847.294 6  20096003.355 0  20096005.188 0
 88  2 28  7 46 59.0800000  0  4  6 13 11  9
   2414613.132 7   2023036.413 7  22220944.015 0  22220946.948 0
  -2794395.490 7  53277064.861 6  20856911.373 0  20856913.768 0
  -4995013.693 7  -3615246.959 7  21455528.407 0  21455530.557 0
 -20036354.239 6 -15458336.528 6  20099304.379 0  20099304.520 0
 88  2 28  7 47 29.0800000  0  4  6 13 11  9
   2509166.706 8   2096714.503 7  22238937.583 0  22238940.193 0
  -2819593.169 7  53257430.320 6  20852116.352 0  20852117.617 0
  -4939980.672 7  -3572364.082 6  21466000.683 0  21466002.851 0
 -20018359.538 6 -15444314.690 5  20102727.523 0  20102728.508 0
 88  2 28  7 47 59.0800000  0  4  6 13 11  9
   2604141.295 8   2170720.650 6  22257010.300 0  22257012.701 0
  -2844368.595 7  53238124.805 6  20847401.276 0  20847404.109 0
  -4884735.628 7  -3529316.002 7  21476513.322 0  21476515.703 0
 -19999708.965 6 -15429781.790 6  20106276.011 0  20106278.513 0
 88  2 28  7 48 29.0800000  0  4  6 13 11  9
   2699534.664 7   2245053.133 7  22275163.279 0  22275164.812 0
  -2868722.395 7  53219147.839 6  20842767.632 0  20842769.624 0
  -4829280.546 7  -3486104.253 7  21487065.363 0  21487067.995 0
 -19980402.220 6 -15414737.585 6  20109950.054 0  20109950.992 0
 88  2 28  7 48 59.0800000  0  4  6 13 11  9
   2795344.157 7   2319709.850 7  22293395.273 0  22293398.086 0
  -2892656.202 7  53200498.135 6  20838213.479 0  20838215.708 0
  -4773617.786 7  -3442730.673 7  21497657.733 0  21497660.628 0
 -19960439.527 6 -15399182.254 6  20113750.846 0  20113750.631 0
 88  2 28  7 49 29.0800000  0  4  6 13 11  9
   2891567.436 8   2394689.017 7  22311706.311 0  22311708.804 0
  -2916170.178 7  53182175.564 6  20833738.812 0  20833741.327 0
  -4717749.464 7  -3399196.918 6  21508290.545 0  21508292.947 0
 -19939820.873 6 -15383115.781 5  20117673.169 0  20117673.666 0
 88  2 28  7 49 59.0800000  0  4  6 13 11  9
   2988202.108 7   2469988.751 7  22330095.421 0  22330097.273 0
  -2939264.887 8  53164179.697 6  20829343.461 0  20829345.322 0
  -4661677.566 7  -3355504.533 7  21518959.895 0  21518962.176 0
 -19918546.177 6 -15366538.107 6  20121721.567 0  20121722.443 0
 88  2 28  7 50 29.0800000  0  4  6 13 11  9
   3085245.748 8   2545607.152 7  22348563.443 0  22348562.510 0
  -2961942.105 7  53146509.141 6  20825028.539 0  20825029.900 0
  -4605404.546 7  -3311655.441 7  21529669.147 0  21529670.832 0
 -19896615.524 6 -15349449.287 6  20125895.459 0  20125895.333 0
 88  2 28  7 50 59.0800000  0  4  6 13 11  9
   3182695.891 7   2621542.280 7  22367105.580 0  22367108.339 0
  -2984203.038 8  53129162.975 7  20820791.491 0  20820792.667 0
  -4548932.457 7  -3267651.219 7  21540414.513 0  21540415.773 0
 -19874028.782 6 -15331849.240 5  20130193.610 0  20130193.889 0
 88  2 28  7 51 29.0800000  0  4  6 13 11  9
   3280550.232 7   2697792.425 7  22385726.934 0  22385729.887 0
  -3006047.521 7  53112141.314 6  20816635.073 0  20816637.340 0
  -4492262.794 8  -3223493.036 6  21551198.929 0  21551200.261 0
 -19850785.940 6 -15313737.954 6  20134616.293 0  20134616.248 0
 88  2 28  7 51 59.0800000  0  4  6 13 11  9
   3378806.334 8   2774355.585 7  22404427.159 0  22404426.898 0
  -3027477.539 7  53095442.615 6  20812557.572 0  20812559.847 0
  -4435398.231 8  -3179182.993 7  21562019.520 0  21562022.246 0
 -19826886.938 6 -15295115.378 6  20139163.589 0  20139165.691 0
 88  2 28  7 52 29.0800000  0  4  6 13 11  9
   3477461.749 7   2851229.925 7  22423197.912 0  22423199.749 0
  -3048493.318 8  53079066.680 6  20808557.915 0  20808559.489 0
  -4378340.606 7  -3134722.495 7  21572876.950 0  21572879.730 0
 -19802332.010 6 -15275981.668 5  20143836.469 0  20143837.075 0
 88  2 28  7 52 59.0800000  0  4  6 13 11  9
   3576513.666 8   2928413.206 7  22442047.709 0  22442050.026 0
  -3069096.805 8  53063012.034 6  20804637.254 0  20804639.088 0
  -4321092.437 7  -3090113.527 7  21583770.741 0  21583773.433 0
 -19777121.806 6 -15256337.360 6  20148633.831 0  20148634.859 0
 88  2 28  7 53 29.0800000  0  4  6 13 11  9
   3675959.768 8   3005903.658 7  22460971.781 0  22460973.604 0
  -3089288.579 7  53047278.189 6  20800794.937 0  20800797.531 0
  -4263655.734 7  -3045357.670 7  21594700.545 0  21594702.069 0
 -19751256.227 7 -15236182.367 6  20153555.414 0  20153556.972 0
 88  2 28  7 53 59.0800000  0  4  6 13 11  9
   3775797.382 7   3083699.173 7  22479969.793 0  22479972.028 0
  -3109069.710 7  53031864.340 7  20797030.591 0  20797032.128 0
  -4206032.542 7  -3000456.465 7  21605667.154 0  21605668.163 0
 -19724735.464 7 -15215516.844 7  20158603.032 0  20158602.398 0
 88  2 28  7 54 29.0800000  0  4  6 13 11  9
   3876023.987 7   3161797.814 7  22499043.373 0  22499044.873 0
  -3128441.331 7  53016769.582 6  20793344.420 0  20793346.627 0
  -4148224.919 7  -2955411.554 7  21616667.161 0  21616668.978 0
 -19697560.027 7 -15194341.204 5  20163774.973 0  20163776.180 0
 88  2 28  7 54 59.0800000  0  4  6 13 11  9
   3976637.400 7   3240197.850 7  22518187.722 0  22518191.952 0
  -3147404.739 8  53001992.907 6  20789736.030 0  20789738.164 0
  -4090234.871 8  -2910224.514 7  21627701.947 0  21627704.163 0
 -19669729.888 7 -15172655.376 5  20169069.842 0  20169071.237 0
 88  2 28  7 55 29.0800000  0  4  6 13 11  9
   4077634.677 7   3318897.012 6  22537406.479 0  22537408.962 0
  -3165961.246 7  52987533.310 6  20786204.424 0  20786205.945 0
  -4032064.922 8  -2864897.275 7  21638771.775 0  21638773.395 0
 -19641245.622 6 -15150459.879 5  20174490.190 0  20174490.832 0
 88  2 28  7 55 59.0800000  0  4  6 13 11  9
   4179013.258 7   3397893.270 7  22556699.368 0  22556701.463 0
  -3184111.388 7  52973390.349 6  20782750.831 0  20782753.650 0
  -3973716.736 8  -2819431.154 7  21649874.751 0  21649876.402 0
 -19612107.496 7 -15127754.831 6  20180034.414 0  20180035.355 0
 88  2 28  7 56 29.0800000  0  4  6 13 11  9
   4280770.644 7   3477184.729 7  22576062.567 0  22576065.961 0
  -3201856.761 7  52959562.789 6  20779372.849 0  20779376.342 0
  -3915192.419 8  -2773827.772 7  21661011.627 0  21661012.662 0
 -19582315.807 7 -15104540.556 5  20185703.863 0  20185704.857 0
 88  2 28  7 56 59.0800000  0  4  6 13 11  9
   4382904.318 8   3556769.391 6  22595499.842 0  22595499.953 0
  -3219197.810 7  52946050.290 6  20776074.109 0  20776075.018 0
  -3856493.835 7  -2728088.611 7  21672181.981 0  21672183.730 0
 -19551870.949 6 -15080817.296 6  20191497.250 0  20191499.016 0
 88  2 28  7 57 29.0800000  0  4  6 13 11  9
   4485411.759 8   3636645.294 6  22615005.795 0  22615006.178 0
  -3236135.801 7  52932851.884 6  20772850.109 0  20772852.959 0
  -3797623.245 8  -2682215.422 6  21683384.437 0  21683385.945 0
 -19520773.411 7 -15056585.450 6  20197416.052 0  20197416.407 0
 88  2 28  7 57 59.0800000  0  4  6 13 11  9
   4588290.149 7   3716810.248 7  22634580.489 0  22634584.636 0
  -3252672.079 7  52919966.472 7  20769703.892 0  20769706.259 0
  -3738582.532 7  -2636209.671 7  21694619.148 0  21694622.092 0
 -19489023.594 6 -15031845.357 6  20203456.482 0  20203458.741 0
 88  2 28  7 58 29.0800000  0  4  6 13 11  9
   4691537.004 7   3797262.343 7  22654230.107 0  22654230.147 0
  -3268808.021 8  52907393.025 6  20766633.558 0  20766634.822 0
  -3679373.709 7  -2590072.924 6  21705885.433 0  21705888.863 0
 -19456622.034 6 -15006597.395 5  20209623.627 0  20209624.538 0
 88  2 28  7 58 59.0800000  0  4  6 13 11  9
   4795149.992 7   3877999.683 7  22673945.913 0  22673948.420 0
  -3284543.903 7  52895131.315 6  20763638.548 0  20763641.369 0
  -3619998.845 7  -2543806.797 6  21717184.331 0  21717187.389 0
 -19423568.984 7 -14980841.771 6  20215912.637 0  20215912.692 0
 88  2 28  7 59 29.0800000  0  4  6 13 11  9
   4899126.106 7   3959020.041 7  22693731.193 0  22693735.057 0
  -3299881.725 7  52883179.774 6  20760719.874 0  20760721.894 0
  -3560460.100 7  -2497412.971 7  21728514.937 0  21728517.128 0
 -19389865.214 7 -14954579.109 6  20222326.889 0  20222327.361 0
 88  2 28  7 59 59.0800000  0  4  6 13 11  9
   5003462.885 7   4040321.402 6  22713589.840 0  22713588.079 0
  -3314822.942 7  52871537.273 7  20757876.968 0  20757879.519 0
  -3500759.274 8  -2450892.842 6  21739875.013 0  21739877.233 0
 -19355511.207 6 -14927809.758 6  20228863.116 0  20228865.693 0
 88  2 28  8  0 29.0800000  0  4  3 13 11  9
          .054 6         -.098 6          .000 0          .000 0
  -3329368.486 5  52860203.091 5  20755108.785 0  20755111.179 0
  -3440898.430 7  -2404248.032 6  21751266.332 0  21751269.370 0
 -19320507.772 6 -14900534.366 5  20235525.233 0  20235525.440 0
 88  2 28  8  0 59.0800000  0  4  3 13 11  9
    -78369.921 7  84173295.513 6  24080146.998 0  24080152.293 0
  -3343519.784 7  52849176.117 6  20752415.830 0  20752418.913 0
  -3380879.836 6  -2357480.294 7  21762687.336 0  21762689.276 0
 -19284855.792 6 -14872753.610 6  20242308.245 0  20242310.473 0
 88  2 28  8  1 29.0800000  0  4  3 13 11  9
   -156514.424 7  84112403.776 6  24065275.579 0  24065278.886 0
  -3357277.615 8  52838455.750 6  20749797.362 0  20749798.978 0
  -3320705.072 6  -2310590.871 7  21774138.065 0  21774141.545 0
 -19248555.757 6 -14844467.882 6  20249216.644 0  20249218.120 0
 88  2 28  8  1 59.0800000  0  4  3 13 11  9
   -234433.776 7  84051687.397 6  24050448.896 0  24050449.982 0
  -3370643.362 7  52828040.886 6  20747254.871 0  20747256.020 0
  -3260376.430 7  -2263581.556 7  21785618.118 0  21785621.394 0
 -19211608.408 7 -14815677.746 6  20256247.164 0  20256249.092 0
 88  2 28  8  2 29.0800000  0  4  3 13 11  9
   -312127.428 6  83991146.912 6  24035663.981 0  24035668.042 0
  -3383618.808 7  52817930.156 6  20744785.648 0  20744787.329 0
  -3199895.892 7  -2216453.860 6  21797127.283 0  21797130.884 0
 -19174014.299 6 -14786383.652 6  20263401.257 0  20263403.876 0
 88  2 28  8  2 59.0800000  0  4  3 13 11  9
   -389595.033 7  83930782.572 7  24020924.202 0  24020927.116 0
  -3396205.088 7  52808122.682 7  20742389.992 0  20742392.397 0
  -3139265.490 7  -2169209.394 7  21808665.505 0  21808667.801 0
 -19135774.437 6 -14756586.358 5  20270677.567 0  20270680.080 0
 88  2 28  8  3 29.0800000  0  4  3 13 11  9
   -466836.343 7  83870594.510 6  24006222.294 0  24006226.250 0
  -3408403.157 8  52798617.700 6  20740068.268 0  20740071.292 0
  -3078486.843 6  -2121849.424 7  21820231.526 0  21820232.521 0
 -19096889.536 7 -14726286.453 6  20278077.136 0  20278079.216 0
 88  2 28  8  3 59.0800000  0  4  3 13 11  9
   -543851.467 6  83810582.798 7  23991570.967 0  23991571.176 0
  -3420214.379 7  52789414.159 6  20737822.275 0  20737824.217 0
  -3017562.130 7  -2074375.622 6  21831824.309 0  21831827.371 0
 -19057360.279 6 -14695484.444 6  20285600.977 0  20285600.480 0
 88  2 28  8  4 29.0800000  0  4  3 13 11  9
   -620638.905 7  83750748.401 6  23976959.170 0  23976960.441 0
  -3431639.378 7  52780511.573 6  20735647.077 0  20735650.459 0
  -2956492.993 7  -2026789.282 7  21843445.233 0  21843448.878 0
 -19017187.636 7 -14664181.085 6  20293244.794 0  20293245.907 0
 88  2 28  8  4 59.0800000  0  4  3 13 11  9
   -697198.624 7  83691091.470 7  23962389.022 0  23962391.399 0
  -3442680.350 7  52771908.231 6  20733546.024 0  20733548.502 0
  -2895281.830 7  -1979092.281 7  21855092.642 0  21855096.315 0
 -18976372.203 7 -14632376.870 6  20301010.548 0  20301013.343 0
 88  2 28  8  5 29.0800000  0  4  3 13 11  9
   -773530.436 7  83631612.148 6  23947862.273 0  23947864.447 0
  -3453338.623 8  52763603.101 6  20731518.515 0  20731519.919 0
  -2833930.640 7  -1931286.163 7  21866768.538 0  21866770.765 0
 -18934915.331 7 -14600072.837 6  20308901.035 0  20308902.494 0
 88  2 28  8  5 59.0800000  0  4  3 13 11  9
   -849634.285 6  83572310.480 6  23933380.373 0  23933383.487 0
  -3463614.869 7  52755595.649 7  20729562.958 0  20729564.832 0
  -2772441.035 7  -1883372.202 7  21878469.593 0  21878472.956 0
 -18892817.816 7 -14567269.584 6  20316910.693 0  20316912.999 0
 88  2 28  8  6 29.0800000  0  4  3 13 11  9
   -925509.411 6  83513186.995 6  23918939.718 0  23918945.085 0
  -3473510.674 7  52747884.636 7  20727679.542 0  20727681.673 0
  -2710814.819 7  -1835351.781 7  21890196.138 0  21890199.034 0
 -18850080.487 7 -14533967.782 5  20325044.039 0  20325044.576 0
 88  2 28  8  6 59.0800000  0  4  3 13 11  9
  -1001155.689 7  83454241.842 6  23904546.708 0  23904549.441 0
  -3483027.945 7  52740468.590 6  20725868.457 0  20725870.888 0
  -2649054.135 7  -1787226.584 7  21901949.537 0  21901951.431 0
 -18806704.703 6 -14500168.483 6  20333298.842 0  20333300.290 0
 88  2 28  8  7 29.0800000  0  4  3 13 11  9
  -1076572.998 7  83395475.133 7  23890196.132 0  23890200.469 0
  -3492167.710 7  52733346.703 7  20724128.940 0  20724130.630 0
  -2587160.885 7  -1738998.080 7  21913727.769 0  21913730.131 0
 -18762691.225 7 -14465872.265 6  20341673.953 0  20341674.370 0
 88  2 28  8  7 59.0800000  0  4  3 13 11  9
  -1151760.871 7  83336887.181 6  23875886.313 0  23875890.424 0
  -3500931.236 7  52726517.994 6  20722461.536 0  20722463.423 0
  -2525137.034 7  -1690667.816 7  21925530.170 0  21925533.462 0
 -18718041.294 7 -14431080.125 6  20350170.266 0  20350172.141 0
 88  2 28  8  8 29.0800000  0  4  3 13 11  9
  -1226719.098 7  83278478.133 6  23861624.272 0  23861626.045 0
  -3509319.876 7  52719981.405 7  20720865.271 0  20720867.765 0
  -2462983.996 8  -1642236.878 7  21937357.097 0  21937360.407 0
 -18672755.754 6 -14395792.692 6  20358788.133 0  20358789.216 0
 88  2 28  8  8 59.0800000  0  4  3 13 11  9
  -1301447.614 7  83220248.143 6  23847403.571 0  23847406.003 0
  -3517335.565 7  52713735.420 6  20719339.368 0  20719342.595 0
  -2400704.371 7  -1593707.318 7  21949209.266 0  21949211.779 0
 -18626836.169 7 -14360011.211 6  20367525.929 0  20367527.382 0
 88  2 28  8  9 29.0800000  0  4  3 13 11  9
  -1375945.600 7  83162197.772 7  23833229.459 0  23833231.691 0
  -3524979.752 7  52707778.920 6  20717885.188 0  20717887.387 0
  -2338299.550 7  -1545080.181 7  21961084.481 0  21961086.336 0
 -18580283.472 7 -14323736.401 6  20376385.438 0  20376386.533 0
 88  2 28  8  9 59.0800000  0  4  3 13 11  9
  -1450212.808 6  83104327.198 6  23819091.768 0  23819096.240 0
  -3532252.757 7  52702111.652 6  20716500.665 0  20716504.132 0
  -2275771.350 7  -1496356.926 6  21972983.976 0  21972985.603 0
 -18533098.425 6 -14286968.829 6  20385364.274 0  20385364.510 0
 88  2 28  8 10 29.0800000  0  4  3 13 11  9
  -1524249.186 7  83046636.495 8  23805007.158 0  23805010.905 0
  -3539156.837 6  52696731.855 7  20715187.808 0  20715189.329 0
  -2213121.722 7  -1447539.030 7  21984904.764 0  21984906.762 0
 -18485282.647 7 -14249709.793 6  20394463.123 0  20394463.924 0
 88  2 28  8 10 59.0800000  0  4  3 13 11  9
  -1598054.553 7  82989125.825 6  23790964.372 0  23790965.205 0
  -3545693.142 7  52691638.630 6  20713942.839 0  20713946.427 0
  -2150352.509 7  -1398627.954 7  21996849.468 0  21996851.208 0
 -18436837.171 6 -14211960.088 7  20403682.546 0  20403682.669 0
 88  2 28  8 11 29.0800000  0  4  3 13 11  9
  -1671628.979 6  82931795.145 7  23776960.786 0  23776963.143 0
  -3551863.321 7  52686830.720 7  20712769.452 0  20712771.963 0
  -2087465.495 7  -1349625.097 7  22008817.063 0  22008818.761 0
 -18387763.571 7 -14173720.914 6  20413020.029 0  20413019.878 0
 88  2 28  8 11 59.0800000  0  4  3 13 11  9
  -1744971.544 7  82874645.070 6  23763002.568 0  23763006.643 0
  -3557668.677 7  52682307.073 6  20711664.571 0  20711666.669 0
  -2024462.539 7  -1300531.875 7  22020805.458 0  22020808.055 0
 -18338063.064 7 -14134993.269 6  20422478.165 0  20422479.285 0
 88  2 28  8 12 29.0800000  0  4  3 13 11  9
  -1818082.179 7  82817675.771 7  23749089.915 0  23749094.165 0
  -3563110.933 7  52678066.366 6  20710629.215 0  20710632.009 0
  -1961345.205 7  -1251349.555 6  22032817.232 0  22032818.990 0
 -18287736.922 7 -14095778.085 6  20432054.072 0  20432055.739 0
 88  2 28  8 12 59.0800000  0  4  3 13 11  9
  -1890960.871 7  82760887.195 6  23735224.365 0  23735225.728 0
  -3568191.407 7  52674107.552 6  20709662.429 0  20709664.593 0
  -1898115.468 7  -1202079.634 6  22044848.687 0  22044849.501 0
 -18236786.300 7 -14056076.317 6  20441750.495 0  20441751.804 0
 88  2 28  8 13 29.0800000  0  4  3 13 11  9
  -1963607.259 7  82704279.638 7  23721398.180 0  23721399.524 0
  -3572911.000 7  52670429.958 6  20708764.092 0  20708766.228 0
  -1834775.176 8  -1152723.552 7  22056901.871 0  22056904.769 0
 -18185212.829 7 -14015889.211 6  20451563.937 0  20451566.313 0
 88  2 28  8 13 59.0800000  0  4  3 13 11  9
  -2036021.099 7  82647853.269 6  23707617.862 0  23707622.494 0
  -3577271.686 7  52667032.025 6  20707933.953 0  20707936.802 0
  -1771325.913 7  -1103282.569 6  22068975.885 0  22068978.856 0
 -18133017.494 7 -13975217.522 6  20461496.929 0  20461497.710 0
 88  2 28  8 14 29.0800000  0  4  3 13 11  9
  -2108202.431 7  82591608.067 7  23693881.422 0  23693884.872 0
  -3581274.983 7  52663912.588 6  20707172.086 0  20707175.338 0
  -1707769.741 7  -1053758.287 6  22081070.485 0  22081071.520 0
 -18080202.025 6 -13934062.624 6  20471547.492 0  20471548.097 0
 88  2 28  8 14 59.0800000  0  4  3 13 11  9
  -2180151.244 7  82535544.131 7  23680192.322 0  23680193.953 0
  -3584922.244 7  52661070.574 6  20706478.577 0  20706480.292 0
  -1644108.646 7  -1004152.236 6  22093184.430 0  22093186.050 0
 -18026767.746 7 -13892425.526 6  20481714.591 0  20481717.213 0
 88  2 28  8 15 29.0800000  0  4  3 13 11  9
  -2251867.335 7  82479661.432 7  23666545.847 0  23666548.310 0
  -3588215.250 7  52658504.605 7  20705851.594 0  20705854.577 0
  -1580344.370 7   -954465.797 6  22105317.689 0  22105321.050 0
 -17972716.863 7 -13850307.979 6  20492000.771 0  20492001.907 0
 88  2 28  8 15 59.0800000  0  4  3 13 11  9
  -2323350.462 7  82423960.325 7  23652942.873 0  23652942.525 0
  -3591155.511 7  52656213.508 6  20705292.302 0  20705294.084 0
  -1516478.411 7   -904700.124 7  22117471.540 0  22117473.379 0
 -17918050.162 8 -13807710.548 6  20502402.804 0  20502406.613 0
 88  2 28  8 16 29.0800000  0  4  3 13 11  9
  -2394600.642 6  82368440.755 7  23639381.061 0  23639386.454 0
  -3593744.419 7  52654196.183 6  20704799.772 0  20704802.194 0
  -1452512.422 7   -854856.499 6  22129643.634 0  22129645.987 0
 -17862769.216 6 -13764634.497 6  20512923.557 0  20512925.615 0
 88  2 28  8 16 59.0800000  0  4  3 13 11  9
  -2465617.858 7  82313102.621 6  23625871.244 0  23625871.671 0
  -3595983.497 8  52652451.459 7  20704373.742 0  20704375.921 0
  -1388448.332 7   -804936.434 7  22141835.370 0  22141836.760 0
 -17806876.062 7 -13721081.395 6  20523559.687 0  20523560.539 0
 88  2 28  8 17 29.0800000  0  4  3 13 11  9
  -2536401.724 6  82257946.437 7  23612398.373 0  23612400.832 0
  -3597874.076 7  52650978.293 7  20704013.568 0  20704015.247 0
  -1324287.711 7   -754941.149 6  22154044.449 0  22154045.436 0
 -17750371.663 7 -13677052.010 6  20534311.739 0  20534312.931 0
 88  2 28  8 17 59.0800000  0  4  3 13 11  9
  -2606951.456 7  82202972.582 6  23598976.036 0  23598977.699 0
  -3599417.813 7  52649775.398 6  20703720.288 0  20703723.119 0
  -1260032.178 6   -704871.902 7  22166272.528 0  22166273.623 0
 -17693258.336 7 -13632548.123 6  20545179.779 0  20545179.352 0
 88  2 28  8 18 29.0800000  0  4  3 13 11  9
  -2677267.406 7  82148180.981 6  23585594.526 0  23585595.565 0
  -3600615.898 7  52648841.832 6  20703491.674 0  20703494.542 0
  -1195683.313 7   -654729.927 7  22178517.052 0  22178519.131 0
 -17635536.907 7 -13587570.405 6  20556164.981 0  20556164.415 0
 88  2 28  8 18 59.0800000  0  4  3 13 11  9
  -2747349.711 7  82093571.413 7  23572256.109 0  23572259.704 0
  -3601470.500 7  52648175.932 6  20703329.858 0  20703331.880 0
  -1131243.183 7   -604516.838 7  22190778.908 0  22190781.082 0
 -17577209.897 7 -13542120.792 5  20567263.584 0  20567265.625 0
 88  2 28  8 19 29.0800000  0  4  3 13 11  9
  -2817198.155 7  82039144.015 7  23558964.157 0  23558969.327 0
  -3601982.554 7  52647776.934 6  20703231.211 0  20703233.803 0
  -1066713.034 7   -554233.620 7  22203059.408 0  22203062.178 0
 -17518278.115 7 -13496199.942 6  20578477.964 0  20578478.069 0
 88  2 28  8 19 59.0800000  0  4  3 13 11  9
  -2886812.900 8  81984898.805 6  23545719.701 0  23545720.034 0
  -3602153.779 7  52647643.523 6  20703199.803 0  20703201.727 0
  -1002094.923 7   -503881.844 6  22215355.710 0  22215357.974 0
 -17458743.836 7 -13449809.615 6  20589807.784 0  20589808.194 0
 88  2 28  8 20 29.0800000  0  4  3 13 11  9
  -2956193.662 7  81930835.893 7  23532513.982 0  23532517.291 0
  -3601985.996 7  52647774.267 6  20703231.655 0  20703232.264 0
   -937390.567 7   -453462.875 7  22227668.157 0  22227671.273 0
 -17398608.723 7 -13402951.086 6  20601250.033 0  20601252.347 0
 88  2 28  8 20 59.0800000  0  4  3 13 11  9
  -3025340.210 7  81876955.454 6  23519358.649 0  23519360.604 0
  -3601481.197 6  52648167.621 6  20703327.649 0  20703329.970 0
   -872601.284 7   -402977.721 7  22239998.019 0  22239999.685 0
 -17337874.562 7 -13355625.771 6  20612808.112 0  20612808.220 0
 88  2 28  8 21 29.0800000  0  4  3 13 11  9
  -3094252.903 7  81823257.272 7  23506240.371 0  23506244.387 0
  -3600640.531 7  52648822.702 6  20703487.440 0  20703490.239 0
   -807728.709 8   -352427.664 7  22252342.216 0  22252343.646 0
 -17276543.332 7 -13307835.206 6  20624478.733 0  20624481.027 0
 88  2 28  8 21 59.0800000  0  4  3 13 11  9
  -3162931.316 7  81769741.643 6  23493175.283 0  23493177.496 0
  -3599465.106 7  52649738.629 6  20703710.807 0  20703713.288 0
   -742774.144 7   -301813.715 7  22264702.839 0  22264704.620 0
 -17214616.026 7 -13259580.182 5  20636262.602 0  20636263.825 0
 88  2 28  8 22 29.0800000  0  4  3 13 11  9
  -3231375.720 6  81716408.339 6  23480149.162 0  23480153.727 0
  -3597957.120 7  52650913.682 6  20703997.866 0  20704000.022 0
   -677739.784 8   -251137.595 7  22277078.009 0  22277080.630 0
 -17152095.362 6 -13210862.789 6  20648159.123 0  20648162.068 0
 88  2 28  8 22 59.0800000  0  4  3 13 11  9
  -3299585.877 7  81663257.599 6  23467170.868 0  23467172.142 0
  -3596117.898 7  52652346.859 6  20704347.430 0  20704349.825 0
   -612627.123 8   -200400.450 6  22289469.098 0  22289471.173 0
 -17088982.810 7 -13161684.184 6  20660170.208 0  20660172.466 0
 88  2 28  8 23 29.0800000  0  4  3 13 11  9
  -3367562.213 7  81610289.040 7  23454234.488 0  23454237.439 0
  -3593948.806 8  52654037.061 6  20704760.853 0  20704762.476 0
   -547438.044 7   -149603.778 7  22301873.758 0  22301875.233 0
 -17025280.533 7 -13112046.071 6  20672291.689 0  20672292.541 0
 88  2 28  8 23 59.0800000  0  4  3 13 11  9
  -3435304.723 7  81557502.673 6  23441343.675 0  23441345.850 0
  -3591452.292 7  52655982.404 6  20705236.265 0  20705238.055 0
   -482173.927 7    -98748.623 7  22314293.955 0  22314295.853 0
 -16960990.595 7 -13061950.021 5  20684526.093 0  20684527.911 0
 88  2 28  8 24 29.0800000  0  4  3 13 11  9
  -3502813.615 7  81504898.354 6  23428499.066 0  23428501.336 0
  -3588629.988 8  52658181.626 6  20705772.875 0  20705774.023 0
   -416836.206 7    -47836.119 7  22326726.085 0  22326728.605 0
 -16896114.742 6 -13011397.399 5  20696871.335 0  20696872.188 0
 88  2 28  8 24 59.0800000  0  4  3 13 11  9
  -3570088.379 7  81452476.474 7  23415696.334 0  23415697.777 0
  -3585482.659 8  52660634.100 6  20706371.929 0  20706373.641 0
   -351426.531 7      3132.461 7  22339174.268 0  22339177.125 0
 -16830654.936 7 -12960389.780 6  20709328.594 0  20709329.238 0
 88  2 28  8 25 29.0800000  0  4  3 13 11  9
  -3637128.983 7  81400237.038 6  23402935.548 0  23402939.824 0
  -3582011.901 8  52663338.589 6  20707032.433 0  20707034.524 0
   -285946.475 7     54155.879 7  22351634.528 0  22351636.310 0
 -16764613.598 7 -12908929.015 6  20721894.346 0  20721895.692 0
 88  2 28  8 25 59.0800000  0  4  3 13 11  9
  -3703935.581 7  81348179.990 7  23390225.361 0  23390226.177 0
  -3578219.785 7  52666293.495 7  20707753.702 0  20707756.223 0
   -220397.467 8    105233.036 6  22364107.336 0  22364109.970 0
 -16697991.849 7 -12857015.974 6  20734573.678 0  20734573.596 0
 88  2 28  8 26 29.0800000  0  4  3 13 11  9
  -3770508.398 7  81296305.051 6  23377559.445 0  23377559.440 0
  -3574107.594 8  52669497.804 7  20708536.430 0  20708538.686 0
   -154781.188 7    156362.601 7  22376593.881 0  22376596.699 0
 -16630792.521 7 -12804652.860 6  20747361.122 0  20747362.614 0
 88  2 28  8 26 59.0800000  0  4  3 13 11  9
  -3836846.839 7  81244612.762 7  23364930.847 0  23364935.957 0
  -3569677.020 8  52672950.210 6  20709380.059 0  20709381.813 0
    -89098.960 7    207543.546 7  22389092.057 0  22389095.740 0
 -16563017.160 7 -12751840.894 6  20760258.081 0  20760258.974 0
 88  2 28  8 27 29.0800000  0  4  3 13 11  9
  -3902951.806 7  81193102.417 7  23352354.907 0  23352355.135 0
  -3564930.193 7  52676649.044 6  20710282.799 0  20710284.782 0
    -23352.672 7    258774.424 7  22401604.030 0  22401606.973 0
 -16494668.087 8 -12698581.885 6  20773265.171 0  20773266.208 0
 88  2 28  8 27 59.0800000  0  4  3 13 11  9
  -3968823.210 8  81141774.066 7  23339818.249 0  23339820.341 0
  -3559868.568 7  52680593.171 6  20711245.784 0  20711249.225 0
     42456.151 8    310054.028 7  22414127.332 0  22414129.291 0
 -16425747.593 7 -12644877.618 6  20786380.047 0  20786380.645 0
 88  2 28  8 28 29.0800000  0  4  3 13 11  9
  -4034461.570 7  81090627.304 6  23327328.354 0  23327330.501 0
  -3554494.056 7  52684781.113 7  20712268.878 0  20712268.493 0
    108325.899 7    361381.104 7  22426661.208 0  22426663.628 0
 -16356257.992 7 -12590729.887 6  20799603.638 0  20799603.753 0
 88  2 28  8 28 59.0800000  0  4  3 13 11  9
  -4099866.732 7  81039662.258 7  23314880.473 0  23314885.651 0
  -3548807.595 7  52689212.127 6  20713350.954 0  20713352.078 0
    174255.474 7    412754.796 7  22439207.802 0  22439210.579 0
 -16286201.328 7 -12536140.287 5  20812935.790 0  20812936.097 0
 88  2 28  8 29 29.0800000  0  4  3 13 11  9
  -4165038.244 7  80988879.264 6  23302480.100 0  23302481.409 0
  -3542811.282 7  52693884.581 7  20714490.783 0  20714493.039 0
    240243.542 7    464174.074 6  22451765.013 0  22451766.193 0
 -16215579.454 7 -12481110.251 6  20826373.825 0  20826374.970 0
 88  2 28  8 29 59.0800000  0  4  3 13 11  9
  -4229976.681 7  80938277.892 6  23290121.174 0  23290124.556 0
  -3536507.001 7  52698797.020 6  20715691.469 0  20715692.669 0
    306288.392 7    515637.585 7  22464333.050 0  22464334.971 0
 -16144394.496 7 -12425641.463 6  20839919.476 0  20839920.212 0
 88  2 28  8 30 29.0800000  0  4  3 13 11  9
  -4294681.888 7  80887858.280 7  23277809.677 0  23277812.460 0
  -3529896.124 8  52703948.369 6  20716949.411 0  20716951.766 0
    372388.482 7    567144.145 7  22476910.302 0  22476913.243 0
 -16072648.889 8 -12369735.816 6  20853572.597 0  20853573.162 0
 88  2 28  8 30 59.0800000  0  4  3 13 11  9
  -4359153.699 7  80837620.513 7  23265541.184 0  23265543.743 0
  -3522979.779 7  52709337.723 7  20718265.682 0  20718267.410 0
    438542.533 7    618692.752 7  22489500.099 0  22489501.673 0
 -16000344.848 7 -12313395.016 6  20867331.535 0  20867331.387 0
 88  2 28  8 31 29.0800000  0  4  3 13 11  9
  -4423392.478 7  80787564.345 6  23253315.533 0  23253318.751 0
  -3515759.581 8  52714963.858 6  20719640.184 0  20719641.435 0
    504749.420 7    670282.531 6  22502098.528 0  22502101.244 0
 -15927484.550 7 -12256620.759 6  20881196.439 0  20881197.447 0
 88  2 28  8 31 59.0800000  0  4  3 13 11  9
  -4487399.226 7  80737688.973 7  23241136.445 0  23241138.269 0
  -3508238.335 7  52720824.579 6  20721070.504 0  20721072.585 0
    571006.921 7    721911.741 6  22514705.761 0  22514709.696 0
 -15854070.726 7 -12199415.189 6  20895166.312 0  20895167.809 0
 88  2 28  8 32 29.0800000  0  4  3 13 11  9
  -4551173.654 7  80687994.624 7  23229000.865 0  23229003.926 0
  -3500417.180 8  52726918.995 7  20722557.875 0  20722560.486 0
    637314.012 7    773579.619 7  22527324.958 0  22527326.178 0
 -15780105.459 8 -12141779.916 6  20909241.071 0  20909243.275 0
 88  2 28  8 32 59.0800000  0  4  3 13 11  9
  -4614715.467 7  80638481.551 6  23216906.925 0  23216911.912 0
  -3492297.570 7  52733245.967 6  20724103.731 0  20724106.427 0
    703669.229 7    825284.976 7  22539951.459 0  22539953.547 0
 -15705590.973 8 -12083716.693 6  20923420.531 0  20923422.575 0
 88  2 28  8 33 29.0800000  0  4  3 13 11  9
  -4678025.339 7  80589149.206 6  23204862.831 0  23204864.343 0
  -3483881.573 8  52739803.890 6  20725705.187 0  20725707.712 0
    770070.806 7    877026.465 6  22552587.147 0  22552589.333 0
 -15630530.115 7 -12025227.739 6  20937704.714 0  20937705.936 0
 88  2 28  8 33 59.0800000  0  4  3 13 11  9
  -4741102.966 7  80539997.820 6  23192856.912 0  23192858.595 0
  -3475170.545 7  52746591.710 7  20727362.494 0  20727364.916 0
    836518.111 7    928803.596 7  22565232.253 0  22565234.290 0
 -15554924.665 7 -11966314.403 7  20952092.403 0  20952092.776 0
 88  2 28  8 34 29.0800000  0  4  3 13 11  9
  -4803949.339 7  80491026.643 6  23180897.614 0  23180902.464 0
  -3466166.582 7  52753607.798 7  20729077.454 0  20729078.505 0
    903009.749 7    980615.264 7  22577886.203 0  22577886.662 0
 -15478777.144 7 -11906978.680 6  20966582.441 0  20966584.554 0
 88  2 28  8 34 59.0800000  0  4  3 13 11  9
  -4866564.121 7  80442235.902 6  23168983.397 0  23168985.577 0
  -3456870.566 7  52760851.453 7  20730846.445 0  20730847.521 0
    969544.130 7   1032460.226 7  22590545.766 0  22590548.113 0
 -15402089.856 8 -11847222.379 7  20981176.155 0  20981176.170 0
 88  2 28  8 35 29.0800000  0  4  3 13 11  9
  -4928947.592 8  80393625.437 7  23157112.043 0  23157115.488 0
  -3447284.738 7  52768320.932 7  20732669.897 0  20732671.517 0
   1036119.690 8   1084337.291 6  22603214.352 0  22603217.840 0
 -15324865.491 7 -11787047.543 6  20995870.622 0  20995872.145 0
 88  2 28  8 35 59.0800000  0  4  3 13 11  9
  -4991099.778 7  80345195.199 6  23145285.933 0  23145287.393 0
  -3437410.695 7  52776014.999 6  20734548.677 0  20734551.231 0
   1102735.559 7   1136245.760 7  22615891.622 0  22615893.657 0
 -15247106.313 7 -11726455.984 6  21010668.059 0  21010668.434 0
 88  2 28  8 36 29.0800000  0  4  3 13 11  9
  -5053021.278 7  80296944.670 6  23133502.121 0  23133505.499 0
  -3427250.022 7  52783932.410 6  20736482.369 0  20736483.690 0
   1169389.842 7   1188184.159 7  22628576.242 0  22628576.600 0
 -15168814.945 7 -11665449.757 6  21025566.326 0  21025567.640 0
 88  2 28  8 36 59.0800000  0  4  3 13 11  9
  -5114712.144 7  80248873.896 7  23121761.448 0  23121764.917 0
  -3416804.592 7  52792071.710 6  20738469.742 0  20738470.955 0
   1236081.278 7   1240151.525 7  22641266.297 0  22641267.738 0
 -15089993.810 7 -11604030.673 6  21040565.754 0  21040565.774 0
 88  2 28  8 37 29.0800000  0  4  3 13 11  9
  -5176172.652 8  80200982.607 6  23110067.917 0  23110069.468 0
  -3406076.047 7  52800431.621 7  20740511.066 0  20740513.222 0
   1302808.839 8   1292147.015 7  22653963.888 0  22653966.948 0
 -15010645.525 7 -11542200.864 6  21055664.931 0  21055667.851 0
 88  2 28  8 37 59.0800000  0  4  3 13 11  9
  -5237402.893 7  80153270.738 6  23098414.405 0  23098417.799 0
  -3395065.776 8  52809011.047 6  20742606.763 0  20742608.830 0
   1369571.307 7   1344169.720 7  22666669.209 0  22666671.931 0
 -14930772.495 7 -11479962.156 6  21070864.747 0  21070865.363 0
 88  2 28  8 38 29.0800000  0  4  3 13 11  9
  -5298403.058 7  80105738.173 6  23086806.215 0  23086810.800 0
  -3383775.603 7  52817808.600 6  20744755.320 0  20744758.045 0
   1436367.415 7   1396218.632 6  22679379.974 0  22679381.976 0
 -14850376.986 7 -11417316.314 7  21086162.691 0  21086165.278 0
 88  2 28  8 38 59.0800000  0  4  3 13 11  9
  -5359173.966 7  80058384.233 6  23075243.252 0  23075245.574 0
  -3372207.370 7  52826822.803 6  20746956.978 0  20746959.087 0
   1503195.683 7   1448292.609 7  22692096.391 0  22692099.852 0
 -14769462.195 7 -11354265.836 7  21101560.458 0  21101562.519 0
 88  2 28  8 39 29.0800000  0  4  3 13 11  9
  -5419715.809 7  80011208.788 7  23063722.052 0  23063725.270 0
  -3360363.065 7  52836052.142 6  20749209.931 0  20749212.870 0
   1570054.956 7   1500390.729 7  22704819.105 0  22704821.671 0
 -14688030.468 7 -11290812.555 6  21117056.489 0  21117057.571 0
 88  2 28  8 39 59.0800000  0  4  3 13 11  9
  -5480028.910 8  79964211.586 7  23052245.279 0  23052247.177 0
  -3348244.063 7  52845495.534 7  20751515.933 0  20751518.373 0
   1636943.783 7   1552511.905 6  22717547.740 0  22717549.739 0
 -14606084.538 7 -11226958.606 6  21132649.928 0  21132652.256 0
 88  2 28  8 40 29.0800000  0  4  3 13 11  9
  -5540113.025 7  79917392.814 6  23040811.335 0  23040814.082 0
  -3335851.908 8  52855151.761 6  20753875.307 0  20753877.702 0
   1703861.082 7   1604655.245 7  22730282.146 0  22730283.801 0
 -14523627.278 7 -11162706.204 6  21148341.426 0  21148343.499 0
 88  2 28  8 40 59.0800000  0  4  3 13 11  9
  -5599968.516 7  79870752.190 6  23029420.807 0  23029423.637 0
  -3323187.838 8  52865019.863 6  20756284.789 0  20756287.029 0
   1770806.012 7   1656820.103 7  22743021.394 0  22743023.211 0
 -14440660.630 7 -11098056.874 7  21164129.556 0  21164131.329 0
 88  2 28  8 41 29.0800000  0  4  3 13 11  9
  -5659595.924 7  79824289.274 6  23018074.992 0  23018077.544 0
  -3310254.263 7  52875097.993 6  20758746.588 0  20758748.471 0
   1837776.641 7   1709005.023 7  22755765.283 0  22755767.477 0
 -14357187.691 7 -11033013.026 6  21180014.088 0  21180015.310 0
 88  2 28  8 41 59.0800000  0  4  3 13 11  9
  -5718995.702 7  79778003.766 6  23006771.522 0  23006774.378 0
  -3297053.109 7  52885384.607 6  20761258.380 0  20761260.305 0
   1904772.182 7   1761209.334 7  22768514.601 0  22768516.840 0
 -14273211.057 7 -10967576.705 7  21195994.119 0  21195995.181 0
 88  2 28  8 42 29.0800000  0  4  3 13 11  9
  -5778168.136 7  79731895.394 6  22995510.423 0  22995513.293 0
  -3283585.693 7  52895878.707 6  20763820.915 0  20763823.028 0
   1971791.637 7   1813432.275 7  22781267.440 0  22781269.580 0
 -14188733.208 7 -10901749.804 6  21212069.718 0  21212071.490 0
 88  2 28  8 42 59.0800000  0  4  3 13 11  9
  -5837113.465 7  79685963.968 7  22984294.048 0  22984296.739 0
  -3269853.557 7  52906579.078 6  20766434.206 0  20766436.085 0
   2038833.346 7   1865672.569 7  22794024.342 0  22794026.317 0
 -14103757.413 7 -10835534.910 6  21228239.601 0  21228242.372 0
 88  2 28  8 43 29.0800000  0  4  3 13 11  9
  -5895832.195 7  79640209.149 7  22973119.942 0  22973123.771 0
  -3255858.677 8  52917484.177 7  20769097.564 0  20769098.570 0
   2105896.152 7   1917929.287 8  22806786.519 0  22806789.178 0
 -14018286.176 7 -10768933.954 7  21244504.971 0  21244505.753 0
 88  2 28  8 43 59.0800000  0  4  3 13 11  9
  -5954324.453 7  79594630.772 6  22961988.486 0  22961990.787 0
  -3241602.415 7  52928592.962 7  20771809.301 0  20771812.171 0
   2172979.015 7   1970201.648 7  22819551.618 0  22819555.070 0
 -13932321.672 7 -10701948.633 7  21260863.477 0  21260864.125 0
 88  2 28  8 44 29.0800000  0  4  3 13 11  9
  -6012590.595 7  79549228.594 7  22950901.743 0  22950903.513 0
  -3227086.935 7  52939903.730 6  20774572.354 0  20774574.301 0
   2240080.861 7   2022488.799 6  22832321.059 0  22832323.931 0
 -13845867.296 8 -10634581.593 6  21277314.484 0  21277316.016 0
 88  2 28  8 44 59.0800000  0  4  3 13 11  9
  -6070630.790 7  79504002.497 7  22939855.887 0  22939860.088 0
  -3212313.702 7  52951415.336 6  20777383.794 0  20777384.259 0
   2307200.697 7   2074789.964 6  22845093.555 0  22845095.125 0
 -13758925.558 7 -10566834.796 6  21293860.023 0  21293860.670 0
 88  2 28  8 45 29.0800000  0  4  3 13 11  9
  -6128445.645 7  79458952.002 6  22928856.990 0  22928856.002 0
  -3197284.214 7  52963126.633 6  20780243.474 0  20780244.466 0
   2374337.324 7   2127104.205 6  22857868.791 0  22857871.481 0
 -13671499.177 6 -10498710.342 6  21310497.023 0  21310498.329 0
 88  2 28  8 45 59.0800000  0  4  3 13 11  9
  -6186035.525 8  79414076.752 7  22917895.901 0  22917898.926 0
  -3182000.033 7  52975036.390 6  20783152.148 0  20783153.529 0
   2441489.477 7   2179430.550 6  22870647.421 0  22870650.295 0
 -13583591.267 7 -10430210.675 7  21327224.023 0  21327226.141 0
 88  2 28  8 46 29.0800000  0  4  3 13 11  9
  -6243401.021 7  79369376.415 6  22906980.093 0  22906984.578 0
  -3166463.453 7  52987142.820 7  20786108.814 0  20786110.065 0
   2508655.966 7   2231768.074 7  22883429.447 0  22883431.663 0
 -13495204.853 7 -10361338.162 6  21344043.359 0  21344045.360 0
 88  2 28  8 46 59.0800000  0  4  3 13 11  9
  -6300542.135 8  79324850.887 6  22896108.435 0  22896107.523 0
  -3150675.397 7  52999445.204 6  20789112.946 0  20789114.767 0
   2575835.819 7   2284116.016 6  22896212.858 0  22896214.993 0
 -13406342.058 8 -10292094.427 7  21360954.032 0  21360955.672 0
 88  2 28  8 47 29.0800000  0  4  3 13 11  9
  -6357459.482 7  79280499.706 7  22885273.107 0  22885277.560 0
  -3134637.949 7  53011941.908 6  20792164.167 0  20792166.890 0
   2643028.181 7   2336473.682 7  22909000.250 0  22909000.727 0
 -13317006.031 7 -10222481.938 7  21377953.630 0  21377956.011 0
 88  2 28  8 47 59.0800000  0  4  3 13 11  9
  -6414153.625 7  79236322.505 7  22874487.502 0  22874489.230 0
  -3118352.598 7  53024631.792 6  20795263.313 0  20795265.265 0
   2710231.955 7   2388840.267 7  22921788.037 0  22921790.668 0
 -13227199.719 8 -10152503.005 6  21395043.084 0  21395045.240 0
 88  2 28  8 48 29.0800000  0  4  3 13 11  9
  -6470624.341 8  79192319.335 6  22863739.573 0  22863742.295 0
  -3101821.554 7  53037513.134 6  20798409.075 0  20798411.512 0
   2777445.634 7   2441214.546 7  22934578.807 0  22934580.440 0
 -13136926.059 7 -10082159.899 6  21412221.710 0  21412222.635 0
 88  2 28  8 48 59.0800000  0  4  3 13 11  9
  -6526872.578 7  79148489.564 6  22853037.495 0  22853040.406 0
  -3085046.002 7  53050584.986 6  20801601.873 0  20801603.297 0
   2844668.595 7   2493596.075 7  22947369.516 0  22947372.651 0
 -13046187.781 8 -10011454.766 7  21429488.235 0  21429490.007 0
 88  2 28  8 49 29.0800000  0  4  3 13 11  9
  -6582898.882 8  79104832.736 6  22842377.167 0  22842377.639 0
  -3068027.839 7  53063845.897 6  20804839.658 0  20804841.609 0
   2911899.797 7   2545984.019 7  22960163.867 0  22960165.943 0
 -12954987.921 7  -9940389.941 6  21446844.037 0  21446844.968 0
 88  2 28  8 49 59.0800000  0  4  3 13 11  9
  -6638703.655 7  79061348.521 6  22831755.804 0  22831758.431 0
  -3050768.527 7  53077294.698 7  20808124.779 0  20808126.599 0
   2979137.991 7   2598377.408 6  22972958.624 0  22972961.868 0
 -12863329.236 7  -9868967.592 7  21464285.366 0  21464287.507 0
 88  2 28  8 50 29.0800000  0  4  3 13 11  9
  -6694287.081 8  79018036.791 7  22821179.204 0  22821180.435 0
  -3033270.166 8  53090929.792 7  20811454.002 0  20811456.154 0
   3046381.830 7   2650775.199 6  22985755.535 0  22985756.614 0
 -12771215.357 7  -9797190.566 6  21481814.828 0  21481816.016 0
 88  2 28  8 50 59.0800000  0  4  3 13 11  9
  -6749650.066 7  78974896.792 7  22810644.194 0  22810645.677 0
  -3015534.040 7  53104750.136 7  20814829.797 0  20814831.893 0
   3113630.698 7   2703176.905 6  22998552.719 0  22998553.512 0
 -12678648.413 7  -9725060.492 7  21499428.261 0  21499432.669 0
 88  2 28  8 51 29.0800000  0  4  3 13 11  9
  -6804792.717 7  78931928.557 6  22800149.479 0  22800153.858 0
  -2997561.641 7  53118754.613 6  20818249.207 0  20818251.218 0
   3180883.683 7   2755581.831 7  23011350.236 0  23011351.628 0
 -12585631.810 7  -9652580.031 6  21517129.084 0  21517131.584 0
 88  2 28  8 51 59.0800000  0  4  3 13 11  9
  -6859715.760 8  78889131.407 6  22789700.524 0  22789700.241 0
  -2979354.926 7  53132941.653 6  20821714.111 0  20821715.672 0
   3248139.609 7   2807989.034 6  23024148.339 0  23024150.565 0
 -12492168.358 8  -9579751.373 6  21534915.436 0  21534916.250 0
 88  2 28  8 52 29.0800000  0  4  3 13 11  9
  -6914419.283 8  78846505.290 7  22779288.383 0  22779292.773 0
  -2960915.917 7  53147309.707 6  20825222.711 0  20825225.010 0
   3315397.256 8   2860397.573 6  23036946.714 0  23036948.274 0
 -12398261.498 7  -9506577.230 7  21552784.853 0  21552787.120 0
 88  2 28  8 52 59.0800000  0  4  3 13 11  9
  -6968904.102 7  78804049.627 6  22768921.515 0  22768924.002 0
  -2942245.636 7  53161857.973 7  20828774.899 0  20828776.692 0
   3382656.129 7   2912807.104 6  23049745.873 0  23049748.253 0
 -12303913.753 7  -9433059.508 7  21570738.336 0  21570741.139 0
 88  2 28  8 53 29.0800000  0  4  3 13 11  9
  -7023170.541 7  78761764.109 6  22758594.312 0  22758595.400 0
  -2923346.200 7  53176584.805 7  20832372.290 0  20832373.570 0
   3449915.192 8   2965216.756 6  23062544.792 0  23062547.346 0
 -12209127.884 7  -9359200.410 6  21588776.636 0  21588777.870 0
 88  2 28  8 53 59.0800000  0  4  3 13 11  9
  -7077218.777 7  78719648.626 7  22748309.073 0  22748312.275 0
  -2904219.008 8  53191489.118 7  20836011.991 0  20836013.883 0
   3517173.380 7   3017625.727 6  23075344.721 0  23075345.404 0
 -12113907.450 7  -9285002.669 7  21606896.549 0  21606897.612 0
 88  2 28  8 54 29.0800000  0  4  3 13 11  9
  -7131049.444 7  78677702.673 7  22738065.312 0  22738067.486 0
  -2884865.478 8  53206569.771 6  20839695.106 0  20839696.986 0
   3584430.155 7   3070033.589 7  23088142.628 0  23088144.357 0
 -12018255.406 7  -9210468.631 6  21625098.572 0  21625100.226 0
 88  2 28  8 54 59.0800000  0  4  3 13 11  9
  -7184663.303 7  78635925.667 6  22727862.924 0  22727866.022 0
  -2865287.349 7  53221825.461 7  20843419.330 0  20843421.871 0
   3651684.286 7   3122439.404 7  23100940.541 0  23100942.603 0
 -11922174.420 8  -9135600.338 6  21643381.089 0  21643382.681 0
 88  2 28  8 55 29.0800000  0  4  3 13 11  9
  -7238060.609 7  78594317.407 6  22717702.559 0  22717704.840 0
  -2845486.711 7  53237254.530 7  20847188.559 0  20847190.398 0
   3718934.724 7   3174842.325 7  23113737.824 0  23113739.317 0
 -11825668.112 8  -9060400.633 7  21661746.199 0  21661748.180 0
 88  2 28  8 55 59.0800000  0  4  3 13 11  9
  -7291242.037 8  78552877.351 6  22707582.543 0  22707584.800 0
  -2825465.165 7  53252855.740 7  20850997.966 0  20851000.048 0
   3786180.838 7   3227241.898 7  23126534.690 0  23126535.799 0
 -11728739.327 7  -8984871.715 6  21680191.126 0  21680192.855 0
 88  2 28  8 56 29.0800000  0  4  3 13 11  9
  -7344208.262 7  78511605.010 7  22697502.680 0  22697505.353 0
  -2805223.781 7  53268628.235 6  20854849.976 0  20854851.343 0
   3853421.704 8   3279637.363 6  23139329.991 0  23139331.660 0
 -11631391.094 7  -8909015.966 7  21698716.281 0  21698717.947 0
 88  2 28  8 56 59.0800000  0  4  3 13 11  9
  -7396959.882 7  78470499.875 7  22687464.629 0  22687467.786 0
  -2784764.803 7  53284570.294 7  20858743.297 0  20858745.132 0
   3920656.168 7   3332027.847 7  23152123.938 0  23152125.528 0
 -11533626.798 7  -8832836.010 6  21717319.267 0  21717321.500 0
 88  2 28  8 57 29.0800000  0  4  3 13 11  9
  -7449496.992 7  78429561.869 6  22677466.508 0  22677470.335 0
  -2764089.239 8  53300681.128 6  20862676.820 0  20862678.761 0
   3987883.651 7   3384412.911 7  23164917.055 0  23164919.090 0
 -11435448.859 7  -8756333.722 7  21736002.416 0  21736004.966 0
 88  2 28  8 57 59.0800000  0  4  3 13 11  9
  -7501820.597 7  78388790.280 6  22667510.163 0  22667511.870 0
  -2743199.216 7  53316959.054 6  20866653.164 0  20866653.509 0
   4055103.256 7   3436791.813 7  23177708.719 0  23177711.260 0
 -11336861.089 7  -8679512.096 7  21754763.201 0  21754766.075 0
 88  2 28  8 58 29.0800000  0  4  3 13 11  9
  -7553931.351 7  78348184.512 7  22657593.539 0  22657596.997 0
  -2722096.028 7  53333403.112 6  20870669.423 0  20870670.331 0
   4122314.057 7   3489163.871 7  23190497.516 0  23190500.609 0
 -11237866.406 7  -8602373.390 6  21773601.061 0  21773601.517 0
 88  2 28  8 58 59.0800000  0  4  3 13 11  9
  -7605829.292 7  78307744.587 6  22647718.688 0  22647720.736 0
  -2700781.916 8  53350011.497 7  20874724.664 0  20874726.159 0
   4189515.218 7   3541528.392 7  23203286.577 0  23203288.286 0
 -11138468.009 7  -8524920.104 6  21792516.397 0  21792517.702 0
 88  2 28  8 59 29.0800000  0  4  3 13 11  9
  -7657515.160 7  78267469.883 6  22637882.109 0  22637883.589 0
  -2679257.753 7  53366783.579 7  20878820.185 0  20878821.594 0
   4256705.852 7   3593884.735 7  23216072.707 0  23216075.333 0
 -11038668.942 7  -8447154.598 6  21811507.001 0  21811509.726 0
 88  2 28  8 59 59.0800000  0  4  3 13 11  9
  -7708989.535 7  78227360.013 7  22628086.892 0  22628090.467 0
  -2657525.354 7  53383717.914 7  20882956.602 0  20882958.495 0
   4323885.210 7   3646232.278 6  23228855.059 0  23228858.857 0
 -10938472.744 7  -8369079.648 7  21830574.421 0  21830575.936 0
 88  2 28  9  0 29.0800000  0  4  3 13 11  9
  -7760252.640 7  78187414.770 7  22618332.700 0  22618335.367 0
  -2635586.571 7  53400813.066 6  20887130.580 0  20887133.289 0
   4391052.548 7   3698570.451 7  23241637.910 0  23241639.974 0
 -10837882.218 8  -8290697.429 7  21849716.449 0  21849717.600 0
 88  2 28  9  0 59.0800000  0  4  3 13 11  9
  -7811305.468 7  78147633.339 7  22608617.156 0  22608617.914 0
  -2613443.193 8  53418067.658 6  20891344.898 0  20891346.064 0
   4458207.002 7   3750898.586 6  23254416.771 0  23254419.920 0
 -10736900.913 7  -8212010.709 6  21868931.490 0  21868932.973 0
 88  2 28  9  1 29.0800000  0  4  3 13 11  9
  -7862148.395 8  78108015.499 7  22598943.112 0  22598944.613 0
  -2591096.574 8  53435480.610 6  20895597.059 0  20895599.645 0
   4525347.763 7   3803216.060 7  23267193.011 0  23267196.054 0
 -10635531.533 7  -8133021.595 6  21888220.473 0  21888222.903 0
 88  2 28  9  1 59.0800000  0  4  3 13 11  9
  -7912782.096 7  78068560.686 7  22589306.432 0  22589308.563 0
  -2568548.527 8  53453050.518 6  20899887.687 0  20899890.769 0
   4592474.036 7   3855522.232 7  23279966.639 0  23279969.047 0
 -10533777.552 7  -8053732.778 6  21907584.685 0  21907587.047 0
 88  2 28  9  2 29.0800000  0  4  3 13 11  9
  -7963206.998 7  78029268.576 6  22579712.986 0  22579712.182 0
  -2545800.319 7  53470776.393 6  20904216.821 0  20904218.102 0
   4659585.348 7   3907816.761 7  23292737.409 0  23292739.928 0
 -10431641.840 7  -7974146.517 7  21927020.283 0  21927022.267 0
 88  2 28  9  2 59.0800000  0  4  3 13 11  9
  -8013423.983 7  77990138.467 6  22570154.789 0  22570158.401 0
  -2522853.246 8  53488657.221 6  20908583.888 0  20908584.009 0
   4726680.969 8   3960099.054 6  23305505.616 0  23305507.371 0
 -10329127.874 7  -7894265.501 7  21946528.420 0  21946529.313 0
 88  2 28  9  3 29.0800000  0  4  3 13 11  9
  -8063433.638 7  77951169.942 6  22560639.529 0  22560640.683 0
  -2499709.318 8  53506691.456 6  20912987.543 0  20912989.268 0
   4793760.524 7   4012368.841 7  23318270.552 0  23318273.279 0
 -10226238.793 7  -7814092.215 6  21966107.473 0  21966108.730 0
 88  2 28  9  3 59.0800000  0  4  3 13 11  9
  -8113236.266 8  77912362.709 6  22551160.470 0  22551163.866 0
  -2476369.910 7  53524878.010 6  20917428.947 0  20917430.152 0
   4860822.810 7   4064625.162 7  23331031.961 0  23331035.104 0
 -10122977.756 8  -7733629.075 7  21985757.368 0  21985759.344 0
 88  2 28  9  4 29.0800000  0  4  3 13 11  9
  -8162832.873 7  77873716.020 6  22541723.920 0  22541724.720 0
  -2452836.368 7  53543215.836 6  20921907.239 0  20921909.503 0
   4927866.887 7   4116867.279 6  23343789.852 0  23343793.294 0
 -10019348.660 7  -7652879.137 7  22005476.943 0  22005479.248 0
 88  2 28  9  4 59.0800000  0  4  3 13 11  9
  -8212224.029 8  77835229.417 6  22532325.307 0  22532325.942 0
  -2429110.779 7  53561703.298 7  20926422.203 0  20926423.999 0
   4994892.317 7   4169094.887 7  23356544.619 0  23356546.231 0
  -9915354.069 8  -7571844.407 6  22025267.120 0  22025268.597 0
 88  2 28  9  5 29.0800000  0  4  3 13 11  9
  -8261410.262 7  77796902.512 7  22522965.263 0  22522967.530 0
  -2405194.373 8  53580339.470 7  20930973.156 0  20930974.781 0
   5061897.834 7   4221306.958 7  23369295.656 0  23369296.894 0
  -9810997.491 7  -7490527.609 7  22045125.999 0  22045127.587 0
 88  2 28  9  5 59.0800000  0  4  3 13 11  9
  -8310391.836 7  77758735.084 6  22513644.275 0  22513646.093 0
  -2381089.063 7  53599122.836 6  20935560.144 0  20935562.540 0
   5128883.418 7   4273503.517 7  23382042.142 0  23382045.075 0
  -9706282.129 7  -7408931.231 6  22065051.477 0  22065052.834 0
 88  2 28  9  6 29.0800000  0  4  3 13 11  9
  -8359170.015 7  77720726.122 7  22504360.679 0  22504363.193 0
  -2356795.764 8  53618052.682 6  20940183.301 0  20940185.007 0
   5195848.337 7   4325683.976 7  23394785.266 0  23394787.649 0
  -9601211.269 7  -7327057.841 6  22085046.258 0  22085047.218 0
 88  2 28  9  6 59.0800000  0  4  3 13 11  9
  -8407744.851 7  77682875.625 6  22495119.077 0  22495121.287 0
  -2332316.532 7  53637127.403 7  20944841.441 0  20944843.341 0
   5262791.946 7   4377847.796 7  23407524.854 0  23407526.162 0
  -9495788.283 7  -7244910.082 7  22105107.920 0  22105109.089 0
 88  2 28  9  7 29.0800000  0  4  3 13 11  9
  -8456117.388 8  77645182.767 7  22485911.875 0  22485916.274 0
  -2307652.596 7  53656346.047 6  20949533.891 0  20949536.326 0
   5329713.623 6   4429994.559 7  23420259.018 0  23420261.032 0
  -9390016.165 7  -7162490.251 7  22125234.958 0  22125236.828 0
 88  2 28  9  7 59.0800000  0  4  3 13 11  9
  -8504287.414 7  77607647.707 6  22476748.515 0  22476748.068 0
  -2282805.326 7  53675707.576 6  20954262.389 0  20954264.830 0
   5396612.582 7   4482123.598 7  23432990.028 0  23432991.256 0
  -9283898.319 7  -7079801.024 6  22145429.095 0  22145431.025 0
 88  2 28  9  8 29.0800000  0  4  3 13 11  9
  -8552255.904 7  77570269.650 6  22467617.847 0  22467622.599 0
  -2257776.742 7  53695210.354 6  20959025.021 0  20959027.757 0
   5463488.300 7   4534234.542 7  23445715.867 0  23445717.059 0
  -9177437.948 7  -6996844.893 6  22165687.795 0  22165689.590 0
 88  2 28  9  8 59.0800000  0  4  3 13 11  9
  -8600023.955 7  77533047.863 7  22458530.221 0  22458531.247 0
  -2232568.289 7  53714853.313 6  20963823.782 0  20963824.371 0
   5530340.134 7   4586326.872 7  23458436.769 0  23458439.737 0
  -9070638.616 7  -6913624.652 6  22186011.592 0  22186012.334 0
 88  2 28  9  9 29.0800000  0  4  3 13 11  9
  -8647591.991 7  77495981.863 6  22449476.176 0  22449477.882 0
  -2207180.993 7  53734635.632 6  20968654.019 0  20968656.479 0
   5597167.674 7   4638400.269 6  23471153.559 0  23471156.170 0
  -8963503.377 7  -6830142.666 6  22206396.660 0  22206399.694 0
 88  2 28  9  9 59.0800000  0  4  3 13 11  9
  -8694960.912 8  77459071.041 6  22440463.471 0  22440466.928 0
  -2181616.908 7  53754555.707 6  20973518.177 0  20973520.857 0
   5663970.057 7   4690454.071 7  23483865.809 0  23483867.375 0
  -8856035.684 7  -6746401.624 6  22226848.038 0  22226850.706 0
 88  2 28  9 10 29.0800000  0  4  3 13 11  9
  -8742131.145 7  77422315.064 6  22431485.845 0  22431487.524 0
  -2155877.026 7  53774612.758 6  20978416.672 0  20978418.037 0
   5730746.524 7   4742487.687 6  23496573.537 0  23496575.843 0
  -8748238.850 7  -6662404.100 6  22247360.286 0  22247362.653 0
 88  2 28  9 10 59.0800000  0  4  3 13 11  9
  -8789103.597 7  77385713.162 6  22422548.371 0  22422550.972 0
  -2129963.898 7  53794804.807 6  20983347.717 0  20983349.761 0
   5797496.541 7   4794500.687 7  23509274.842 0  23509276.437 0
  -8640116.600 8  -6578153.016 6  22267935.156 0  22267937.852 0
 88  2 28  9 11 29.0800000  0  4  3 13 11  9
  -8835878.774 7  77349265.017 6  22413647.156 0  22413649.408 0
  -2103878.304 7  53815131.261 6  20988311.320 0  20988313.477 0
   5864220.170 7   4846493.118 7  23521971.781 0  23521974.748 0
  -8531671.931 7  -6493650.676 6  22288572.345 0  22288574.621 0
 88  2 28  9 11 59.0800000  0  4  3 13 11  9
  -8882456.977 7  77312970.331 6  22404783.107 0  22404785.379 0
  -2077621.239 7  53835591.301 6  20993308.637 0  20993309.616 0
   5930916.383 7   4898464.192 7  23534663.752 0  23534666.264 0
  -8422908.142 7  -6408899.692 7  22309270.568 0  22309271.322 0
 88  2 28  9 12 29.0800000  0  4  3 13 11  9
  -8928839.267 7  77276828.325 6  22395957.931 0  22395960.490 0
  -2051195.144 7  53856183.065 6  20998336.530 0  20998338.008 0
   5997584.642 7   4950413.469 7  23547350.582 0  23547353.032 0
  -8313828.503 7  -6323902.579 6  22330028.954 0  22330029.272 0
 88  2 28  9 12 59.0800000  0  4  3 13 11  9
  -8975026.372 7  77240838.392 6  22387167.384 0  22387170.813 0
  -2024601.151 7  53876905.664 7  21003397.551 0  21003400.206 0
   6064224.680 7   5002340.769 6  23560032.429 0  23560033.215 0
  -8204436.510 7  -6238662.088 7  22350845.283 0  22350845.696 0
 88  2 28  9 13 29.0800000  0  4  3 13 11  9
  -9021019.159 7  77204999.893 6  22378417.397 0  22378417.660 0
  -1997840.278 7  53897758.286 6  21008489.734 0  21008490.869 0
   6130835.950 7   5054245.647 6  23572707.655 0  23572710.364 0
  -8094735.674 7  -6153180.936 7  22371718.935 0  22371721.056 0
 88  2 28  9 13 59.0800000  0  4  3 13 11  9
  -9066817.788 7  77169312.659 6  22369699.969 0  22369702.700 0
  -1970914.295 7  53918739.589 6  21013613.745 0  21013615.194 0
   6197417.687 7   5106127.516 7  23585376.402 0  23585378.928 0
  -7984728.988 7  -6067461.447 7  22392652.158 0  22392654.013 0
 88  2 28  9 14 29.0800000  0  4  3 13 11  9
  -9112423.530 7  77133775.783 6  22361022.524 0  22361025.685 0
  -1943824.568 7  53939848.456 6  21018769.132 0  21018770.191 0
   6263969.567 7   5157986.106 6  23598043.487 0  23598044.160 0
  -7874420.037 7  -5981506.434 7  22413642.868 0  22413645.867 0
 88  2 28  9 14 59.0800000  0  4  3 13 11  9
  -9157836.742 7  77098388.869 6  22352380.342 0  22352380.381 0
  -1916572.680 8  53961083.693 6  21023954.269 0  21023956.735 0
   6330491.376 7   5209821.277 6  23610700.813 0  23610701.721 0
  -7763812.082 7  -5895318.406 7  22434693.032 0  22434692.949 0
 88  2 28  9 15 29.0800000  0  4  3 13 11  9
  -9203057.904 7  77063151.632 6  22343775.423 0  22343778.509 0
  -1889159.356 7  53982444.722 6  21029171.067 0  21029172.295 0
   6396982.219 7   5261632.326 7  23623353.414 0  23623354.901 0
  -7652908.354 7  -5808899.956 6  22455796.772 0  22455798.390 0
 88  2 28  9 15 59.0800000  0  4  3 13 11  9
  -9248087.668 7  77028063.551 7  22335205.790 0  22335207.838 0
  -1861586.635 7  54003929.983 6  21034418.297 0  21034420.305 0
   6463441.712 7   5313418.936 7  23635999.977 0  23636002.322 0
  -7541712.306 7  -5722253.707 6  22476957.197 0  22476957.581 0
 88  2 28  9 16 29.0800000  0  4  3 13 11  9
  -9292926.995 7  76993123.830 6  22326672.341 0  22326675.410 0
  -1833856.355 7  54025537.987 6  21039694.724 0  21039697.051 0
   6529869.344 7   5365180.713 7  23648641.118 0  23648643.021 0
  -7430227.319 7  -5635382.309 7  22498170.051 0  22498172.705 0
 88  2 28  9 16 59.0800000  0  4  3 13 11  9
  -9337576.879 8  76958331.745 7  22318178.232 0  22318179.186 0
  -1805969.305 7  54047268.157 7  21045002.077 0  21045003.417 0
   6596264.756 7   5416917.401 7  23661275.771 0  23661279.205 0
  -7318456.736 7  -5548288.362 7  22519439.200 0  22519441.075 0
 88  2 28  9 17 29.0800000  0  4  3 13 11  9
  -9382037.671 7  76923686.996 6  22309715.316 0  22309717.081 0
  -1777926.999 7  54069119.299 6  21050337.892 0  21050338.541 0
   6662627.555 7   5468628.667 7  23673903.919 0  23673906.154 0
  -7206404.281 7  -5460974.756 6  22540760.981 0  22540764.834 0
 88  2 28  9 17 59.0800000  0  4  3 13 11  9
  -9426309.868 7  76889189.206 6  22301291.436 0  22301292.998 0
  -1749730.245 7  54091090.817 6  21055703.011 0  21055704.175 0
   6728957.385 7   5520314.242 6  23686525.951 0  23686529.104 0
  -7094072.904 7  -5373443.831 6  22562137.744 0  22562140.953 0
 88  2 28  9 18 29.0800000  0  4  3 13 11  9
  -9470394.642 7  76854837.474 6  22292902.319 0  22292905.502 0
  -1721381.135 7  54113181.016 6  21061097.662 0  21061099.771 0
   6795253.811 7   5571973.780 7  23699142.930 0  23699144.119 0
  -6981466.391 7  -5285698.516 6  22583566.809 0  22583569.644 0
 88  2 28  9 18 59.0800000  0  4  3 13 11  9
  -9514292.496 8  76820631.369 7  22284549.049 0  22284550.492 0
  -1692881.554 7  54135388.488 6  21066521.119 0  21066523.844 0
   6861516.153 7   5623606.756 6  23711751.389 0  23711753.538 0
  -6868587.783 7  -5197741.190 6  22605046.911 0  22605049.074 0
 88  2 28  9 19 29.0800000  0  4  3 13 11  9
  -9558004.011 7  76786570.469 6  22276230.316 0  22276232.669 0
  -1664232.348 7  54157712.536 7  21071973.694 0  21071974.702 0
   6927744.191 7   5675213.014 6  23724355.089 0  23724357.085 0
  -6755440.654 7  -5109574.595 6  22626577.961 0  22626579.824 0
 88  2 28  9 19 59.0800000  0  4  3 13 11  9
  -9601530.277 7  76752653.932 6  22267948.585 0  22267950.832 0
  -1635435.046 7  54180151.995 6  21077453.114 0  21077454.441 0
   6993937.275 7   5726792.051 7  23736950.681 0  23736953.183 0
  -6642028.728 7  -5021201.697 6  22648159.666 0  22648162.614 0
 88  2 28  9 20 29.0800000  0  4  3 13 11  9
  -9644872.282 7  76718880.954 7  22259700.363 0  22259703.046 0
  -1606491.056 7  54202705.754 7  21082960.769 0  21082962.706 0
   7060095.077 7   5778343.577 6  23749540.449 0  23749541.746 0
  -6528355.342 7  -4932625.062 6  22669791.527 0  22669793.814 0
 88  2 28  9 20 59.0800000  0  4  3 13 11  9
  -9688029.902 8  76685251.663 6  22251487.393 0  22251490.103 0
  -1577401.117 7  54225373.251 7  21088496.822 0  21088498.360 0
   7126217.657 7   5829867.655 7  23762121.917 0  23762125.084 0
  -6414423.730 7  -4843847.165 7  22691473.238 0  22691474.478 0
 88  2 28  9 21 29.0800000  0  4  3 13 11  9
  -9731004.151 7  76651765.249 6  22243310.262 0  22243312.945 0
  -1548167.177 8  54248152.935 6  21094059.564 0  21094061.803 0
   7192304.383 7   5881363.799 7  23774698.560 0  23774700.171 0
  -6300237.284 7  -4754870.738 7  22713201.730 0  22713201.830 0
 88  2 28  9 21 59.0800000  0  4  3 13 11  9
  -9773795.282 8  76618421.545 6  22235166.928 0  22235169.223 0
  -1518790.311 8  54271044.007 6  21099651.125 0  21099651.234 0
   7258355.201 7   5932831.962 7  23787268.564 0  23787269.731 0
  -6185798.809 8  -4665697.933 6  22734977.828 0  22734980.112 0
 88  2 28  9 22 29.0800000  0  4  3 13 11  9
  -9816404.594 7  76585219.490 7  22227059.015 0  22227060.596 0
  -1489271.458 8  54294045.712 7  21105267.040 0  21105269.140 0
   7324369.592 7   5984271.733 6  23799829.436 0  23799831.952 0
  -6071112.117 7  -4576331.695 7  22756801.710 0  22756803.628 0
 88  2 28  9 22 59.0800000  0  4  3 13 11  9
  -9858832.630 7  76552158.705 6  22218985.062 0  22218986.631 0
  -1459612.240 7  54317156.790 7  21110912.202 0  21110912.568 0
   7390347.407 7   6035683.023 6  23812385.151 0  23812387.264 0
  -5956180.708 7  -4486774.766 7  22778673.087 0  22778674.484 0
 88  2 28  9 23 29.0800000  0  4  3 13 11  9
  -9901080.157 7  76519238.574 6  22210945.793 0  22210947.850 0
  -1429814.320 7  54340375.935 6  21116581.263 0  21116583.330 0
   7456287.819 7   6087065.154 7  23824933.592 0  23824935.124 0
  -5841008.284 7  -4397030.041 7  22800589.527 0  22800592.274 0
 88  2 28  9 23 59.0800000  0  4  3 13 11  9
  -9943147.930 7  76486458.517 6  22202939.736 0  22202942.238 0
  -1399879.237 7  54363701.982 6  21122277.097 0  21122280.283 0
   7522191.229 7   6138418.452 7  23837473.840 0  23837477.154 0
  -5725597.881 7  -4307099.862 7  22822551.406 0  22822551.762 0
 88  2 28  9 24 29.0800000  0  4  3 13 11  9
  -9985036.969 7  76453817.731 6  22194969.311 0  22194970.363 0
  -1369807.386 7  54387134.587 7  21128001.173 0  21128002.324 0
   7588057.298 7   6189742.643 7  23850006.887 0  23850010.165 0
  -5609952.832 7  -4216986.883 7  22844558.629 0  22844560.456 0
 88  2 28  9 24 59.0800000  0  4  3 13 11  9
 -10026747.773 7  76421315.833 7  22187032.117 0  22187033.386 0
  -1339600.264 7  54410672.605 7  21133748.877 0  21133751.789 0
   7653885.404 7   6241037.270 7  23862536.252 0  23862538.308 0
  -5494076.872 7  -4126693.914 6  22866607.492 0  22866609.210 0
 88  2 28  9 25 29.0800000  0  4  3 13 11  9
 -10068281.179 7  76388952.156 6  22179129.847 0  22179129.083 0
  -1309259.172 7  54434315.007 6  21139522.697 0  21139524.574 0
   7719675.068 7   6292301.928 7  23875052.711 0  23875056.167 0
  -5377973.127 7  -4036223.515 7  22888703.372 0  22888704.171 0
 88  2 28  9 25 59.0800000  0  4  3 13 11  9
 -10109637.481 7  76356726.484 7  22171257.272 0  22171261.785 0
  -1278785.341 7  54458060.848 6  21145321.995 0  21145323.837 0
   7785426.327 8   6343536.670 7  23887565.334 0  23887567.972 0
  -5261645.000 7  -3945578.228 7  22910838.047 0  22910840.028 0
 88  2 28  9 26 29.0800000  0  4  3 13 11  9
 -10150817.555 7  76324638.146 6  22163422.558 0  22163424.687 0
  -1248180.334 7  54481908.917 6  21151145.095 0  21151146.818 0
   7851138.873 7   6394741.249 6  23900069.393 0  23900072.632 0
  -5145096.038 7  -3854760.862 7  22933017.237 0  22933019.092 0
 88  2 28  9 26 59.0800000  0  4  3 13 11  9
 -10191822.669 8  76292686.127 7  22155618.744 0  22155620.969 0
  -1217445.255 7  54505858.316 6  21156994.077 0  21156996.531 0
   7916812.544 6   6445915.551 7  23912568.205 0  23912570.065 0
  -5028329.626 7  -3763774.088 7  22955237.055 0  22955239.585 0
 88  2 28  9 27 29.0800000  0  4  3 13 11  9
 -10232653.444 7  76260869.960 6  22147849.344 0  22147851.927 0
  -1186581.448 8  54529908.037 6  21162867.230 0  21162868.563 0
   7982447.315 7   6497059.501 7  23925055.657 0  23925059.036 0
  -4911349.069 7  -3672620.393 7  22977498.362 0  22977499.285 0
 88  2 28  9 27 59.0800000  0  4  3 13 11  9
 -10273310.059 6  76229189.506 7  22140111.648 0  22140113.422 0
  -1155590.170 8  54554057.077 6  21168764.263 0  21168766.701 0
   8048042.519 7   6548172.657 7  23937539.634 0  23937542.988 0
  -4794158.239 7  -3581302.919 7  22999798.368 0  22999800.765 0
 88  2 28  9 28 29.0800000  0  4  3 13 11  9
 -10313793.057 8  76197644.344 6  22132409.542 0  22132411.642 0
  -1124472.308 7  54578304.758 7  21174686.380 0  21174687.245 0
   8113598.420 7   6599255.165 7  23950013.987 0  23950016.263 0
  -4676760.041 7  -3489823.808 6  23022138.075 0  23022140.141 0
 88  2 28  9 28 59.0800000  0  4  3 13 11  9
 -10354103.904 7  76166233.318 6  22124737.102 0  22124738.982 0
  -1093228.970 7  54602650.216 6  21180631.835 0  21180632.655 0
   8179114.366 7   6650306.541 7  23962484.063 0  23962483.859 0
  -4559158.172 7  -3398186.029 7  23044517.305 0  23044520.392 0
 88  2 28  9 29 29.0800000  0  4  3 13 11  9
 -10394243.328 7  76134955.888 6  22117100.498 0  22117102.175 0
  -1061861.557 7  54627092.357 7  21186600.918 0  21186603.142 0
   8244590.333 7   6701326.770 7  23974942.485 0  23974943.859 0
  -4441355.904 7  -3306392.067 7  23066933.357 0  23066936.401 0
 88  2 28  9 29 59.0800000  0  4  3 13 11  9
 -10434212.037 7  76103811.468 6  22109493.251 0  22109494.919 0
  -1030371.446 7  54651630.115 7  21192593.078 0  21192593.680 0
   8310025.900 7   6752315.499 6  23987392.945 0  23987395.139 0
  -4323356.756 7  -3214444.705 6  23089389.133 0  23089391.328 0
 88  2 28  9 30 29.0800000  0  4  3 13 11  9
 -10474010.460 7  76072799.740 7  22101921.685 0  22101922.214 0
   -998759.879 7  54676262.500 6  21198608.505 0  21198610.788 0
   8375421.386 7   6803273.011 6  23999837.592 0  23999841.033 0
  -4205163.829 7  -3122346.359 6  23111881.431 0  23111881.838 0
 88  2 28  9 30 59.0800000  0  4  3 13 11  9
 -10513639.475 7  76041920.004 6  22094379.127 0  22094381.155 0
   -967027.821 7  54700988.775 6  21204646.516 0  21204649.525 0
   8440776.405 7   6854198.989 7  24012274.341 0  24012277.416 0
  -4086780.725 7  -3030099.789 6  23134406.638 0  23134409.888 0
 88  2 28  9 31 29.0800000  0  4  3 13 11  9
 -10553099.450 7  76011171.996 6  22086870.350 0  22086871.806 0
   -935176.394 8  54725808.073 7  21210708.389 0  21210710.410 0
   8506090.845 7   6905093.336 7  24024703.773 0  24024705.922 0
  -3968210.566 7  -2937707.489 7  23156971.899 0  23156973.413 0
 88  2 28  9 31 59.0800000  0  4  3 13 11  9
 -10592391.726 7  75980554.661 6  22079393.556 0  22079395.862 0
   -903207.043 7  54750719.243 7  21216792.083 0  21216794.627 0
   8571364.373 7   6955955.824 7  24037124.454 0  24037125.856 0
  -3849457.194 6  -2845172.416 6  23179569.647 0  23179570.421 0
 88  2 28  9 32 29.0800000  0  4  3 13 11  9
 -10631516.967 7  75950067.495 6  22071947.745 0  22071948.148 0
   -871120.666 7  54775721.617 6  21222897.431 0  21222900.615 0
   8636596.799 7   7006786.290 7  24049539.603 0  24049540.810 0
  -3730524.058 7  -2752497.273 6  23202201.855 0  23202204.682 0
 88  2 28  9 32 59.0800000  0  4  3 13 11  9
 -10670475.945 7  75919709.880 7  22064534.062 0  22064537.189 0
   -838918.926 8  54800813.879 6  21229025.015 0  21229027.209 0
   8701788.010 6   7057584.625 6  24061941.445 0  24061945.973 0
  -3611414.785 6  -2659684.867 7  23224867.265 0  23224869.001 0
 88  2 28  9 33 29.0800000  0  4  3 13 11  9
 -10709269.005 8  75889481.543 6  22057152.109 0  22057153.245 0
   -806602.355 8  54825995.632 6  21235175.538 0  21235176.361 0
   8766938.566 7   7108351.282 7  24074341.624 0  24074343.963 0
  -3492132.260 7  -2566737.488 6  23247565.653 0  23247567.395 0
 88  2 28  9 33 59.0800000  0  4  3 13 11  9
 -10747897.140 7  75859381.725 7  22049801.094 0  22049801.938 0
   -774172.505 7  54851265.631 6  21241346.404 0  21241347.768 0
   8832047.841 7   7159085.767 7  24086730.192 0  24086733.905 0
  -3372679.928 6  -2473657.767 7  23270296.271 0  23270298.643 0
 88  2 28  9 34 29.0800000  0  4  3 13 11  9
 -10786361.260 7  75829409.705 6  22042480.975 0  22042483.759 0
   -741630.262 8  54876623.226 6  21247538.737 0  21247539.611 0
   8897115.627 6   7209787.896 7  24099111.208 0  24099115.445 0
  -3253061.635 7  -2380448.729 6  23293060.054 0  23293061.992 0
 88  2 28  9 34 59.0800000  0  4  3 13 11  9
 -10824661.914 8  75799565.071 6  22035192.497 0  22035194.576 0
   -708976.457 7  54902067.766 7  21253752.476 0  21253753.524 0
   8962141.974 7   7260457.784 6  24111488.004 0  24111489.818 0
  -3133279.928 7  -2287112.377 7  23315853.318 0  23315856.172 0
 88  2 28  9 35 29.0800000  0  4  3 13 11  9
 -10862799.538 7  75769847.455 6  22027936.162 0  22027937.492 0
   -676212.417 8  54927598.186 7  21259987.220 0  21259988.382 0
   9027126.754 7   7311095.261 6  24123854.390 0  24123854.522 0
  -3013338.609 7  -2193651.612 6  23338679.227 0  23338679.346 0
 88  2 28  9 35 59.0800000  0  4  3 13 11  9
 -10900775.378 7  75740255.911 6  22020709.482 0  22020710.429 0
   -643339.286 7  54953213.605 6  21266242.986 0  21266243.480 0
   9092069.730 7   7361700.167 6  24136211.689 0  24136213.257 0
  -2893241.339 6  -2100069.375 6  23361530.626 0  23361533.795 0
 88  2 28  9 36 29.0800000  0  4  3 13 12  9
 -10938589.931 7  75710790.067 6  22013513.605 0  22013516.275 0
   -610358.102 7  54978913.236 6  21272518.891 0  21272520.971 0
         -.163 7         -.333 6  21042131.071 0          .000 0
  -2772991.276 7  -2006368.057 7  23384413.877 0  23384414.789 0
 88  2 28  9 36 59.0800000  0  4  3 13 12  9
 -10976243.845 7  75681449.361 6  22006348.203 0  22006348.798 0
   -577269.907 8  55004696.242 6  21278815.754 0  21278816.939 0
     49310.505 7 120227134.541 6  21051545.461 0  21051548.089 0
  -2652591.757 7  -1912550.272 7  23407325.033 0  23407328.241 0
 88  2 28  9 37 29.0800000  0  4  3 13 12  9
 -11013737.794 7  75652233.302 7  21999212.566 0  21999215.438 0
   -544075.731 7  55030561.844 6  21285132.392 0  21285133.838 0
     99203.036 7 120266011.814 7  21061039.156 0  21061042.276 0
  -2532046.396 8  -1818618.858 6  23430265.211 0  23430265.161 0
 88  2 28  9 37 59.0800000  0  4  3 13 12  9
 -11051072.872 7  75623141.069 6  21992108.313 0  21992110.010 0
   -510776.711 7  55056509.114 6  21291469.070 0  21291469.797 0
    149674.787 7 120305340.441 6  21070644.113 0  21070646.762 0
  -2411358.214 7  -1724576.132 6  23453231.006 0  23453232.598 0
 88  2 28  9 38 29.0800000  0  4  3 13 12  9
 -11088249.886 7  75594171.979 6  21985033.721 0  21985035.803 0
   -477373.596 7  55082537.524 7  21297825.070 0  21297826.509 0
    200723.387 8 120345118.564 6  21080358.517 0  21080360.229 0
  -2290531.351 7  -1630425.372 6  23476224.348 0  23476225.626 0
 88  2 28  9 38 59.0800000  0  4  3 13 12  9
 -11125269.621 7  75565325.466 6  21977990.794 0  21977991.422 0
   -443868.001 7  55108645.784 6  21304200.908 0  21304203.092 0
    252347.157 7 120385344.865 7  21090181.417 0  21090184.749 0
  -2169568.596 6  -1536168.708 7  23499240.849 0  23499242.678 0
 88  2 28  9 39 29.0800000  0  4  3 13 12  9
 -11162132.793 7  75536600.935 6  21970973.164 0  21970975.825 0
   -410260.827 7  55134833.201 6  21310596.270 0  21310599.378 0
    304544.163 8 120426017.846 7  21100115.767 0  21100118.053 0
  -2048473.857 6  -1441809.177 7  23522285.120 0  23522288.070 0
 88  2 28  9 39 59.0800000  0  4  3 13 12  9
 -11198839.213 7  75507998.551 6  21963989.209 0  21963991.911 0
   -376552.540 8  55161099.395 6  21317010.337 0  21317012.515 0
    357312.641 7 120467136.120 6  21110155.835 0  21110158.457 0
  -1927249.794 7  -1347348.936 7  23545353.346 0  23545355.470 0
 88  2 28  9 40 29.0800000  0  4  3 13 12  9
 -11235390.304 7  75479517.204 7  21957034.427 0  21957036.325 0
   -342744.843 7  55187443.055 6  21323444.293 0  21323445.570 0
    410650.091 7 120508697.761 6  21120306.186 0  21120308.997 0
  -1805900.226 7  -1252790.823 7  23568445.940 0  23568446.528 0
 88  2 28  9 40 59.0800000  0  4  3 13 12  9
 -11271787.020 7  75451156.142 6  21950107.250 0  21950109.619 0
   -308838.370 8  55213863.684 6  21329896.869 0  21329897.873 0
    464554.755 7 120550701.368 6  21130563.112 0  21130565.731 0
  -1684427.835 7  -1158137.060 8  23591559.277 0  23591563.056 0
 88  2 28  9 41 29.0800000  0  4  3 13 12  9
 -11308029.983 7  75422914.906 7  21943212.193 0  21943214.250 0
   -274834.339 7  55240360.329 6  21336367.000 0  21336368.802 0
    519023.936 8 120593144.882 6  21140929.274 0  21140931.433 0
  -1562837.141 7  -1063391.090 6  23614699.273 0  23614700.677 0
 88  2 28  9 41 59.0800000  0  4  3 13 12  9
 -11344119.610 7  75394793.151 6  21936343.712 0  21936345.525 0
   -240733.019 7  55266932.787 7  21342856.058 0  21342857.466 0
    574055.638 7 120636026.717 7  21151400.989 0  21151404.140 0
  -1441130.492 7   -968554.723 6  23637857.515 0  23637860.734 0
 88  2 28  9 42 29.0800000  0  4  3 13 12  9
 -11380057.191 7  75366789.857 6  21929504.089 0  21929507.419 0
   -206535.788 7  55293579.980 7  21349364.268 0  21349364.671 0
    629647.849 8 120679345.296 6  21161980.546 0  21161981.448 0
  -1319311.532 7   -873630.896 7  23661040.835 0  23661043.293 0
 88  2 28  9 42 59.0800000  0  4  3 13 12  9
 -11415842.964 7  75338904.873 7  21922694.117 0  21922696.444 0
   -172243.823 8  55320300.993 6  21355889.832 0  21355890.547 0
    685798.136 7 120723098.750 7  21172664.736 0  21172667.317 0
  -1197384.267 7   -778622.650 6  23684240.152 0  23684243.874 0
 88  2 28  9 43 29.0800000  0  4  3 13 12  9
 -11451477.287 7  75311137.856 6  21915913.951 0  21915915.634 0
   -137857.917 7  55347095.217 6  21362432.647 0  21362434.453 0
    742504.874 7 120767285.804 6  21183455.522 0  21183458.206 0
  -1075351.097 7   -683531.868 7  23707466.406 0  23707467.796 0
 88  2 28  9 43 59.0800000  0  4  3 13 12  9
 -11486961.405 7  75283487.937 7  21909161.115 0  21909162.956 0
   -103378.796 7  55373962.048 7  21368993.720 0  21368995.094 0
    799765.658 7 120811904.586 6  21194352.040 0  21194354.217 0
   -953215.919 7   -588361.620 6  23730704.787 0  23730709.043 0
 88  2 28  9 44 29.0800000  0  4  3 13 12  9
 -11522295.886 7  75255954.596 6  21902437.925 0  21902438.980 0
    -68807.087 7  55400901.039 6  21375572.796 0  21375574.063 0
    857578.543 7 120856953.564 7  21205354.001 0  21205356.764 0
   -830981.483 8   -493114.023 6  23753966.913 0  23753969.961 0
 88  2 28  9 44 59.0800000  0  4  3 13 12  9
 -11557481.609 7  75228537.159 6  21895742.573 0  21895744.254 0
    -34144.344 7  55427910.983 7  21382169.630 0  21382169.493 0
    915940.775 7 120902430.621 6  21216459.821 0  21216462.169 0
   -708651.774 7   -397792.165 7  23777244.853 0  23777247.831 0
 88  2 28  9 45 29.0800000  0  4  3 13 12  9
 -11592518.643 7  75201235.596 6  21889074.760 0  21889075.568 0
       608.508 7  55454991.129 7  21388782.332 0  21388783.428 0
    974849.765 7 120948333.699 7  21227670.091 0  21227673.669 0
   -586229.605 7   -302398.306 7  23800541.347 0  23800545.235 0
 88  2 28  9 45 59.0800000  0  4  3 13 12  9
 -11627408.136 7  75174048.989 6  21882435.868 0  21882438.107 0
     35451.245 7  55482141.314 6  21395412.445 0  21395413.626 0
   1034303.319 7 120994661.132 7  21238983.583 0  21238985.804 0
   -463718.643 7   -206935.213 6  23823854.429 0  23823855.556 0
 88  2 28  9 46 29.0800000  0  4  3 13 12  9
 -11662151.005 7  75146976.644 6  21875823.695 0  21875825.949 0
     70382.653 8  55509360.590 6  21402059.883 0  21402062.027 0
   1094299.453 7 121041411.338 7  21250400.550 0  21250403.385 0
   -341121.665 7   -111405.071 6  23847182.164 0  23847185.265 0
 88  2 28  9 46 59.0800000  0  4  3 13 12  9
 -11696748.008 7  75120017.950 6  21869239.720 0  21869241.344 0
    105401.669 7  55536648.131 6  21408723.737 0  21408725.405 0
   1154835.272 7 121088582.088 6  21261920.002 0  21261923.181 0
   -218442.848 7    -15811.232 7  23870529.471 0  23870531.906 0
 88  2 28  9 47 29.0800000  0  4  3 13 12  9
 -11731200.075 7  75093172.206 5  21862684.680 0  21862686.054 0
    140507.575 7  55564003.392 7  21415403.955 0  21415405.758 0
   1215908.346 7 121136171.467 6  21273541.819 0  21273545.390 0
    -95685.470 7     79843.894 6  23893889.832 0  23893887.846 0
 88  2 28  9 47 59.0800000  0  4  3 13 12  9
 -11765507.535 7  75066439.130 6  21856155.750 0  21856157.106 0
    175699.284 7  55591425.498 6  21422101.080 0  21422103.369 0
   1277516.691 7 121184177.952 7  21285265.180 0  21285268.819 0
     27147.589 7    175557.947 6  23917263.033 0  23917265.287 0
 88  2 28  9 48 29.0800000  0  4  3 13 12  9
 -11799671.289 7  75039818.030 6  21849654.544 0  21849656.330 0
    210976.297 7  55618914.084 6  21428813.683 0  21428815.978 0
   1339657.375 7 121232599.240 7  21297090.692 0  21297093.789 0
    150052.620 7    271328.099 7  23940651.436 0  23940654.606 0
 88  2 28  9 48 59.0800000  0  4  3 13 12  9
 -11833691.571 7  75013308.732 7  21843182.039 0  21843183.278 0
    246337.535 7  55646468.294 7  21435542.717 0  21435544.126 0
   1402328.406 7 121281433.793 6  21309015.856 0  21309019.133 0
    273026.709 7    367152.053 7  23964050.023 0  23964054.266 0
 88  2 28  9 49 29.0800000  0  4  3 13 12  9
 -11867569.159 7  74986910.620 6  21836733.720 0  21836735.268 0
    281782.855 7  55674088.027 7  21442287.367 0  21442289.113 0
   1465527.447 7 121330679.778 7  21321042.699 0  21321045.459 0
    396066.890 7    463027.545 7  23987467.907 0  23987468.815 0
 88  2 28  9 49 59.0800000  0  4  3 13 12  9
 -11901305.063 7  74960622.907 6  21830314.902 0  21830316.087 0
    317310.760 7  55701772.111 7  21449048.672 0  21449049.576 0
   1529251.663 7 121380334.987 6  21333168.569 0  21333171.021 0
    519169.276 7    558951.431 7  24010892.178 0  24010894.540 0
 88  2 28  9 50 29.0800000  0  4  3 13 12  9
 -11934899.553 7  74934445.381 6  21823921.026 0  21823923.427 0
    352920.723 7  55729520.124 6  21455824.589 0  21455827.214 0
   1593498.747 7 121430397.631 7  21345395.400 0  21345398.114 0
    642330.793 7    654921.445 6  24034328.513 0  24034329.675 0
 88  2 28  9 50 59.0800000  0  4  3 13 12  9
 -11968353.829 7  74908377.139 6  21817555.081 0  21817557.353 0
    388611.905 7  55757331.434 6  21462616.683 0  21462618.265 0
   1658265.977 7 121480865.594 7  21357720.565 0  21357723.066 0
    765548.378 7    750935.135 6  24057777.416 0  24057778.050 0
 88  2 28  9 51 29.0800000  0  4  3 13 12  9
 -12001668.506 7  74882417.636 6  21811215.667 0  21811217.585 0
    424383.158 7  55785205.144 7  21469423.576 0  21469425.523 0
   1723550.394 7 121531736.541 7  21370143.992 0  21370145.865 0
    888818.159 7    846989.545 7  24081234.597 0  24081235.044 0
 88  2 28  9 51 59.0800000  0  4  3 13 12  9
 -12034843.882 7  74856566.702 6  21804901.967 0  21804903.647 0
    460234.072 7  55813140.922 6  21476244.871 0  21476246.625 0
   1789350.161 8 121583009.066 7  21382663.945 0  21382668.567 0
   1012137.833 7    943082.733 6  24104699.947 0  24104702.453 0
 88  2 28  9 52 29.0800000  0  4  3 13 12  9
 -12067880.452 7  74830823.921 6  21798616.481 0  21798618.199 0
    496163.944 7  55841138.223 7  21483083.223 0  21483084.482 0
   1855662.418 7 121634680.929 7  21395282.730 0  21395286.149 0
   1135503.645 7   1039211.960 6  24128175.874 0  24128176.846 0
 88  2 28  9 52 59.0800000  0  4  3 13 12  9
 -12100779.165 7  74805188.565 6  21792355.626 0  21792357.753 0
    532172.012 7  55869196.450 7  21489934.138 0  21489936.845 0
   1922483.931 7 121686749.623 7  21407998.888 0  21408001.395 0
   1258911.906 7   1135374.250 7  24151661.051 0  24151660.624 0
 88  2 28  9 53 29.0800000  0  4  3 13 12  9
 -12133541.073 7  74779659.816 6  21786121.610 0  21786121.719 0
    568257.237 7  55897314.812 7  21496800.667 0  21496803.721 0
   1989812.218 7 121739213.194 7  21420810.593 0  21420814.027 0
   1382359.576 6   1231567.170 7  24175151.886 0  24175151.912 0
 88  2 28  9 53 59.0800000  0  4  3 13 12  9
 -12166166.507 7  74754237.398 7  21779912.568 0  21779914.281 0
    604419.353 7  55925493.074 6  21503682.925 0  21503685.724 0
   2057645.117 7 121792069.992 6  21433719.293 0  21433722.031 0
   1505843.398 7   1327788.374 7  24198654.831 0  24198651.648 0
 88  2 28  9 54 29.0800000  0  4  3 13 12  9
 -12198656.180 8  74728920.764 6  21773729.384 0  21773732.024 0
    640657.204 7  55953730.365 7  21510578.759 0  21510581.203 0
   2125979.866 7 121845317.823 7  21446722.788 0  21446725.264 0
   1629360.031 6   1424035.071 6  24222150.991 0  24222156.222 0
 88  2 28  9 54 59.0800000  0  4  3 13 12  9
 -12231010.590 8  74703709.538 6  21767573.768 0  21767573.518 0
    676970.236 7  55982026.243 7  21517489.321 0  21517491.576 0
   2194813.470 7 121898954.378 7  21459821.245 0  21459824.287 0
   1752906.615 7   1520305.098 6  24245663.790 0  24245667.673 0
 88  2 28  9 55 29.0800000  0  4  3 13 12  9
 -12263230.928 7  74678602.787 6  21761441.335 0  21761445.491 0
    713357.486 7  56010379.938 6  21524412.829 0  21524415.239 0
   2264142.866 7 121952977.267 6  21473015.529 0  21473017.206 0
   1876479.584 7   1616595.762 7  24269181.253 0  24269181.798 0
 88  2 28  9 55 59.0800000  0  4  3 13 12  9
 -12295317.777 7  74653600.046 6  21755334.988 0  21755338.504 0
    749818.607 7  56038791.204 7  21531351.540 0  21531355.166 0
   2333965.908 7 122007384.804 6  21486301.630 0  21486303.367 0
   2000075.555 6   1712904.272 6  24292696.774 0  24292701.790 0
 88  2 28  9 56 29.0800000  0  4  3 13 12  9
 -12327271.276 7  74628701.213 7  21749255.589 0  21749257.096 0
    786352.815 7  56067259.410 6  21538303.386 0  21538305.838 0
   2404279.775 7 122062174.819 6  21499681.162 0  21499683.972 0
   2123691.901 7   1809228.692 7  24316224.142 0  24316223.135 0
 88  2 28  9 56 59.0800000  0  4  3 13 12  9
 -12359092.034 7  74603905.807 6  21743200.397 0  21743201.302 0
    822959.383 7  56095784.010 6  21545269.267 0  21545273.279 0
   2475081.615 7 122117345.060 6  21513155.426 0  21513158.121 0
   2247325.061 7   1905566.298 6  24339754.361 0  24339751.374 0
 88  2 28  9 57 29.0800000  0  4  3 13 12  9
 -12390781.076 7  74579213.063 7  21737169.371 0  21737172.156 0
    859637.702 7  56124364.508 6  21552249.978 0  21552252.015 0
   2546368.804 7 122172893.497 7  21526720.993 0  21526723.858 0
   2370972.083 6   2001914.538 7  24363275.061 0  24363281.337 0
 88  2 28  9 57 59.0800000  0  4  3 13 12  9
 -12422338.878 7  74554622.566 6  21731165.121 0  21731166.335 0
    896387.423 7  56153000.665 6  21559243.750 0  21559244.580 0
   2618138.639 7 122228818.023 6  21540377.416 0  21540380.936 0
   2494629.877 7   2098271.284 7  24386807.872 0  24386809.767 0
 88  2 28  9 58 29.0800000  0  4  3 13 12  9
 -12453766.036 7  74530133.866 6  21725184.082 0  21725185.493 0
    933207.365 7  56181691.510 7  21566249.966 0  21566251.642 0
   2690388.121 7 122285116.302 6  21554125.535 0  21554128.728 0
   2618294.516 7   2194633.351 7  24410340.208 0  24410346.338 0
 88  2 28  9 58 59.0800000  0  4  3 13 12  9
 -12485063.160 7  74505746.504 7  21719229.242 0  21719231.355 0
    970097.512 7  56210437.084 6  21573269.775 0  21573271.666 0
   2763113.982 8 122341785.782 7  21567965.985 0  21567968.610 0
   2741963.371 7   2290998.602 7  24433877.768 0  24433879.942 0
 88  2 28  9 59 29.0800000  0  4  3 13 12  9
 -12516231.045 7  74481459.832 6  21713297.496 0  21713299.593 0
   1007057.053 7  56239236.729 7  21580302.760 0  21580304.205 0
   2836313.512 7 122398824.355 6  21581895.255 0  21581897.728 0
   2865633.156 7   2387364.715 6  24457410.010 0  24457409.740 0
 88  2 28  9 59 59.0800000  0  4  3 13 12  9
 -12547270.128 7  74457273.536 7  21707392.123 0  21707393.014 0
   1044085.299 8  56268089.900 7  21587349.705 0  21587350.910 0
   2909984.089 7 122456229.977 7  21595914.526 0  21595917.674 0
   2989300.653 7   2483729.032 6  24480943.541 0  24480944.651 0
 88  2 28 10  0 29.0800000  0  4  3 13 12  9
 -12578181.008 7  74433187.142 7  21701508.308 0  21701510.282 0
   1081181.895 7  56296996.344 6  21594407.709 0  21594410.244 0
   2984122.705 7 122514000.313 7  21610021.963 0  21610024.146 0
   3112962.840 7   2580089.104 7  24504478.748 0  24504477.251 0
 88  2 28 10  0 59.0800000  0  4  3 13 12  9
 -12608964.247 7  74409200.193 6  21695651.369 0  21695651.979 0
   1118346.240 7  56325955.549 7  21601480.405 0  21601482.115 0
   3058726.247 7 122572132.929 7  21624219.178 0  21624221.675 0
   3236616.339 8   2676442.512 6  24528008.871 0  24528003.718 0
 88  2 28 10  1 29.0800000  0  4  3 13 12  9
 -12639620.862 7  74385311.928 5  21689817.731 0  21689819.555 0
   1155577.139 7  56354966.653 6  21608565.693 0  21608567.516 0
   3133791.772 8 122630625.535 7  21638503.389 0  21638505.019 0
   3360257.575 7   2772786.380 7  24551533.862 0  24551536.721 0
 88  2 28 10  1 59.0800000  0  4  3 13 12  9
 -12670151.573 7  74361521.764 6  21684007.078 0  21684009.250 0
   1192873.785 8  56384028.975 7  21615662.239 0  21615664.131 0
   3209316.334 7 122689475.813 6  21652874.093 0  21652878.014 0
   3483883.856 7   2869118.502 7  24575055.965 0  24575060.108 0
 88  2 28 10  2 29.0800000  0  4  3 13 12  9
 -12700556.371 7  74337829.723 7  21678222.435 0  21678223.986 0
   1230236.576 7  56413142.845 7  21622772.449 0  21622773.662 0
   3285296.958 7 122748681.479 6  21667334.766 0  21667336.317 0
   3607492.035 7   2965436.562 6  24598582.333 0  24598584.306 0
 88  2 28 10  2 59.0800000  0  4  3 13 12  9
 -12730835.898 7  74314235.274 7  21672459.666 0  21672461.165 0
   1267664.736 7  56442307.630 6  21629894.523 0  21629897.456 0
   3361731.649 7 122808240.953 7  21681879.756 0  21681881.115 0
   3731079.396 7   3061738.484 6  24622101.977 0  24622098.680 0
 88  2 28 10  3 29.0800000  0  4  3 13 12  9
 -12760990.667 7  74290738.059 6  21666722.166 0  21666722.836 0
   1305157.613 7  56471522.860 6  21637028.908 0  21637031.390 0
   3438616.833 7 122868151.455 6  21696509.550 0  21696512.734 0
   3854642.716 7   3158021.514 6  24645612.699 0  24645614.740 0
 88  2 28 10  3 59.0800000  0  4  3 13 12  9
 -12791021.623 7  74267337.316 6  21661006.717 0  21661008.856 0
   1342714.901 7  56500788.274 6  21644176.550 0  21644178.722 0
   3515948.942 7 122928410.245 7  21711225.204 0  21711228.305 0
   3978178.107 7   3254282.906 7  24669118.491 0  24669122.413 0
 88  2 28 10  4 29.0800000  0  4  3 13 12  9
 -12820929.156 7  74244032.755 6  21655314.979 0  21655316.435 0
   1380335.750 7  56530103.229 6  21651335.588 0  21651337.697 0
   3593725.327 7 122989015.201 7  21726026.599 0  21726028.064 0
   4101682.815 7   3350520.362 6  24692624.817 0  24692623.324 0
 88  2 28 10  4 59.0800000  0  4  3 13 12  9
 -12850713.857 7  74220823.891 7  21649648.199 0  21649650.166 0
   1418019.936 8  56559467.537 7  21658506.256 0  21658508.491 0
   3671942.652 7 123049963.746 7  21740910.563 0  21740913.131 0
   4225153.818 7   3446731.496 7  24716117.127 0  24716119.696 0
 88  2 28 10  5 29.0800000  0  4  3 13 12  9
 -12880376.273 7  74197710.329 6  21644002.508 0  21644005.965 0
   1455766.784 8  56588880.649 6  21665689.036 0  21665690.621 0
   3750598.344 8 123111253.884 7  21755878.491 0  21755881.318 0
   4348588.241 7   3542914.225 7  24739607.709 0  24739611.267 0
 88  2 28 10  5 59.0800000  0  4  3 13 12  9
 -12909916.297 7  74174692.140 7  21638381.784 0  21638384.485 0
   1493575.949 7  56618342.339 7  21672884.808 0  21672886.496 0
   3829689.466 7 123172883.315 7  21770928.400 0  21770931.481 0
   4471983.205 7   3639066.157 6  24763086.775 0  24763089.116 0
 88  2 28 10  6 29.0800000  0  4  3 13 12  9
 -12939335.231 7  74151768.301 6  21632783.620 0  21632785.926 0
   1531447.320 7  56647852.507 6  21680091.112 0  21680093.003 0
   3909212.952 7 123234849.651 7  21786060.250 0  21786064.476 0
   4595335.356 6   3735184.773 7  24786559.893 0  24786565.004 0
 88  2 28 10  6 59.0800000  0  4  3 13 12  9
 -12968633.812 7  74128938.254 6  21627208.082 0  21627209.695 0
   1569379.971 7  56677410.419 7  21687309.469 0  21687310.454 0
   3989165.411 7 123297150.252 6  21801275.581 0  21801278.861 0
   4718641.416 7   3831267.339 6  24810025.366 0  24810025.926 0
 88  2 28 10  7 29.0800000  0  4  3 13 12  9
 -12997812.604 7  74106201.525 6  21621656.174 0  21621657.639 0
   1607373.731 7  56707015.936 6  21694539.429 0  21694541.650 0
   4069544.209 7 123359783.060 6  21816572.467 0  21816573.826 0
   4841898.346 7   3927311.706 6  24833480.831 0  24833481.167 0
 88  2 28 10  7 59.0800000  0  4  3 13 12  9
 -13026871.891 7  74083557.936 7  21616125.676 0  21616127.338 0
   1645427.949 7  56736668.588 7  21701780.653 0  21701783.160 0
   4150345.573 7 123422745.138 6  21831948.196 0  21831950.389 0
   4965103.070 7   4023315.443 6  24856922.605 0  24856930.321 0
 88  2 28 10  8 29.0800000  0  4  3 13 12  9
 -13055812.108 8  74061007.135 6  21610619.277 0  21610619.850 0
   1683542.233 7  56766368.026 7  21709033.542 0  21709036.118 0
   4231566.908 7 123486034.458 7  21847402.156 0  21847405.394 0
   5088252.836 7   4119276.311 6  24880359.948 0  24880360.748 0
 88  2 28 10  8 59.0800000  0  4  3 13 12  9
 -13084633.751 7  74038548.710 6  21605134.284 0  21605136.108 0
   1721716.288 7  56796114.036 7  21716298.027 0  21716300.583 0
   4313204.764 8 123549648.364 6  21862938.197 0  21862942.048 0
   5211344.191 7   4215191.715 6  24903783.294 0  24903783.398 0
 88  2 28 10  9 29.0800000  0  4  3 13 12  9
 -13113337.058 7  74016182.514 6  21599673.438 0  21599674.409 0
   1759949.950 6  56825906.505 7  21723573.433 0  21723575.533 0
   4395256.134 7 123613584.458 7  21878553.281 0  21878555.685 0
   5334374.547 7   4311059.550 6  24927198.348 0  24927197.779 0
 88  2 28 10  9 59.0800000  0  4  3 13 12  9
 -13141922.890 7  73993907.834 6  21594232.224 0  21594233.303 0
   1798241.570 7  56855744.126 7  21730860.761 0  21730862.358 0
   4477717.777 7 123677840.266 6  21894243.370 0  21894247.654 0
   5457340.590 7   4406877.289 6  24950594.981 0  24950598.362 0
 88  2 28 10 10 29.0800000  0  4  3 13 12  9
 -13170391.686 8  73971724.381 6  21588814.994 0  21588817.452 0
   1836591.764 6  56885627.397 6  21738158.621 0  21738159.891 0
   4560586.679 7 123742413.407 7  21910014.429 0  21910017.566 0
   5580239.363 7   4502642.557 6  24973983.703 0  24973984.498 0
 88  2 28 10 10 59.0800000  0  3  3 13 12
 -13198744.160 7  73949631.551 6  21583419.571 0  21583422.254 0
   1875000.106 8  56915555.980 6  21745466.789 0  21745469.190 0
   4643859.552 7 123807301.335 6  21925861.875 0  21925862.367 0
 88  2 28 10 11 29.0800000  0  3  3 13 12
 -13226980.810 7  73927628.962 6  21578046.915 0  21578048.699 0
   1913466.354 7  56945529.675 6  21752787.291 0  21752789.040 0
   4727532.921 7 123872501.330 7  21941782.041 0  21941785.308 0
 88  2 28 10 11 59.0800000  0  3  3 13 12
 -13255101.955 7  73905716.407 6  21572695.232 0  21572697.263 0
   1951990.340 7  56975548.357 6  21760118.194 0  21760119.353 0
   4811603.756 7 123938011.061 7  21957781.092 0  21957783.675 0
 88  2 28 10 12 29.0800000  0  3  3 13 12
 -13283108.126 7  73883893.424 6  21567365.790 0  21567368.286 0
   1990570.634 7  57005610.934 6  21767459.536 0  21767461.405 0
   4896068.952 7 124003828.045 7  21973854.230 0  21973856.094 0
 88  2 28 10 12 59.0800000  0  3  3 13 12
 -13310999.661 7  73862159.771 6  21562058.265 0  21562059.865 0
   2029208.050 7  57035718.001 7  21774811.932 0  21774813.943 0
   4980924.824 7 124069949.497 7  21990001.317 0  21990004.099 0
 88  2 28 10 13 29.0800000  0  3  3 13 12
 -13338776.999 7  73840515.090 7  21556772.572 0  21556774.508 0
   2067901.481 7  57065868.725 6  21782175.070 0  21782176.818 0
   5066168.888 7 124136373.415 7  22006222.733 0  22006226.087 0
 88  2 28 10 13 59.0800000  0  3  3 13 12
 -13366441.016 7  73818958.738 6  21551508.332 0  21551510.417 0
   2106650.924 7  57096063.102 7  21789548.517 0  21789551.665 0
   5151797.680 7 124203097.125 7  22022517.435 0  22022520.654 0
 88  2 28 10 14 29.0800000  0  3  3 13 12
 -13393991.786 7  73797490.619 7  21546264.726 0  21546266.954 0
   2145456.093 8  57126300.889 6  21796932.741 0  21796935.328 0
   5237808.063 7 124270118.171 7  22038885.260 0  22038887.003 0
 88  2 28 10 14 59.0800000  0  3  3 13 12
 -13421429.574 7  73776110.518 7  21541045.280 0  21541047.222 0
   2184317.179 7  57156582.252 6  21804326.987 0  21804329.872 0
   5324196.715 7 124337433.986 7  22055324.102 0  22055327.565 0
 88  2 28 10 15 29.0800000  0  3  3 13 12
 -13448755.059 7  73754817.942 6  21535845.106 0  21535846.519 0
   2223233.149 7  57186906.377 7  21811734.169 0  21811735.457 0
   5410960.048 7 124405041.756 7  22071835.828 0  22071837.914 0
 88  2 28 10 15 59.0800000  0  3  3 13 12
 -13475968.745 7  73733612.485 6  21530665.620 0  21530667.134 0
   2262204.108 7  57217273.357 6  21819149.295 0  21819151.671 0
   5498094.954 7 124472939.046 7  22088415.791 0  22088419.340 0
 88  2 28 10 16 29.0800000  0  3  3 13 12
 -13503071.241 7  73712493.667 6  21525508.391 0  21525510.646 0
   2301229.593 7  57247682.821 6  21826575.137 0  21826577.435 0
   5585597.593 7 124541122.917 7  22105067.177 0  22105069.678 0
 88  2 28 10 16 59.0800000  0  3  3 13 12
 -13530063.194 7  73691460.982 6  21520373.140 0  21520373.848 0
   2340309.689 7  57278134.835 6  21834010.949 0  21834013.427 0
   5673465.458 7 124609591.351 7  22121788.832 0  22121790.096 0
 88  2 28 10 17 29.0800000  0  3  3 13 12
 -13556944.113 7  73670514.823 7  21515257.245 0  21515257.966 0
   2379443.641 7  57308628.843 6  21841459.118 0  21841461.078 0
   5761694.801 7 124678341.458 7  22138576.519 0  22138580.270 0
 88  2 28 10 17 59.0800000  0  3  3 13 12
 -13583714.685 7  73649654.636 6  21510161.797 0  21510164.012 0
   2418631.364 7  57339164.718 6  21848916.525 0  21848918.260 0
   5850282.036 7 124747370.436 6  22155435.469 0  22155438.368 0
 88  2 28 10 18 29.0800000  0  3  3 13 12
 -13610375.542 7  73628879.958 6  21505088.857 0  21505089.738 0
   2457872.974 7  57369742.611 6  21856383.491 0  21856385.886 0
   5939224.571 7 124816676.298 7  22172359.461 0  22172363.633 0
 88  2 28 10 18 59.0800000  0  3  3 13 12
 -13636926.985 7  73608190.525 6  21500036.059 0  21500037.941 0
   2497168.198 7  57400362.251 7  21863861.864 0  21863863.956 0
   6028519.132 7 124886256.458 7  22189353.126 0  22189355.980 0
 88  2 28 10 19 29.0800000  0  3  3 13 12
 -13663369.254 6  73587586.161 7  21495004.358 0  21495007.261 0
   2536517.102 8  57431023.738 6  21871348.880 0  21871350.843 0
   6118161.354 7 124956107.499 7  22206410.737 0  22206414.585 0
 88  2 28 10 19 59.0800000  0  3  3 13 12
 -13689702.985 7  73567066.380 6  21489993.724 0  21489994.289 0
   2575918.705 7  57461726.294 7  21878847.589 0  21878849.429 0
   6208148.624 7 125026227.425 7  22223534.134 0  22223537.485 0
 88  2 28 10 20 29.0800000  0  3  3 13 12
 -13715928.378 7  73546631.015 6  21485003.350 0  21485004.590 0
   2615372.859 7  57492469.770 6  21886355.908 0  21886356.229 0
   6298477.395 7 125096613.449 7  22240724.449 0  22240726.186 0
 88  2 28 10 20 59.0800000  0  3  3 13 12
 -13742045.749 7  73526279.814 7  21480033.370 0  21480034.381 0
   2654879.849 8  57523254.448 6  21893873.975 0  21893875.477 0
   6389144.560 7 125167263.168 6  22257977.221 0  22257980.042 0
 88  2 28 10 21 29.0800000  0  3  3 13 12
 -13768055.656 7  73506012.373 6  21475082.618 0  21475085.233 0
   2694439.410 8  57554080.072 6  21901400.605 0  21901402.656 0
   6480146.912 7 125238174.069 7  22275294.961 0  22275298.231 0
 88  2 28 10 21 59.0800000  0  3  3 13 12
 -13793958.865 7  73485828.056 7  21470154.719 0  21470155.947 0
   2734051.565 7  57584946.693 6  21908938.716 0  21908941.091 0
   6571480.340 7 125309342.946 7  22292675.788 0  22292677.311 0
 88  2 28 10 22 29.0800000  0  3  3 13 12
 -13819755.260 7  73465726.977 6  21465244.433 0  21465246.602 0
   2773715.828 7  57615853.914 6  21916486.666 0  21916488.457 0
   6663141.739 7 125380767.394 7  22310118.087 0  22310120.591 0
 88  2 28 10 22 59.0800000  0  3  3 13 12
 -13845445.038 7  73445708.983 6  21460355.785 0  21460358.469 0
   2813432.348 7  57646801.836 6  21924045.010 0  21924046.719 0
   6755127.789 7 125452444.792 6  22327622.991 0  22327624.476 0
 88  2 28 10 23 29.0800000  0  3  3 13 12
 -13871028.793 7  73425773.593 7  21455487.710 0  21455488.136 0
   2853200.978 7  57677790.382 6  21931612.048 0  21931613.689 0
   6847435.288 7 125524372.708 6  22345186.278 0  22345189.607 0
 88  2 28 10 23 59.0800000  0  3  3 13 12
 -13896506.410 7  73405920.914 6  21450640.259 0  21450642.071 0
   2893021.498 7  57708819.366 6  21939189.567 0  21939191.742 0
   6940060.966 7 125596548.516 7  22362814.633 0  22362816.611 0
 88  2 28 10 24 29.0800000  0  3  3 13 12
 -13921878.901 7  73386150.157 6  21445813.234 0  21445815.244 0
   2932893.644 7  57739888.571 7  21946777.680 0  21946778.885 0
   7033000.806 7 125668969.168 7  22380498.985 0  22380501.660 0
 88  2 28 10 24 59.0800000  0  3  3 13 12
 -13947146.296 7  73366461.278 7  21441002.993 0  21441004.776 0
   2972817.293 7  57770997.898 7  21954374.614 0  21954376.414 0
   7126251.734 7 125741632.207 6  22398246.322 0  22398247.296 0
 88  2 28 10 25 29.0800000  0  3  3 13 12
 -13972308.954 7  73346854.030 6  21436216.064 0  21436216.433 0
   3012792.466 7  57802147.390 7  21961981.924 0  21961983.707 0
   7219810.097 6 125814534.806 6  22416047.072 0  22416050.682 0
 88  2 28 10 25 59.0800000  0  3  3 13 12
 -13997366.912 7  73327328.353 6  21431446.256 0  21431449.302 0
   3052819.365 7  57833337.170 6  21969598.615 0  21969599.262 0
   7313672.341 7 125887674.206 6  22433910.023 0  22433913.161 0
 88  2 28 10 26 29.0800000  0  3  3 13 12
 -14022320.719 7  73307883.843 6  21426698.269 0  21426699.194 0
   3092897.021 7  57864566.530 6  21977224.722 0  21977227.095 0
   7407835.137 7 125961047.787 7  22451827.527 0  22451830.843 0
 88  2 28 10 26 59.0800000  0  3  3 13 12
 -14047170.281 7  73288520.563 6  21421968.922 0  21421970.977 0
   3133025.752 7  57895835.660 6  21984861.361 0  21984862.328 0
   7502294.991 7 126034652.868 6  22469801.989 0  22469806.180 0
 88  2 28 10 27 29.0800000  0  3  3 13 12
 -14071916.298 6  73269237.947 7  21417259.994 0  21417262.538 0
   3173206.515 7  57927145.357 6  21992507.472 0  21992508.493 0
   7597048.632 7 126108486.849 6  22487835.034 0  22487835.082 0
 88  2 28 10 27 59.0800000  0  3  3 13 12
 -14096558.920 7  73250035.919 6  21412571.447 0  21412572.875 0
   3213438.364 7  57958494.844 7  22000162.661 0  22000164.899 0
   7692092.748 7 126182547.172 7  22505920.269 0  22505923.335 0
 88  2 28 10 28 29.0800000  0  3  3 13 12
 -14121098.251 6  73230914.367 7  21407901.117 0  21407902.696 0
   3253721.502 7  57989884.308 6  22007829.652 0  22007830.442 0
   7787423.824 7 126256831.127 7  22524062.780 0  22524064.198 0
 88  2 28 10 28 59.0800000  0  3  3 13 12
 -14145534.425 7  73211873.208 6  21403251.272 0  21403253.131 0
   3294056.010 7  58021313.783 6  22015504.467 0  22015506.705 0
   7883038.372 7 126331335.968 7  22542257.125 0  22542258.523 0
 88  2 28 10 29 29.0800000  0  3  3 13 12
 -14169867.987 7  73192911.989 6  21398621.263 0  21398622.473 0
   3334441.715 7  58052783.166 6  22023189.540 0  22023190.971 0
   7978933.075 7 126406059.100 7  22560504.668 0  22560506.492 0
 88  2 28 10 29 59.0800000  0  3  3 13 12
 -14194099.013 7  73174030.688 7  21394009.850 0  21394011.363 0
   3374878.089 7  58084292.036 6  22030884.634 0  22030884.623 0
   8075104.099 7 126480997.555 7  22578806.276 0  22578808.111 0
 88  2 28 10 30 29.0800000  0  3  3 13 12
 -14218227.831 7  73155229.028 6  21389418.305 0  21389419.483 0
   3415365.782 7  58115840.884 6  22038589.332 0  22038590.727 0
   8171547.537 7 126556148.253 7  22597156.809 0  22597160.372 0
 88  2 28 10 30 59.0800000  0  3  3 13 12
 -14242254.077 7  73136507.268 6  21384846.292 0  21384847.674 0
   3455905.118 7  58147429.980 6  22046303.172 0  22046304.291 0
   8268260.813 7 126631509.231 7  22615562.366 0  22615563.954 0
 88  2 28 10 31 29.0800000  0  3  3 13 12
 -14266178.387 7  73117864.966 6  21380294.223 0  21380296.264 0
   3496495.834 7  58179059.108 6  22054028.339 0  22054029.022 0
   8365240.512 7 126707077.813 6  22634016.779 0  22634017.919 0
 88  2 28 10 31 59.0800000  0  3  3 13 12
 -14290001.091 7  73099301.831 6  21375759.208 0  21375762.058 0
   3537137.118 7  58210727.636 6  22061761.404 0  22061762.826 0
   8462482.862 7 126782851.064 6  22652520.138 0  22652522.964 0
 88  2 28 10 32 29.0800000  0  3  3 13 12
 -14313722.186 7  73080817.860 7  21371246.575 0  21371247.102 0
   3577829.447 7  58242435.951 6  22069504.457 0  22069506.271 0
   8559984.271 7 126858826.144 6  22671074.626 0  22671076.039 0
 88  2 28 10 32 59.0800000  0  3  3 13 12
 -14337341.754 7  73062413.002 6  21366752.421 0  21366754.103 0
   3618573.697 7  58274184.716 6  22077258.070 0  22077260.062 0
   8657741.047 7 126935000.253 6  22689676.384 0  22689679.147 0
 88  2 28 10 33 29.0800000  0  3  3 13 12
 -14360860.570 7  73044086.665 7  21362276.348 0  21362278.619 0
   3659369.307 7  58305973.493 6  22085021.190 0  22085021.943 0
   8755750.074 7 127011370.908 6  22708327.932 0  22708329.910 0
 88  2 28 10 33 59.0800000  0  3  3 13 12
 -14384278.220 7  73025839.167 6  21357818.989 0  21357821.937 0
   3700216.099 7  58337802.164 6  22092794.115 0  22092794.361 0
   8854007.842 7 127087935.391 7  22727023.831 0  22727027.346 0
 88  2 28 10 34 29.0800000  0  3  3 13 12
 -14407594.880 7  73007670.339 7  21353383.014 0  21353384.000 0
   3741114.475 8  58369671.028 6  22100576.398 0  22100579.212 0
   8952510.407 7 127164690.598 6  22745771.755 0  22745772.353 0
 88  2 28 10 34 59.0800000  0  3  3 13 12
 -14430811.171 8  72989579.735 6  21348964.521 0  21348966.636 0
   3782064.413 7  58401580.073 6  22108369.322 0  22108370.865 0
   9051254.376 7 127241633.962 6  22764560.714 0  22764562.832 0
 88  2 28 10 35 29.0800000  0  3  3 13 12
 -14453926.626 7  72971567.702 7  21344566.838 0  21344568.763 0
   3823065.994 7  58433529.344 6  22116172.170 0  22116173.370 0
   9150236.527 7 127318762.872 6  22783395.740 0  22783399.522 0
 88  2 28 10 35 59.0800000  0  3  3 13 12
 -14476941.858 7  72953633.755 6  21340186.781 0  21340188.289 0
   3864119.377 7  58465518.992 6  22123983.507 0  22123985.725 0
   9249453.186 7 127396074.558 6  22802276.126 0  22802279.843 0
 88  2 28 10 36 29.0800000  0  3  3 13 12
 -14499856.286 7  72935778.376 7  21335826.122 0  21335828.078 0
   3905224.989 7  58497549.346 7  22131806.005 0  22131807.679 0
   9348901.392 8 127473566.636 6  22821204.229 0  22821202.535 0
 88  2 28 10 36 59.0800000  0  3  3 13 12
 -14522670.142 7  72918001.358 7  21331485.877 0  21331485.238 0
   3946382.935 7  58529620.469 6  22139637.884 0  22139639.451 0
   9448577.217 7 127551236.073 7  22840167.858 0  22840170.927 0
 88  2 28 10 37 29.0800000  0  3  3 13 12
 -14545383.857 7  72900302.353 6  21327162.599 0  21327164.551 0
   3987592.875 7  58561732.117 6  22147480.036 0  22147480.511 0
   9548477.182 7 127629080.186 7  22859177.358 0  22859181.608 0
 88  2 28 10 37 59.0800000  0  3  3 13 12
 -14567997.314 7  72882681.489 6  21322859.293 0  21322860.945 0
   4028854.787 7  58593884.249 7  22155331.587 0  22155332.308 0
   9648597.819 7 127707096.244 6  22878229.860 0  22878233.089 0
 88  2 28 10 38 29.0800000  0  3  3 13 12
 -14590510.826 7  72865138.500 6  21318575.239 0  21318575.775 0
   4070169.056 7  58626077.181 7  22163193.544 0  22163194.835 0
   9748935.485 8 127785281.440 7  22897326.571 0  22897326.966 0
 88  2 28 10 38 59.0800000  0  3  3 13 12
 -14612924.534 7  72847673.285 7  21314309.667 0  21314311.755 0
   4111536.520 7  58658311.549 6  22171065.259 0  22171068.585 0
   9849487.004 7 127863633.272 7  22916458.934 0  22916461.596 0
 88  2 28 10 39 29.0800000  0  3  3 13 12
 -14635238.294 7  72830285.951 7  21310064.074 0  21310065.185 0
   4152956.617 7  58690586.958 6  22178947.129 0  22178949.973 0
   9950248.454 8 127942148.670 7  22935634.346 0  22935634.117 0
 88  2 28 10 39 59.0800000  0  3  3 13 12
 -14657452.611 7  72812976.099 7  21305836.238 0  21305838.020 0
   4194429.471 7  58722903.463 7  22186840.119 0  22186840.608 0
  10051216.058 7 128020824.659 7  22954847.068 0  22954848.593 0
 88  2 28 10 40 29.0800000  0  3  3 13 12
 -14679567.267 7  72795743.914 6  21301627.834 0  21301629.632 0
   4235955.423 7  58755261.344 6  22194741.329 0  22194744.025 0
  10152386.479 8 128099658.761 7  22974099.792 0  22974100.472 0
 88  2 28 10 40 59.0800000  0  3  3 13 12
 -14701581.987 7  72778589.590 6  21297439.235 0  21297441.819 0
   4277534.313 7  58787660.493 7  22202654.645 0  22202656.339 0
  10253756.776 7 128178648.555 7  22993389.220 0  22993392.287 0
 88  2 28 10 41 29.0800000  0  3  3 13 12
 -14723496.984 7  72761512.969 7  21293268.018 0  21293270.054 0
   4319166.618 7  58820101.234 6  22210575.749 0  22210578.480 0
  10355322.971 7 128257791.057 6  23012716.777 0  23012719.478 0
 88  2 28 10 41 59.0800000  0  3  3 13 12
 -14745312.377 7  72744513.980 6  21289118.012 0  21289119.648 0
   4360852.954 7  58852584.094 6  22218509.264 0  22218510.912 0
  10457081.883 7 128337083.704 7  23032080.368 0  23032084.321 0
 88  2 28 10 42 29.0800000  0  3  3 13 12
 -14767028.173 7  72727592.583 6  21284986.362 0  21284986.159 0
   4402593.282 7  58885109.024 6  22226451.524 0  22226453.868 0
  10559029.450 8 128416523.342 7  23051480.930 0  23051482.669 0
 88  2 28 10 42 59.0800000  0  3  3 13 12
 -14788643.925 7  72710749.154 7  21280872.055 0  21280871.916 0
   4444387.661 7  58917676.069 7  22234404.870 0  22234406.833 0
  10661162.373 8 128496107.408 6  23070915.800 0  23070919.341 0
 88  2 28 10 43 29.0800000  0  3  3 13 12
 -14810159.927 7  72693983.435 7  21276777.150 0  21276779.493 0
   4486236.773 7  58950285.754 6  22242368.273 0  22242369.907 0
  10763477.181 7 128575833.221 7  23090386.862 0  23090390.161 0
 88  2 28 10 43 59.0800000  0  3  3 13 12
 -14831576.216 7  72677295.420 6  21272702.433 0  21272703.656 0
   4528140.305 6  58982937.858 6  22250342.449 0  22250345.966 0
  10865970.490 7 128655698.112 7  23109887.559 0  23109893.438 0
 88  2 28 10 44 29.0800000  0  3  3 13 12
 -14852893.098 7  72660684.874 6  21268644.968 0  21268646.612 0
   4570098.557 7  59015632.591 6  22258327.527 0  22258328.547 0
  10968638.838 7 128735699.442 7  23129427.601 0  23129431.520 0
 88  2 28 10 44 59.0800000  0  3  3 13 12
 -14874110.413 7  72644151.909 6  21264608.589 0  21264609.468 0
   4612111.927 7  59048370.280 7  22266322.159 0  22266323.550 0
  11071478.832 6 128815834.471 6  23148996.405 0  23148999.206 0
 88  2 28 10 45 29.0800000  0  3  3 13 12
 -14895227.608 7  72627696.951 6  21260589.033 0  21260589.613 0
   4654181.095 7  59081151.444 6  22274327.666 0  22274328.484 0
  11174486.682 7 128896100.270 7  23168598.292 0  23168601.168 0
 88  2 28 10 45 59.0800000  0  3  3 13 12
 -14916245.075 7  72611319.722 6  21256589.804 0  21256591.281 0
   4696305.396 7  59113975.576 6  22282343.543 0  22282344.599 0
  11277658.806 7 128976494.138 7  23188229.685 0  23188233.924 0
 88  2 28 10 46 29.0800000  0  3  3 13 12
 -14937162.561 7  72595020.375 7  21252609.099 0  21252610.183 0
   4738485.593 7  59146843.250 6  22290370.279 0  22290372.594 0
  11380991.753 7 129057013.269 7  23207894.605 0  23207897.043 0
 88  2 28 10 46 59.0800000  0  3  3 13 12
 -14957980.205 7  72578798.848 7  21248648.617 0  21248649.972 0
   4780721.702 7  59179754.502 7  22298407.992 0  22298410.288 0
  11484481.586 7 129137654.702 7  23227589.122 0  23227591.631 0
 88  2 28 10 47 29.0800000  0  3  3 13 12
 -14978697.654 7  72562655.392 6  21244706.590 0  21244706.816 0
   4823014.567 7  59212709.986 7  22306454.893 0  22306455.769 0
  11588125.484 7 129218416.150 6  23247313.472 0  23247314.473 0
 88  2 28 10 47 59.0800000  0  3  3 13 12
 -14999315.027 7  72546589.892 6  21240782.254 0  21240783.347 0
   4865364.109 7  59245709.619 6  22314514.837 0  22314516.257 0
  11691919.460 7 129299294.538 7  23267064.221 0  23267066.364 0
 88  2 28 10 48 29.0800000  0  3  3 13 12
 -15019832.098 7  72530602.587 7  21236878.709 0  21236879.855 0
   4907770.619 7  59278753.638 7  22322583.791 0  22322585.482 0
  11795860.096 7 129380287.272 6  23286843.151 0  23286843.124 0
 88  2 28 10 48 59.0800000  0  3  3 13 12
 -15040249.035 7  72514693.281 6  21232992.486 0  21232995.604 0
   4950234.565 7  59311842.430 6  22330664.609 0  22330666.498 0
  11899944.218 8 129461391.737 6  23306649.534 0  23306651.530 0
 88  2 28 10 49 29.0800000  0  3  3 13 12
 -15060565.587 7  72498862.210 6  21229126.431 0  21229128.314 0
   4992755.549 8  59344975.664 6  22338755.422 0  22338757.505 0
  12004167.952 7 129542605.017 7  23326483.074 0  23326484.928 0
 88  2 28 10 49 59.0800000  0  3  3 13 12
 -15080781.384 7  72483109.651 6  21225279.909 0  21225280.829 0
   5035334.851 7  59378154.323 6  22346858.860 0  22346860.271 0
  12108527.919 8 129623924.450 7  23346341.470 0  23346342.535 0
 88  2 28 10 50 29.0800000  0  3  3 13 12
 -15100896.267 7  72467435.723 6  21221452.471 0  21221453.096 0
   5077972.663 7  59411378.598 6  22354972.338 0  22354975.091 0
  12213021.325 7 129705347.855 7  23366222.513 0  23366228.869 0
 88  2 28 10 50 59.0800000  0  3  3 13 12
 -15120910.582 7  72451840.166 7  21217643.937 0  21217643.528 0
   5120668.785 7  59444648.305 6  22363096.915 0  22363100.085 0
  12317643.694 7 129786871.776 6  23386134.634 0  23386137.219 0
 88  2 28 10 51 29.0800000  0  3  3 13 12
 -15140823.792 7  72436323.382 7  21213854.534 0  21213855.198 0
   5163423.832 7  59477963.913 6  22371232.869 0  22371235.170 0
  12422391.683 7 129868493.554 6  23406067.718 0  23406068.839 0
 88  2 28 10 51 59.0800000  0  3  3 13 12
 -15160635.963 7  72420885.337 7  21210084.391 0  21210086.477 0
   5206238.286 7  59511325.820 7  22379381.010 0  22379382.080 0
  12527262.301 7 129950210.903 6  23426022.161 0  23426027.456 0
 88  2 28 10 52 29.0800000  0  3  3 13 12
 -15180346.654 7  72405526.366 6  21206333.535 0  21206334.291 0
   5249112.116 7  59544733.998 7  22387538.572 0  22387541.204 0
  12632251.810 7 130032020.903 6  23446002.769 0  23446006.074 0
 88  2 28 10 52 59.0800000  0  3  3 13 12
 -15199955.448 7  72390246.790 7  21202601.943 0  21202602.881 0
   5292046.138 7  59578189.061 7  22395709.624 0  22395711.167 0
  12737356.645 7 130113920.764 6  23466001.932 0  23466003.985 0
 88  2 28 10 53 29.0800000  0  3  3 13 12
 -15219462.792 7  72375046.271 6  21198889.167 0  21198891.969 0
   5335041.208 7  59611691.714 7  22403891.689 0  22403892.653 0
  12842573.420 7 130195907.841 6  23486025.373 0  23486029.486 0
 88  2 28 10 53 59.0800000  0  3  3 13 12
 -15238868.626 7  72359924.848 7  21195195.865 0  21195198.336 0
   5378096.851 7  59645241.561 6  22412084.783 0  22412086.326 0
  12947898.415 7 130277979.259 7  23506067.228 0  23506071.185 0
 88  2 28 10 54 29.0800000  0  3  3 13 12
 -15258171.806 6  72344883.416 6  21191523.096 0  21191525.228 0
   5421213.151 7  59678838.662 6  22420288.031 0  22420290.490 0
  13053328.641 7 130360132.676 6  23526130.874 0  23526133.235 0
 88  2 28 10 54 59.0800000  0  3  3 13 12
 -15277372.616 7  72329921.755 6  21187869.030 0  21187871.404 0
   5464391.611 7  59712484.215 7  22428505.428 0  22428505.964 0
  13158860.384 7 130442365.191 6  23546211.393 0  23546216.015 0
 88  2 28 10 55 29.0800000  0  3  3 13 12
 -15296470.315 7  72315040.430 7  21184234.467 0  21184237.784 0
   5507632.292 7  59746178.261 6  22436733.449 0  22436735.632 0
  13264490.313 7 130524674.226 7  23566314.908 0  23566316.942 0
 88  2 28 10 55 59.0800000  0  3  3 13 12
 -15315465.644 7  72300238.883 6  21180619.130 0  21180622.507 0
   5550935.297 7  59779920.849 7  22444974.129 0  22444976.053 0
  13370214.716 7 130607056.837 7  23586430.443 0  23586436.378 0
 88  2 28 10 56 29.0800000  0  3  3 13 12
 -15334357.518 6  72285517.949 6  21177025.603 0  21177027.612 0
   5594301.107 7  59813712.382 7  22453225.388 0  22453228.167 0
  13476029.983 6 130689510.289 7  23606565.256 0  23606570.172 0
 88  2 28 10 56 59.0800000  0  3  3 13 12
 -15353145.896 7  72270877.675 7  21173450.621 0  21173452.403 0
   5637730.193 6  59847553.215 7  22461490.829 0  22461492.352 0
  13581933.293 7 130772032.344 6  23626722.433 0  23626722.841 0
 88  2 28 10 57 29.0800000  0  3  3 13 12
 -15371830.427 7  72256318.292 7  21169894.198 0  21169896.053 0
   5681222.995 7  59881443.708 6  22469766.820 0  22469768.737 0
  13687921.016 7 130854620.170 7  23646888.926 0  23646893.606 0
 88  2 28 10 57 59.0800000  0  3  3 13 12
 -15390410.945 7  72241839.980 7  21166359.029 0  21166361.745 0
   5724779.573 8  59915383.904 6  22478055.895 0  22478056.513 0
  13793989.571 8 130937270.973 6  23667075.742 0  23667077.383 0
 88  2 28 10 58 29.0800000  0  3  3 13 12
 -15408886.790 6  72227443.222 7  21162842.902 0  21162845.456 0
   5768401.165 7  59949374.736 6  22486357.247 0  22486357.607 0
  13900135.297 7 131019981.962 7  23687272.831 0  23687273.806 0
 88  2 28 10 58 59.0800000  0  3  3 13 12
 -15427258.419 7  72213127.671 6  21159347.237 0  21159348.462 0
   5812087.335 7  59983415.905 6  22494670.178 0  22494671.276 0
  14006355.149 8 131102750.634 6  23707486.756 0  23707489.047 0
 88  2 28 10 59 29.0800000  0  3  3 13 12
 -15445525.330 7  72198893.711 7  21155870.437 0  21155872.736 0
   5855839.372 7  60017508.390 7  22502995.787 0  22502997.561 0
  14112645.584 7 131185574.355 6  23727712.313 0  23727714.413 0
 88  2 28 10 59 59.0800000  0  3  3 13 12
 -15463687.163 7  72184741.654 7  21152415.809 0  21152414.544 0
   5899657.273 7  60051652.211 7  22511334.079 0  22511336.056 0
  14219003.265 7 131268450.436 7  23747953.245 0  23747953.904 0
 88  2 28 11  0 29.0800000  0  3  3 13 12
 -15481743.528 8  72170671.752 6  21148978.729 0  21148980.626 0
   5943541.508 7  60085847.713 6  22519684.838 0  22519685.794 0
  14325424.467 7 131351376.034 7  23768201.455 0  23768205.970 0
 88  2 28 11  0 59.0800000  0  3  3 13 12
 -15499694.231 7  72156684.173 6  21145562.065 0  21145564.879 0
   5987492.522 7  60120095.241 6  22528048.269 0  22528050.607 0
  14431905.550 7 131434348.325 6  23788464.870 0  23788467.907 0
 88  2 28 11  1 29.0800000  0  3  3 13 12
 -15517539.030 7  72142779.147 6  21142166.907 0  21142170.055 0
   6031510.888 7  60154395.267 7  22536424.458 0  22536426.965 0
  14538443.759 7 131517365.064 7  23808737.659 0  23808739.937 0
 88  2 28 11  1 59.0800000  0  3  3 13 12
 -15535276.981 7  72128957.387 7  21138790.970 0  21138794.343 0
   6075596.649 7  60188747.789 6  22544813.645 0  22544816.215 0
  14645035.301 7 131600423.455 6  23829022.390 0  23829024.244 0
 88  2 28 11  2 29.0800000  0  3  3 13 12
 -15552907.820 7  72115219.074 6  21135437.199 0  21135439.040 0
   6119750.629 7  60223153.488 7  22553216.804 0  22553217.726 0
  14751677.190 8 131683521.016 7  23849313.761 0  23849318.943 0
 88  2 28 11  2 59.0800000  0  3  3 13 12
 -15570431.387 8  72101564.340 6  21132101.257 0  21132104.086 0
   6163973.374 7  60257612.769 7  22561630.300 0  22561633.571 0
  14858365.530 7 131766654.712 7  23869615.781 0  23869620.955 0
 88  2 28 11  3 29.0800000  0  3  3 13 12
 -15587847.142 7  72087993.630 7  21128788.723 0  21128788.789 0
   6208265.641 7  60292126.190 7  22570059.657 0  22570062.272 0
  14965096.837 7 131849822.034 6  23889927.737 0  23889930.068 0
 88  2 28 11  3 59.0800000  0  3  3 13 12
 -15605154.696 7  72074507.231 7  21125494.317 0  21125496.670 0
   6252627.626 7  60326693.971 7  22578501.319 0  22578504.132 0
  15071868.023 7 131933020.335 7  23910243.710 0  23910247.864 0
 88  2 28 11  4 29.0800000  0  3  3 13 12
 -15622353.904 7  72061105.245 7  21122221.835 0  21122224.472 0
   6297059.862 7  60361316.483 6  22586956.397 0  22586958.667 0
  15178675.750 7 132016247.110 6  23930568.782 0  23930573.411 0
 88  2 28 11  4 59.0800000  0  3  3 13 12
 -15639444.247 7  72047788.113 6  21118969.012 0  21118971.711 0
   6341562.825 7  60395994.112 7  22595426.077 0  22595428.332 0
  15285516.661 7 132099499.789 7  23950902.668 0  23950905.816 0
 88  2 28 11  5 29.0800000  0  3  3 13 12
 -15656424.901 7  72034556.431 6  21115738.367 0  21115740.667 0
   6386137.112 7  60430727.330 6  22603908.978 0  22603909.648 0
  15392387.468 7 132182775.733 7  23971241.368 0  23971240.981 0
 88  2 28 11  5 59.0800000  0  3  3 13 12
 -15673295.640 7  72021410.407 7  21112528.076 0  21112529.514 0
   6430783.475 7  60465516.692 7  22612403.476 0  22612407.683 0
  15499284.609 8 132266072.212 7  23991580.431 0  23991585.526 0
 88  2 28 11  6 29.0800000  0  3  3 13 12
 -15690055.882 7  72008350.486 6  21109337.936 0  21109340.623 0
   6475502.254 6  60500362.454 7  22620913.907 0  22620915.176 0
  15606204.738 6 132349386.570 7  24011926.380 0  24011931.280 0
 88  2 28 11  6 59.0800000  0  3  3 13 12
 -15706705.350 6  71995376.881 7  21106169.581 0  21106171.796 0
   6520294.094 7  60535265.190 6  22629437.573 0  22629438.277 0
  15713144.728 8 132432716.437 7  24032278.427 0  24032278.614 0
 88  2 28 11  7 29.0800000  0  3  3 13 12
 -15723243.543 7  71982489.983 7  21103023.350 0  21103024.032 0
   6565159.336 8  60570225.134 7  22637975.198 0  22637976.328 0
  15820101.193 7 132516059.157 6  24052630.391 0  24052631.697 0
 88  2 28 11  7 59.0800000  0  3  3 13 12
 -15739670.393 7  71969689.845 7  21099897.539 0  21099899.337 0
   6610098.502 8  60605242.656 6  22646527.241 0  22646529.242 0
  15927070.577 7 132599411.931 7  24072988.989 0  24072988.018 0
 88  2 28 11  8 29.0800000  0  3  3 13 12
 -15755984.977 7  71956977.186 6  21096792.233 0  21096794.359 0
   6655112.254 7  60640318.286 6  22655091.694 0  22655094.653 0
  16034049.293 7 132682771.947 7  24093347.330 0  24093345.919 0
 88  2 28 11  8 59.0800000  0  3  3 13 12
 -15772186.594 7  71944352.549 6  21093709.445 0  21093710.583 0
   6700201.403 7  60675452.659 7  22663672.212 0  22663674.971 0
  16141034.679 7 132766137.157 7  24113704.422 0  24113702.220 0
 88  2 28 11  9 29.0800000  0  3  3 13 12
 -15788275.458 7  71931815.803 7  21090647.824 0  21090649.532 0
   6745365.918 7  60710645.783 6  22672266.370 0  22672270.051 0
  16248022.972 7 132849504.676 6  24134060.515 0  24134064.277 0
 88  2 28 11  9 59.0800000  0  3  3 13 12
 -15804250.756 7  71919367.503 6  21087608.035 0  21087609.430 0
   6790606.216 7  60745897.954 7  22680875.920 0  22680878.773 0
  16355010.804 8 132932871.835 7  24154422.753 0  24154422.432 0
 88  2 28 11 10 29.0800000  0  3  3 13 12
 -15820112.094 7  71907008.026 6  21084589.496 0  21084591.538 0
   6835923.336 7  60781209.988 6  22689500.350 0  22689501.189 0
  16461995.508 6 133016236.507 7  24174778.021 0  24174780.998 0
 88  2 28 11 10 59.0800000  0  3  3 13 12
 -15835858.565 7  71894738.059 7  21081591.977 0  21081594.680 0
   6881318.311 7  60816582.685 7  22698138.403 0  22698139.507 0
  16568973.293 7 133099595.796 6  24195134.661 0  24195137.394 0
 88  2 28 11 11 29.0800000  0  3  3 13 12
 -15851489.688 7  71882557.970 7  21078618.576 0  21078620.314 0
   6926790.910 7  60852015.879 7  22706790.159 0  22706792.517 0
  16675940.920 7 133182947.246 7  24215492.697 0  24215493.225 0
 88  2 28 11 11 59.0800000  0  3  3 13 12
 -15867004.792 7  71870468.281 7  21075665.871 0  21075667.441 0
   6972342.442 7  60887510.551 7  22715458.931 0  22715462.084 0
  16782895.532 7 133266288.462 7  24235842.585 0  24235848.791 0
 88  2 28 11 12 29.0800000  0  3  3 13 12
 -15882403.139 7  71858469.571 6  21072736.284 0  21072737.721 0
   7017973.036 8  60923066.847 6  22724142.573 0  22724144.625 0
  16889833.132 7 133349616.435 7  24256192.733 0  24256198.714 0
 88  2 28 11 12 59.0800000  0  3  3 13 12
 -15897684.729 7  71846561.837 7  21069828.598 0  21069830.440 0
   7063683.594 7  60958685.478 7  22732841.583 0  22732842.750 0
  16996750.753 7 133432928.881 6  24276541.083 0  24276540.598 0
 88  2 28 11 13 29.0800000  0  3  3 13 12
 -15912848.856 8  71834745.631 6  21066942.132 0  21066944.387 0
   7109474.526 7  60994366.706 7  22741553.981 0  22741557.163 0
  17103645.365 7 133516223.450 7  24296881.543 0  24296881.948 0
 88  2 28 11 13 59.0800000  0  3  3 13 12
 -15927894.669 7  71823021.632 6  21064078.617 0  21064080.265 0
   7155345.966 8  61030110.668 6  22750283.298 0  22750285.249 0
  17210513.599 7 133599497.323 6  24317216.778 0  24317219.190 0
 88  2 28 11 14 29.0800000  0  3  3 13 12
 -15942821.671 7  71811390.224 6  21061238.921 0  21061240.311 0
   7201298.803 8  61065918.064 7  22759028.315 0  22759030.263 0
  17317352.180 7 133682748.169 6  24337543.348 0  24337549.636 0
 88  2 28 11 14 59.0800000  0  3  3 13 12
 -15957629.289 7  71799851.802 6  21058422.341 0  21058422.209 0
   7247333.550 7  61101789.288 6  22767788.104 0  22767789.833 0
  17424157.815 6 133765973.393 7  24357868.011 0  24357874.479 0
 88  2 28 11 15 29.0800000  0  3  3 13 12
 -15972317.178 6  71788406.704 6  21055625.855 0  21055626.937 0
   7293450.958 7  61137724.911 6  22776563.148 0  22776566.422 0
  17530927.112 7 133849170.233 6  24378188.199 0  24378194.578 0
 88  2 28 11 15 59.0800000  0  3  3 13 12
 -15986884.277 7  71777055.710 7  21052853.735 0  21052854.476 0
   7339651.720 6  61173725.484 6  22785356.421 0  22785357.758 0
  17637657.120 7 133932336.460 6  24398497.025 0  24398502.168 0
 88  2 28 11 16 29.0800000  0  3  3 13 12
 -16001330.172 7  71765799.174 6  21050104.466 0  21050106.139 0
   7385935.950 7  61209791.130 6  22794163.964 0  22794165.529 0
  17744344.256 7 134015469.326 6  24418801.430 0  24418805.185 0
 88  2 28 11 16 59.0800000  0  3  3 13 12
 -16015653.859 7  71754637.863 7  21047378.881 0  21047380.325 0
   7432305.387 7  61245923.139 7  22802987.201 0  22802989.688 0
  17850985.828 7 134098566.685 7  24439095.223 0  24439100.329 0
 88  2 28 11 17 29.0800000  0  3  3 13 12
 -16029854.986 7  71743572.036 6  21044676.736 0  21044677.488 0
   7478760.245 7  61282121.706 7  22811825.789 0  22811828.745 0
  17957578.346 7 134181625.731 6  24459375.977 0  24459382.982 0
 88  2 28 11 17 59.0800000  0  3  3 13 12
 -16043933.505 7  71732601.770 6  21041997.940 0  21041999.834 0
   7525300.636 7  61318386.930 6  22820683.585 0  22820685.634 0
  18064118.452 8 134264644.076 6  24479652.321 0  24479652.185 0
 88  2 28 11 18 29.0800000  0  3  3 13 12
 -16057888.097 8  71721728.063 6  21039342.313 0  21039344.625 0
   7571927.722 7  61354719.737 7  22829556.337 0  22829558.352 0
  18170603.161 7 134347619.194 7  24499913.067 0  24499916.825 0
 88  2 28 11 18 59.0800000  0  3  3 13 12
 -16071717.840 7  71710951.643 7  21036711.012 0  21036710.990 0
   7618641.282 7  61391119.890 7  22838445.534 0  22838447.651 0
  18277029.298 7 134430548.573 7  24520167.342 0  24520174.447 0
 88  2 28 11 19 29.0800000  0  2  3 13
 -16085422.240 7  71700272.884 7  21034102.216 0  21034104.517 0
   7665442.414 7  61427588.297 7  22847352.084 0  22847353.214 0
 88  2 28 11 19 59.0800000  0  2  3 13
 -16099000.779 7  71689692.201 6  21031518.738 0  21031519.531 0
   7712331.731 7  61464125.416 7  22856274.112 0  22856277.721 0
 88  2 28 11 20 29.0800000  0  2  3 13
 -16112453.139 8  71679209.855 7  21028958.506 0  21028959.990 0
   7759309.868 7  61500731.739 6  22865213.866 0  22865217.222 0
 88  2 28 11 20 59.0800000  0  2  3 13
 -16125778.356 7  71668826.555 6  21026422.461 0  21026423.942 0
   7806377.719 7  61537407.967 6  22874170.172 0  22874174.339 0
 88  2 28 11 21 29.0800000  0  2  3 13
 -16138975.310 7  71658543.213 7  21023911.975 0  21023913.082 0
   7853536.009 7  61574154.662 6  22883145.069 0  22883146.963 0
 88  2 28 11 21 59.0800000  0  2  3 13
 -16152043.342 7  71648360.336 7  21021424.920 0  21021425.460 0
   7900785.405 7  61610972.364 6  22892136.067 0  22892139.226 0
 88  2 28 11 22 29.0800000  0  2  3 13
 -16164982.023 7  71638278.245 7  21018963.210 0  21018963.478 0
   7948126.024 7  61647861.134 6  22901144.470 0  22901146.949 0
 88  2 28 11 22 59.0800000  0  2  3 13
 -16177790.345 7  71628297.735 6  21016525.454 0  21016528.200 0
   7995558.794 7  61684821.719 6  22910171.155 0  22910173.691 0
 88  2 28 11 23 29.0800000  0  2  3 13
 -16190467.629 7  71618419.333 6  21014112.883 0  21014114.038 0
   8043085.059 6  61721855.167 6  22919215.687 0  22919216.500 0
 88  2 28 11 23 59.0800000  0  2  3 13
 -16203013.226 8  71608643.545 7  21011725.223 0  21011727.295 0
   8090704.494 7  61758961.213 6  22928277.544 0  22928278.142 0
 88  2 28 11 24 29.0800000  0  2  3 13
 -16215425.893 7  71598971.341 7  21009364.051 0  21009363.701 0
   8138418.560 8  61796141.003 7  22937356.537 0  22937358.612 0
 88  2 28 11 24 59.0800000  0  2  3 13
 -16227705.101 7  71589403.127 6  21007027.232 0  21007028.956 0
   8186227.216 7  61833394.488 7  22946452.976 0  22946457.232 0
 88  2 28 11 25 29.0800000  0  2  3 13
 -16239849.948 7  71579939.608 6  21004715.781 0  21004717.395 0
   8234131.330 7  61870722.343 6  22955569.288 0  22955572.997 0
 88  2 28 11 25 59.0800000  0  2  3 13
 -16251859.427 7  71570581.576 6  21002429.876 0  21002431.930 0
   8282132.327 7  61908125.706 7  22964705.536 0  22964706.601 0
 88  2 28 11 26 29.0800000  0  2  3 13
 -16263733.191 7  71561329.290 7  21000171.329 0  21000171.422 0
   8330229.901 7  61945604.335 6  22973857.324 0  22973860.386 0
 88  2 28 11 26 59.0800000  0  2  3 13
 -16275470.671 7  71552183.197 7  20997937.570 0  20997939.219 0
   8378424.549 7  61983158.594 7  22983028.691 0  22983031.181 0
 88  2 28 11 27 29.0800000  0  2  3 13
 -16287070.586 7  71543144.307 6  20995730.574 0  20995731.487 0
   8426717.237 7  62020789.240 7  22992217.683 0  22992220.204 0
 88  2 28 11 27 59.0800000  0  2  3 13
 -16298532.105 7  71534213.244 6  20993549.164 0  20993551.080 0
   8475109.133 7  62058497.195 7  23001427.560 0  23001429.445 0
 88  2 28 11 28 29.0800000  0  2  3 13
 -16309854.103 7  71525390.914 6  20991394.732 0  20991396.026 0
   8523600.868 7  62096282.957 7  23010655.209 0  23010656.325 0
 88  2 28 11 28 59.0800000  0  2  3 13
 -16321035.926 7  71516677.808 6  20989266.827 0  20989267.825 0
   8572193.172 8  62134147.100 6  23019902.295 0  23019902.089 0
 88  2 28 11 29 29.0800000  0  2  3 13
 -16332076.427 7  71508074.821 6  20987166.339 0  20987167.236 0
   8620886.338 8  62172089.811 7  23029169.558 0  23029170.041 0
 88  2 28 11 29 59.0800000  0  2  3 13
 -16342975.420 7  71499582.096 7  20985091.681 0  20985094.149 0
   8669681.021 8  62210111.634 7  23038454.186 0  23038454.961 0
 88  2 28 11 30 29.0800000  0  2  3 13
 -16353731.624 7  71491200.630 6  20983045.178 0  20983047.105 0
   8718577.729 7  62248212.952 6  23047756.392 0  23047759.657 0
 88  2 28 11 30 59.0800000  0  2  3 13
 -16364344.081 7  71482931.188 6  20981025.767 0  20981026.704 0
   8767577.848 7  62286394.844 6  23057082.104 0  23057082.831 0
 88  2 28 11 31 29.0800000  0  2  3 13
 -16374812.092 7  71474774.287 7  20979034.102 0  20979035.064 0
   8816682.032 7  62324657.857 6  23066427.701 0  23066426.980 0
 88  2 28 11 31 59.0800000  0  2  3 13
 -16385134.648 7  71466730.749 6  20977069.807 0  20977070.014 0
   8865890.685 7  62363002.266 6  23075789.970 0  23075790.909 0
 88  2 28 11 32 29.0800000  0  2  3 13
 -16395310.945 7  71458801.155 6  20975133.260 0  20975133.981 0
   8915204.116 7  62401428.282 7  23085172.502 0  23085175.530 0
 88  2 28 11 32 59.0800000  0  2  3 13
 -16405339.751 7  71450986.499 6  20973224.372 0  20973225.393 0
   8964623.667 7  62439937.012 7  23094579.262 0  23094581.949 0
 88  2 28 11 33 29.0800000  0  2  3 13
 -16415220.102 8  71443287.537 6  20971344.273 0  20971345.226 0
   9014149.732 7  62478528.753 6  23104005.551 0  23104004.984 0
 88  2 28 11 33 59.0800000  0  2  3 13
 -16424951.623 7  71435704.535 6  20969492.480 0  20969492.815 0
   9063783.052 7  62517204.066 6  23113450.351 0  23113450.176 0
 88  2 28 11 34 29.0800000  0  2  3 13
 -16434533.117 7  71428238.427 7  20967669.003 0  20967670.569 0
   9113523.981 7  62555963.247 7  23122916.391 0  23122913.343 0
 88  2 28 11 34 59.0800000  0  2  3 13
 -16443963.406 7  71420890.147 6  20965873.928 0  20965875.111 0
   9163373.771 7  62594807.240 6  23132400.707 0  23132402.355 0
 88  2 28 11 35 29.0800000  0  2  3 13
 -16453241.795 7  71413660.233 6  20964108.907 0  20964109.818 0
   9213333.339 7  62633736.757 6  23141905.965 0  23141907.156 0
 88  2 28 11 35 59.0800000  0  2  3 13
 -16462367.129 7  71406549.599 6  20962371.440 0  20962374.282 0
   9263402.285 7  62672751.489 6  23151432.648 0  23151435.424 0
 88  2 28 11 36 29.0800000  0  2  3 13
 -16471338.453 7  71399558.948 6  20960666.400 0  20960666.771 0
   9313581.916 6  62711852.469 6  23160980.067 0  23160984.306 0
 88  2 28 11 36 59.0800000  0  2  3 13
 -16480154.922 7  71392688.975 6  20958987.977 0  20958989.847 0
   9363872.822 7  62751040.184 6  23170552.488 0  23170553.243 0
 88  2 28 11 37 29.0800000  0  2  3 13
 -16488815.235 7  71385940.678 6  20957339.733 0  20957340.224 0
   9414276.058 6  62790315.434 5  23180142.686 0  23180144.855 0
 88  2 28 11 37 59.0800000  0  2  3 13
 -16497318.498 7  71379314.747 6  20955721.362 0  20955723.091 0
   9464792.305 7  62829678.734 6  23189756.540 0  23189756.282 0
 88  2 28 11 38 29.0800000  0  2  3 13
 -16505663.806 7  71372811.923 6  20954133.258 0  20954135.000 0
   9515422.137 7  62869130.542 6  23199389.671 0  23199390.701 0
 88  2 28 11 38 59.0800000  0  2  3 13
 -16513850.045 7  71366433.028 6  20952575.905 0  20952576.442 0
   9566166.292 7  62908671.432 6  23209046.854 0  23209048.705 0
 88  2 28 11 39 29.0800000  0  2  3 13
 -16521875.981 7  71360179.054 6  20951048.312 0  20951048.910 0
   9617025.455 7  62948301.951 6  23218725.648 0  23218726.381 0
 88  2 28 11 39 59.0800000  0  2  3 13
 -16529740.432 7  71354050.906 6  20949551.418 0  20949551.996 0
   9668000.486 8  62988022.751 6  23228427.155 0  23228428.411 0
 88  2 28 11 40 29.0800000  0  2  3 13
 -16537442.880 7  71348049.002 7  20948086.257 0  20948086.908 0
   9719091.953 7  63027834.264 6  23238150.016 0  23238151.708 0
 88  2 28 11 40 59.0800000  0  2  3 13
 -16544982.090 7  71342174.284 7  20946650.786 0  20946652.583 0
   9770300.131 7  63067736.748 6  23247894.776 0  23247895.263 0
 88  2 28 11 41 29.0800000  0  2  3 13
 -16552357.111 7  71336427.516 6  20945247.515 0  20945248.938 0
   9821626.044 7  63107730.948 6  23257662.168 0  23257663.050 0
 88  2 28 11 41 59.0800000  0  2  3 13
 -16559566.766 7  71330809.613 7  20943876.508 0  20943876.600 0
   9873070.404 6  63147817.439 6  23267449.347 0  23267452.057 0
 88  2 28 11 42 29.0800000  0  2  3 13
 -16566610.483 7  71325320.996 6  20942534.923 0  20942537.554 0
   9924633.535 6  63187996.483 6  23277261.475 0  23277264.686 0
 88  2 28 11 42 59.0800000  0  2  3 13
 -16573486.513 7  71319963.052 7  20941227.208 0  20941227.974 0
   9976316.929 7  63228269.250 6  23287095.078 0  23287098.343 0
 88  2 28 11 43 29.0800000  0  2  3 13
 -16580194.194 7  71314736.289 6  20939950.612 0  20939952.427 0
  10028121.406 7  63268636.365 7  23296953.201 0  23296958.484 0
 88  2 28 11 43 59.0800000  0  2  3 13
 -16586732.306 7  71309641.655 6  20938706.433 0  20938707.467 0
  10080046.673 7  63309097.593 7  23306834.580 0  23306837.782 0
 88  2 28 11 44 29.0800000  0  2  3 13
 -16593099.679 7  71304680.073 6  20937495.028 0  20937496.544 0
  10132093.790 7  63349653.768 6  23316740.628 0  23316742.087 0
 88  2 28 11 44 59.0800000  0  2  3 13
 -16599294.872 7  71299852.657 7  20936315.897 0  20936316.751 0
  10184263.781 7  63390305.701 7  23326667.361 0  23326669.435 0
 88  2 28 11 45 29.0800000  0  2  3 13
 -16605317.113 8  71295159.992 6  20935170.148 0  20935171.385 0
  10236557.558 7  63431054.096 6  23336619.896 0  23336621.722 0
 88  2 28 11 45 59.0800000  0  2  3 13
 -16611165.393 7  71290602.888 6  20934057.694 0  20934059.191 0
  10288975.192 8  63471899.007 7  23346593.558 0  23346597.167 0
 88  2 28 11 46 29.0800000  0  2  3 13
 -16616838.611 7  71286182.198 7  20932977.077 0  20932978.957 0
  10341517.628 7  63512841.155 7  23356593.131 0  23356595.051 0
 88  2 28 11 46 59.0800000  0  2  3 13
 -16622335.522 7  71281898.897 6  20931931.896 0  20931932.878 0
  10394185.638 7  63553881.142 7  23366614.671 0  23366616.788 0
 88  2 28 11 47 29.0800000  0  2  3 13
 -16627655.311 7  71277753.605 7  20930918.573 0  20930919.501 0
  10446979.588 7  63595019.278 6  23376661.458 0  23376664.102 0
 88  2 28 11 47 59.0800000  0  2  3 13
 -16632796.055 7  71273747.841 7  20929940.717 0  20929941.468 0
  10499900.375 7  63636256.245 6  23386732.107 0  23386733.506 0
 88  2 28 11 48 29.0800000  0  2  3 13
 -16637756.874 7  71269882.247 6  20928996.924 0  20928998.694 0
  10552948.645 7  63677592.549 7  23396827.322 0  23396829.555 0
 88  2 28 11 48 59.0800000  0  2  3 13
 -16642537.068 7  71266157.424 6  20928087.405 0  20928088.260 0
  10606125.234 7  63719028.847 6  23406946.520 0  23406948.228 0
 88  2 28 11 49 29.0800000  0  2  3 13
 -16647134.821 7  71262574.762 6  20927212.416 0  20927213.740 0
  10659430.975 7  63760565.767 7  23417089.367 0  23417091.196 0
 88  2 28 11 49 59.0800000  0  2  3 13
 -16651549.672 7  71259134.609 7  20926372.079 0  20926374.363 0
  10712866.074 7  63802203.508 6  23427258.464 0  23427260.510 0
 88  2 28 11 50 29.0800000  0  2  3 13
 -16655780.650 7  71255837.760 6  20925566.815 0  20925568.416 0
  10766431.134 7  63843942.514 6  23437450.941 0  23437452.207 0
 88  2 28 11 50 59.0800000  0  2  3 13
 -16659825.819 7  71252685.683 7  20924797.500 0  20924800.037 0
  10820127.018 7  63885783.446 7  23447668.157 0  23447670.733 0
 88  2 28 11 51 29.0800000  0  2  3 13
 -16663684.001 7  71249679.287 6  20924063.225 0  20924065.123 0
  10873954.713 7  63927727.067 7  23457910.448 0  23457913.053 0
 88  2 28 11 51 59.0800000  0  2  3 13
 -16667354.513 7  71246819.141 7  20923364.894 0  20923366.204 0
  10927914.774 7  63969773.858 6  23468180.229 0  23468182.179 0
 88  2 28 11 52 29.0800000  0  2  3 13
 -16670835.894 7  71244106.380 7  20922702.162 0  20922704.149 0
  10982007.714 7  64011924.190 7  23478474.177 0  23478476.486 0
 88  2 28 11 52 59.0800000  0  2  3 13
 -16674126.919 7  71241541.959 6  20922075.580 0  20922077.577 0
  11036234.069 8  64054178.490 6  23488793.314 0  23488794.264 0
 88  2 28 11 53 29.0800000  0  2  3 13
 -16677226.309 7  71239126.839 6  20921485.313 0  20921487.869 0
  11090594.742 7  64096537.453 7  23499138.173 0  23499139.724 0
 88  2 28 11 53 59.0800000  0  2  3 13
 -16680132.753 7  71236862.076 7  20920932.779 0  20920934.186 0
  11145090.278 7  64139001.481 7  23509508.073 0  23509508.611 0
 88  2 28 11 54 29.0800000  0  2  3 13
 -16682845.635 8  71234748.152 6  20920416.261 0  20920418.405 0
  11199721.659 8  64181571.372 7  23519903.776 0  23519906.827 0
 88  2 28 11 54 59.0800000  0  2  3 13
 -16685363.236 7  71232786.385 6  20919938.206 0  20919939.932 0
  11254489.558 7  64224247.656 7  23530327.135 0  23530329.597 0
 88  2 28 11 55 29.0800000  0  2  3 13
 -16687684.329 7  71230977.735 6  20919495.900 0  20919498.921 0
  11309394.612 7  64267030.812 6  23540773.927 0  23540775.026 0
 88  2 28 11 55 59.0800000  0  2  3 13
 -16689808.040 7  71229322.890 7  20919091.763 0  20919094.149 0
  11364437.631 7  64309921.443 6  23551249.137 0  23551250.549 0
 88  2 28 11 56 29.0800000  0  2  3 13
 -16691733.295 7  71227822.693 6  20918725.462 0  20918727.317 0
  11419618.629 7  64352919.628 6  23561749.423 0  23561751.226 0
 88  2 28 11 56 59.0800000  0  2  3 13
 -16693458.274 7  71226478.554 7  20918397.571 0  20918399.208 0
  11474938.502 7  64396026.005 6  23572277.400 0  23572278.487 0
 88  2 28 11 57 29.0800000  0  2  3 13
 -16694982.023 7  71225291.237 7  20918107.994 0  20918108.192 0
  11530398.179 7  64439241.323 6  23582829.937 0  23582829.931 0
 88  2 28 11 57 59.0800000  0  2  3 13
 -16696302.957 7  71224261.930 7  20917855.571 0  20917857.606 0
  11585998.192 7  64482565.976 7  23593409.948 0  23593413.053 0
 88  2 28 11 58 29.0800000  0  2  3 13
 -16697420.126 8  71223391.404 7  20917643.007 0  20917644.631 0
  11641738.770 7  64526000.180 6  23604015.647 0  23604019.467 0
 88  2 28 11 58 59.0800000  0  2  3 13
 -16698332.196 7  71222680.707 6  20917469.566 0  20917470.950 0
  11697620.924 7  64569544.691 6  23614650.278 0  23614654.502 0
 88  2 28 11 59 29.0800000  0  2  3 13
 -16699038.325 7  71222130.483 7  20917334.748 0  20917336.386 0
  11753645.073 7  64613199.894 6  23625311.193 0  23625315.025 0
